<?xml version="1.0" encoding="UTF-8" standalone="no" ?>
<gpx xmlns="http://www.topografix.com/GPX/1/1" xmlns:xsi="http://www.w3.org/2001/XMLSchema-instance" xsi:schemaLocation="http://www.topografix.com/GPX/1/1 http://www.topografix.com/GPX/1/1/gpx.xsd" version="1.1" creator="VisuGPX - https://www.visugpx.com">
  <metadata>
    <name>Aqueduc de Roquefavour</name>
    <desc><![CDATA[Boucle de 12.5 km, dénivelé 100m au départ du plateau de Ventabren]]></desc>
  </metadata>
  <trk>
    <name><![CDATA[Aqueduc de Roquefavour_20 mars 2019]]></name>
    <trkseg>
      <trkpt lat="43.53363" lon="5.30015">
        <ele>269.34303240871</ele>
        <time>2019-03-20T09:09:31Z</time>
      </trkpt>
      <trkpt lat="43.53364" lon="5.3002">
        <ele>261.98690830497</ele>
        <time>2019-03-20T09:09:36Z</time>
      </trkpt>
      <trkpt lat="43.53364" lon="5.30026">
        <ele>259.4706852639</ele>
        <time>2019-03-20T09:09:44Z</time>
      </trkpt>
      <trkpt lat="43.53364" lon="5.30032">
        <ele>257.99044336998</ele>
        <time>2019-03-20T09:09:49Z</time>
      </trkpt>
      <trkpt lat="43.53363" lon="5.30042">
        <ele>256.20295724739</ele>
        <time>2019-03-20T09:09:53Z</time>
      </trkpt>
      <trkpt lat="43.53362" lon="5.3005">
        <ele>255.42763694522</ele>
        <time>2019-03-20T09:09:57Z</time>
      </trkpt>
      <trkpt lat="43.53361" lon="5.30056">
        <ele>255.39173829762</ele>
        <time>2019-03-20T09:10:00Z</time>
      </trkpt>
      <trkpt lat="43.5336" lon="5.30065">
        <ele>255.34357671277</ele>
        <time>2019-03-20T09:10:04Z</time>
      </trkpt>
      <trkpt lat="43.53359" lon="5.30074">
        <ele>255.30054827251</ele>
        <time>2019-03-20T09:10:09Z</time>
      </trkpt>
      <trkpt lat="43.53358" lon="5.30083">
        <ele>255.24947533897</ele>
        <time>2019-03-20T09:10:13Z</time>
      </trkpt>
      <trkpt lat="43.53357" lon="5.30092">
        <ele>255.15381880667</ele>
        <time>2019-03-20T09:10:18Z</time>
      </trkpt>
      <trkpt lat="43.53356" lon="5.30098">
        <ele>255.08264379514</ele>
        <time>2019-03-20T09:10:21Z</time>
      </trkpt>
      <trkpt lat="43.53356" lon="5.30108">
        <ele>254.9465270321</ele>
        <time>2019-03-20T09:10:26Z</time>
      </trkpt>
      <trkpt lat="43.53355" lon="5.30115">
        <ele>254.82894755154</ele>
        <time>2019-03-20T09:10:30Z</time>
      </trkpt>
      <trkpt lat="43.53354" lon="5.30123">
        <ele>254.71176012181</ele>
        <time>2019-03-20T09:10:34Z</time>
      </trkpt>
      <trkpt lat="43.53353" lon="5.30133">
        <ele>254.53785650522</ele>
        <time>2019-03-20T09:10:39Z</time>
      </trkpt>
      <trkpt lat="43.53352" lon="5.30139">
        <ele>254.43233362786</ele>
        <time>2019-03-20T09:10:42Z</time>
      </trkpt>
      <trkpt lat="43.53352" lon="5.30148">
        <ele>254.30588275485</ele>
        <time>2019-03-20T09:10:46Z</time>
      </trkpt>
      <trkpt lat="43.53352" lon="5.30154">
        <ele>254.17867826866</ele>
        <time>2019-03-20T09:10:50Z</time>
      </trkpt>
      <trkpt lat="43.53351" lon="5.3016">
        <ele>254.04119322528</ele>
        <time>2019-03-20T09:10:54Z</time>
      </trkpt>
      <trkpt lat="43.5335" lon="5.30167">
        <ele>253.90837043834</ele>
        <time>2019-03-20T09:10:58Z</time>
      </trkpt>
      <trkpt lat="43.5335" lon="5.30173">
        <ele>253.78720575627</ele>
        <time>2019-03-20T09:11:02Z</time>
      </trkpt>
      <trkpt lat="43.53349" lon="5.30177">
        <ele>253.7014348244</ele>
        <time>2019-03-20T09:11:05Z</time>
      </trkpt>
      <trkpt lat="43.53348" lon="5.30184">
        <ele>253.56062200527</ele>
        <time>2019-03-20T09:11:10Z</time>
      </trkpt>
      <trkpt lat="43.53348" lon="5.30191">
        <ele>253.46181373847</ele>
        <time>2019-03-20T09:11:14Z</time>
      </trkpt>
      <trkpt lat="43.53348" lon="5.30197">
        <ele>253.36642097669</ele>
        <time>2019-03-20T09:11:18Z</time>
      </trkpt>
      <trkpt lat="43.53348" lon="5.30206">
        <ele>253.24477875442</ele>
        <time>2019-03-20T09:11:23Z</time>
      </trkpt>
      <trkpt lat="43.53347" lon="5.30215">
        <ele>253.12552223029</ele>
        <time>2019-03-20T09:11:28Z</time>
      </trkpt>
      <trkpt lat="43.53347" lon="5.30221">
        <ele>253.03763606771</ele>
        <time>2019-03-20T09:11:32Z</time>
      </trkpt>
      <trkpt lat="43.53346" lon="5.30229">
        <ele>252.95904386183</ele>
        <time>2019-03-20T09:11:36Z</time>
      </trkpt>
      <trkpt lat="43.53346" lon="5.30238">
        <ele>252.87211355392</ele>
        <time>2019-03-20T09:11:41Z</time>
      </trkpt>
      <trkpt lat="43.53345" lon="5.30246">
        <ele>252.8071100415</ele>
        <time>2019-03-20T09:11:46Z</time>
      </trkpt>
      <trkpt lat="43.53344" lon="5.30253">
        <ele>252.75403247307</ele>
        <time>2019-03-20T09:11:50Z</time>
      </trkpt>
      <trkpt lat="43.53344" lon="5.30259">
        <ele>252.68565614291</ele>
        <time>2019-03-20T09:11:54Z</time>
      </trkpt>
      <trkpt lat="43.53344" lon="5.30265">
        <ele>252.60337041319</ele>
        <time>2019-03-20T09:11:58Z</time>
      </trkpt>
      <trkpt lat="43.53344" lon="5.30273">
        <ele>252.49455056707</ele>
        <time>2019-03-20T09:12:03Z</time>
      </trkpt>
      <trkpt lat="43.53344" lon="5.30279">
        <ele>252.44411892347</ele>
        <time>2019-03-20T09:12:06Z</time>
      </trkpt>
      <trkpt lat="43.53344" lon="5.30287">
        <ele>252.3967693364</ele>
        <time>2019-03-20T09:12:10Z</time>
      </trkpt>
      <trkpt lat="43.53344" lon="5.30296">
        <ele>252.35505007267</ele>
        <time>2019-03-20T09:12:15Z</time>
      </trkpt>
      <trkpt lat="43.53344" lon="5.30304">
        <ele>252.31459065294</ele>
        <time>2019-03-20T09:12:20Z</time>
      </trkpt>
      <trkpt lat="43.53343" lon="5.30312">
        <ele>252.26730878035</ele>
        <time>2019-03-20T09:12:25Z</time>
      </trkpt>
      <trkpt lat="43.53342" lon="5.30319">
        <ele>252.22622780415</ele>
        <time>2019-03-20T09:12:29Z</time>
      </trkpt>
      <trkpt lat="43.53342" lon="5.30326">
        <ele>252.17248193933</ele>
        <time>2019-03-20T09:12:34Z</time>
      </trkpt>
      <trkpt lat="43.53342" lon="5.30334">
        <ele>252.11729937323</ele>
        <time>2019-03-20T09:12:38Z</time>
      </trkpt>
      <trkpt lat="43.5334" lon="5.30343">
        <ele>252.02714168306</ele>
        <time>2019-03-20T09:12:43Z</time>
      </trkpt>
      <trkpt lat="43.53339" lon="5.3035">
        <ele>251.95541011006</ele>
        <time>2019-03-20T09:12:47Z</time>
      </trkpt>
      <trkpt lat="43.53339" lon="5.30356">
        <ele>251.88582009424</ele>
        <time>2019-03-20T09:12:51Z</time>
      </trkpt>
      <trkpt lat="43.53338" lon="5.30363">
        <ele>251.8038519767</ele>
        <time>2019-03-20T09:12:56Z</time>
      </trkpt>
      <trkpt lat="43.53338" lon="5.30367">
        <ele>251.75480008938</ele>
        <time>2019-03-20T09:12:59Z</time>
      </trkpt>
      <trkpt lat="43.53337" lon="5.30375">
        <ele>251.67235952964</ele>
        <time>2019-03-20T09:13:04Z</time>
      </trkpt>
      <trkpt lat="43.53337" lon="5.3038">
        <ele>251.60407877604</ele>
        <time>2019-03-20T09:13:08Z</time>
      </trkpt>
      <trkpt lat="43.53337" lon="5.30384">
        <ele>251.54670782979</ele>
        <time>2019-03-20T09:13:11Z</time>
      </trkpt>
      <trkpt lat="43.53336" lon="5.30393">
        <ele>251.45171535845</ele>
        <time>2019-03-20T09:13:16Z</time>
      </trkpt>
      <trkpt lat="43.53335" lon="5.30402">
        <ele>251.36372374553</ele>
        <time>2019-03-20T09:13:21Z</time>
      </trkpt>
      <trkpt lat="43.53334" lon="5.30409">
        <ele>251.29723820813</ele>
        <time>2019-03-20T09:13:25Z</time>
      </trkpt>
      <trkpt lat="43.53333" lon="5.30417">
        <ele>251.21584941632</ele>
        <time>2019-03-20T09:13:30Z</time>
      </trkpt>
      <trkpt lat="43.53332" lon="5.30423">
        <ele>251.15663868407</ele>
        <time>2019-03-20T09:13:34Z</time>
      </trkpt>
      <trkpt lat="43.53331" lon="5.30432">
        <ele>251.08704914718</ele>
        <time>2019-03-20T09:13:39Z</time>
      </trkpt>
      <trkpt lat="43.5333" lon="5.30437">
        <ele>251.03215360892</ele>
        <time>2019-03-20T09:13:43Z</time>
      </trkpt>
      <trkpt lat="43.53327" lon="5.30441">
        <ele>250.97960068952</ele>
        <time>2019-03-20T09:13:47Z</time>
      </trkpt>
      <trkpt lat="43.53324" lon="5.30446">
        <ele>250.92712831225</ele>
        <time>2019-03-20T09:13:51Z</time>
      </trkpt>
      <trkpt lat="43.5332" lon="5.30454">
        <ele>250.84952830371</ele>
        <time>2019-03-20T09:13:56Z</time>
      </trkpt>
      <trkpt lat="43.53317" lon="5.30459">
        <ele>250.78475507297</ele>
        <time>2019-03-20T09:14:00Z</time>
      </trkpt>
      <trkpt lat="43.53313" lon="5.30461">
        <ele>250.69863975128</ele>
        <time>2019-03-20T09:14:05Z</time>
      </trkpt>
      <trkpt lat="43.53308" lon="5.30465">
        <ele>250.59871132643</ele>
        <time>2019-03-20T09:14:10Z</time>
      </trkpt>
      <trkpt lat="43.53304" lon="5.30466">
        <ele>250.50432108768</ele>
        <time>2019-03-20T09:14:14Z</time>
      </trkpt>
      <trkpt lat="43.533" lon="5.30468">
        <ele>250.40047077005</ele>
        <time>2019-03-20T09:14:18Z</time>
      </trkpt>
      <trkpt lat="43.53296" lon="5.3047">
        <ele>250.29169869502</ele>
        <time>2019-03-20T09:14:22Z</time>
      </trkpt>
      <trkpt lat="43.53293" lon="5.30472">
        <ele>250.20901961009</ele>
        <time>2019-03-20T09:14:25Z</time>
      </trkpt>
      <trkpt lat="43.53287" lon="5.30475">
        <ele>250.07217650835</ele>
        <time>2019-03-20T09:14:30Z</time>
      </trkpt>
      <trkpt lat="43.53281" lon="5.30479">
        <ele>249.92982829252</ele>
        <time>2019-03-20T09:14:35Z</time>
      </trkpt>
      <trkpt lat="43.53278" lon="5.30481">
        <ele>249.84559976977</ele>
        <time>2019-03-20T09:14:38Z</time>
      </trkpt>
      <trkpt lat="43.53274" lon="5.30485">
        <ele>249.73927098251</ele>
        <time>2019-03-20T09:14:42Z</time>
      </trkpt>
      <trkpt lat="43.53271" lon="5.30491">
        <ele>249.64088747411</ele>
        <time>2019-03-20T09:14:46Z</time>
      </trkpt>
      <trkpt lat="43.5327" lon="5.30496">
        <ele>249.54725231398</ele>
        <time>2019-03-20T09:14:50Z</time>
      </trkpt>
      <trkpt lat="43.53268" lon="5.30501">
        <ele>249.45451666612</ele>
        <time>2019-03-20T09:14:54Z</time>
      </trkpt>
      <trkpt lat="43.53267" lon="5.30508">
        <ele>249.36598255711</ele>
        <time>2019-03-20T09:14:58Z</time>
      </trkpt>
      <trkpt lat="43.53268" lon="5.30518">
        <ele>249.25753982164</ele>
        <time>2019-03-20T09:15:03Z</time>
      </trkpt>
      <trkpt lat="43.53268" lon="5.30522">
        <ele>249.19426459146</ele>
        <time>2019-03-20T09:15:06Z</time>
      </trkpt>
      <trkpt lat="43.5327" lon="5.30528">
        <ele>249.10997448254</ele>
        <time>2019-03-20T09:15:10Z</time>
      </trkpt>
      <trkpt lat="43.53272" lon="5.30532">
        <ele>249.02200993783</ele>
        <time>2019-03-20T09:15:14Z</time>
      </trkpt>
      <trkpt lat="43.53276" lon="5.30536">
        <ele>248.93057043696</ele>
        <time>2019-03-20T09:15:18Z</time>
      </trkpt>
      <trkpt lat="43.53279" lon="5.30539">
        <ele>248.79195166979</ele>
        <time>2019-03-20T09:15:24Z</time>
      </trkpt>
      <trkpt lat="43.53283" lon="5.3054">
        <ele>248.6316147718</ele>
        <time>2019-03-20T09:15:30Z</time>
      </trkpt>
      <trkpt lat="43.53289" lon="5.30539">
        <ele>248.50308097893</ele>
        <time>2019-03-20T09:15:34Z</time>
      </trkpt>
      <trkpt lat="43.53293" lon="5.3054">
        <ele>248.36447313426</ele>
        <time>2019-03-20T09:15:38Z</time>
      </trkpt>
      <trkpt lat="43.53297" lon="5.30541">
        <ele>248.2574034838</ele>
        <time>2019-03-20T09:15:41Z</time>
      </trkpt>
      <trkpt lat="43.53302" lon="5.30542">
        <ele>248.06526601014</ele>
        <time>2019-03-20T09:15:46Z</time>
      </trkpt>
      <trkpt lat="43.53306" lon="5.30544">
        <ele>247.91774860857</ele>
        <time>2019-03-20T09:15:50Z</time>
      </trkpt>
      <trkpt lat="43.53312" lon="5.30544">
        <ele>247.7750104729</ele>
        <time>2019-03-20T09:15:54Z</time>
      </trkpt>
      <trkpt lat="43.53318" lon="5.30544">
        <ele>247.6056279343</ele>
        <time>2019-03-20T09:15:59Z</time>
      </trkpt>
      <trkpt lat="43.53325" lon="5.30543">
        <ele>247.46641542404</ele>
        <time>2019-03-20T09:16:03Z</time>
      </trkpt>
      <trkpt lat="43.53329" lon="5.30542">
        <ele>247.31699070929</ele>
        <time>2019-03-20T09:16:07Z</time>
      </trkpt>
      <trkpt lat="43.53333" lon="5.30541">
        <ele>247.11482482793</ele>
        <time>2019-03-20T09:16:12Z</time>
      </trkpt>
      <trkpt lat="43.53336" lon="5.3054">
        <ele>246.99149352639</ele>
        <time>2019-03-20T09:16:15Z</time>
      </trkpt>
      <trkpt lat="43.53342" lon="5.30538">
        <ele>246.83701931765</ele>
        <time>2019-03-20T09:16:19Z</time>
      </trkpt>
      <trkpt lat="43.53345" lon="5.30538">
        <ele>246.68307688026</ele>
        <time>2019-03-20T09:16:24Z</time>
      </trkpt>
      <trkpt lat="43.53348" lon="5.30537">
        <ele>246.57061576022</ele>
        <time>2019-03-20T09:16:27Z</time>
      </trkpt>
      <trkpt lat="43.53353" lon="5.30535">
        <ele>246.39154362009</ele>
        <time>2019-03-20T09:16:32Z</time>
      </trkpt>
      <trkpt lat="43.53357" lon="5.30536">
        <ele>246.26029251643</ele>
        <time>2019-03-20T09:16:36Z</time>
      </trkpt>
      <trkpt lat="43.5336" lon="5.30536">
        <ele>246.19099282264</ele>
        <time>2019-03-20T09:16:40Z</time>
      </trkpt>
      <trkpt lat="43.53364" lon="5.30541">
        <ele>246.07006056277</ele>
        <time>2019-03-20T09:16:44Z</time>
      </trkpt>
      <trkpt lat="43.53367" lon="5.30546">
        <ele>245.95255093257</ele>
        <time>2019-03-20T09:16:48Z</time>
      </trkpt>
      <trkpt lat="43.5337" lon="5.30555">
        <ele>245.81281635315</ele>
        <time>2019-03-20T09:16:53Z</time>
      </trkpt>
      <trkpt lat="43.53371" lon="5.30561">
        <ele>245.70050901398</ele>
        <time>2019-03-20T09:16:57Z</time>
      </trkpt>
      <trkpt lat="43.53371" lon="5.30568">
        <ele>245.56393425745</ele>
        <time>2019-03-20T09:17:02Z</time>
      </trkpt>
      <trkpt lat="43.53371" lon="5.30573">
        <ele>245.46027684648</ele>
        <time>2019-03-20T09:17:06Z</time>
      </trkpt>
      <trkpt lat="43.5337" lon="5.3058">
        <ele>245.33385047494</ele>
        <time>2019-03-20T09:17:11Z</time>
      </trkpt>
      <trkpt lat="43.53368" lon="5.30585">
        <ele>245.22864854521</ele>
        <time>2019-03-20T09:17:15Z</time>
      </trkpt>
      <trkpt lat="43.53366" lon="5.3059">
        <ele>245.09482325324</ele>
        <time>2019-03-20T09:17:20Z</time>
      </trkpt>
      <trkpt lat="43.53364" lon="5.30595">
        <ele>245.00935314463</ele>
        <time>2019-03-20T09:17:23Z</time>
      </trkpt>
      <trkpt lat="43.5336" lon="5.30603">
        <ele>244.87056951878</ele>
        <time>2019-03-20T09:17:28Z</time>
      </trkpt>
      <trkpt lat="43.53357" lon="5.30609">
        <ele>244.76146662104</ele>
        <time>2019-03-20T09:17:32Z</time>
      </trkpt>
      <trkpt lat="43.53355" lon="5.30614">
        <ele>244.64841405252</ele>
        <time>2019-03-20T09:17:36Z</time>
      </trkpt>
      <trkpt lat="43.53353" lon="5.30618">
        <ele>244.52500740235</ele>
        <time>2019-03-20T09:17:40Z</time>
      </trkpt>
      <trkpt lat="43.5335" lon="5.30623">
        <ele>244.36183758349</ele>
        <time>2019-03-20T09:17:45Z</time>
      </trkpt>
      <trkpt lat="43.53347" lon="5.30629">
        <ele>244.22121931414</ele>
        <time>2019-03-20T09:17:49Z</time>
      </trkpt>
      <trkpt lat="43.53345" lon="5.30632">
        <ele>244.05825949658</ele>
        <time>2019-03-20T09:17:53Z</time>
      </trkpt>
      <trkpt lat="43.5334" lon="5.30638">
        <ele>243.82242009273</ele>
        <time>2019-03-20T09:17:58Z</time>
      </trkpt>
      <trkpt lat="43.53338" lon="5.30641">
        <ele>243.50676395426</ele>
        <time>2019-03-20T09:18:04Z</time>
      </trkpt>
      <trkpt lat="43.53334" lon="5.30647">
        <ele>243.27536426621</ele>
        <time>2019-03-20T09:18:08Z</time>
      </trkpt>
      <trkpt lat="43.53331" lon="5.30654">
        <ele>242.98591695665</ele>
        <time>2019-03-20T09:18:13Z</time>
      </trkpt>
      <trkpt lat="43.53327" lon="5.3066">
        <ele>242.70519457034</ele>
        <time>2019-03-20T09:18:18Z</time>
      </trkpt>
      <trkpt lat="43.53324" lon="5.30663">
        <ele>242.53597397923</ele>
        <time>2019-03-20T09:18:21Z</time>
      </trkpt>
      <trkpt lat="43.53319" lon="5.30666">
        <ele>242.2565923466</ele>
        <time>2019-03-20T09:18:26Z</time>
      </trkpt>
      <trkpt lat="43.53315" lon="5.30668">
        <ele>242.03381759313</ele>
        <time>2019-03-20T09:18:30Z</time>
      </trkpt>
      <trkpt lat="43.53311" lon="5.30671">
        <ele>241.81289009134</ele>
        <time>2019-03-20T09:18:34Z</time>
      </trkpt>
      <trkpt lat="43.53306" lon="5.30674">
        <ele>241.59322884526</ele>
        <time>2019-03-20T09:18:38Z</time>
      </trkpt>
      <trkpt lat="43.53301" lon="5.30677">
        <ele>241.32262078966</ele>
        <time>2019-03-20T09:18:43Z</time>
      </trkpt>
      <trkpt lat="43.53297" lon="5.30679">
        <ele>241.05615785371</ele>
        <time>2019-03-20T09:18:48Z</time>
      </trkpt>
      <trkpt lat="43.53292" lon="5.30681">
        <ele>240.84728451612</ele>
        <time>2019-03-20T09:18:52Z</time>
      </trkpt>
      <trkpt lat="43.53287" lon="5.3068">
        <ele>240.58525369507</ele>
        <time>2019-03-20T09:18:57Z</time>
      </trkpt>
      <trkpt lat="43.53284" lon="5.30681">
        <ele>240.32336371933</ele>
        <time>2019-03-20T09:19:02Z</time>
      </trkpt>
      <trkpt lat="43.53279" lon="5.30683">
        <ele>240.07401717413</ele>
        <time>2019-03-20T09:19:07Z</time>
      </trkpt>
      <trkpt lat="43.53275" lon="5.30682">
        <ele>239.73019815236</ele>
        <time>2019-03-20T09:19:14Z</time>
      </trkpt>
      <trkpt lat="43.53271" lon="5.30681">
        <ele>239.47506083652</ele>
        <time>2019-03-20T09:19:20Z</time>
      </trkpt>
      <trkpt lat="43.53267" lon="5.30682">
        <ele>239.1480256328</ele>
        <time>2019-03-20T09:19:27Z</time>
      </trkpt>
      <trkpt lat="43.53262" lon="5.30682">
        <ele>238.8626811166</ele>
        <time>2019-03-20T09:19:32Z</time>
      </trkpt>
      <trkpt lat="43.53257" lon="5.30683">
        <ele>238.63204446006</ele>
        <time>2019-03-20T09:19:36Z</time>
      </trkpt>
      <trkpt lat="43.53253" lon="5.30684">
        <ele>238.34736878738</ele>
        <time>2019-03-20T09:19:41Z</time>
      </trkpt>
      <trkpt lat="43.53249" lon="5.30687">
        <ele>238.11433095181</ele>
        <time>2019-03-20T09:19:46Z</time>
      </trkpt>
      <trkpt lat="43.53246" lon="5.30688">
        <ele>237.89534763499</ele>
        <time>2019-03-20T09:19:50Z</time>
      </trkpt>
      <trkpt lat="43.53242" lon="5.30688">
        <ele>237.68078261437</ele>
        <time>2019-03-20T09:19:54Z</time>
      </trkpt>
      <trkpt lat="43.53238" lon="5.30686">
        <ele>237.46900411449</ele>
        <time>2019-03-20T09:19:59Z</time>
      </trkpt>
      <trkpt lat="43.53233" lon="5.30683">
        <ele>237.21204325434</ele>
        <time>2019-03-20T09:20:04Z</time>
      </trkpt>
      <trkpt lat="43.53228" lon="5.30682">
        <ele>237.05964725781</ele>
        <time>2019-03-20T09:20:07Z</time>
      </trkpt>
      <trkpt lat="43.53223" lon="5.30683">
        <ele>236.86166931542</ele>
        <time>2019-03-20T09:20:11Z</time>
      </trkpt>
      <trkpt lat="43.53217" lon="5.30687">
        <ele>236.66614657098</ele>
        <time>2019-03-20T09:20:15Z</time>
      </trkpt>
      <trkpt lat="43.5321" lon="5.3069">
        <ele>236.47152254258</ele>
        <time>2019-03-20T09:20:19Z</time>
      </trkpt>
      <trkpt lat="43.53204" lon="5.30692">
        <ele>236.33100408867</ele>
        <time>2019-03-20T09:20:22Z</time>
      </trkpt>
      <trkpt lat="43.53199" lon="5.30692">
        <ele>236.10134538534</ele>
        <time>2019-03-20T09:20:27Z</time>
      </trkpt>
      <trkpt lat="43.53193" lon="5.30692">
        <ele>235.87960238667</ele>
        <time>2019-03-20T09:20:32Z</time>
      </trkpt>
      <trkpt lat="43.53188" lon="5.30692">
        <ele>235.71015975367</ele>
        <time>2019-03-20T09:20:36Z</time>
      </trkpt>
      <trkpt lat="43.53183" lon="5.30694">
        <ele>235.49268332908</ele>
        <time>2019-03-20T09:20:41Z</time>
      </trkpt>
      <trkpt lat="43.53179" lon="5.30695">
        <ele>235.27947275859</ele>
        <time>2019-03-20T09:20:46Z</time>
      </trkpt>
      <trkpt lat="43.53173" lon="5.30696">
        <ele>235.06085632427</ele>
        <time>2019-03-20T09:20:51Z</time>
      </trkpt>
      <trkpt lat="43.53167" lon="5.30695">
        <ele>234.89352823287</ele>
        <time>2019-03-20T09:20:55Z</time>
      </trkpt>
      <trkpt lat="43.53162" lon="5.30693">
        <ele>234.73322867753</ele>
        <time>2019-03-20T09:20:59Z</time>
      </trkpt>
      <trkpt lat="43.53157" lon="5.30692">
        <ele>234.57996341969</ele>
        <time>2019-03-20T09:21:03Z</time>
      </trkpt>
      <trkpt lat="43.53154" lon="5.30692">
        <ele>234.43162393912</ele>
        <time>2019-03-20T09:21:07Z</time>
      </trkpt>
      <trkpt lat="43.5315" lon="5.30692">
        <ele>234.28139258816</ele>
        <time>2019-03-20T09:21:11Z</time>
      </trkpt>
      <trkpt lat="43.53146" lon="5.30693">
        <ele>234.13077942663</ele>
        <time>2019-03-20T09:21:15Z</time>
      </trkpt>
      <trkpt lat="43.53143" lon="5.30695">
        <ele>233.96519509345</ele>
        <time>2019-03-20T09:21:19Z</time>
      </trkpt>
      <trkpt lat="43.53137" lon="5.30697">
        <ele>233.78919737473</ele>
        <time>2019-03-20T09:21:23Z</time>
      </trkpt>
      <trkpt lat="43.53133" lon="5.30699">
        <ele>233.60003872656</ele>
        <time>2019-03-20T09:21:27Z</time>
      </trkpt>
      <trkpt lat="43.53128" lon="5.30699">
        <ele>233.4092974571</ele>
        <time>2019-03-20T09:21:31Z</time>
      </trkpt>
      <trkpt lat="43.53125" lon="5.30699">
        <ele>233.26729147769</ele>
        <time>2019-03-20T09:21:35Z</time>
      </trkpt>
      <trkpt lat="43.53121" lon="5.307">
        <ele>233.09446581935</ele>
        <time>2019-03-20T09:21:39Z</time>
      </trkpt>
      <trkpt lat="43.53117" lon="5.30701">
        <ele>232.9307556296</ele>
        <time>2019-03-20T09:21:43Z</time>
      </trkpt>
      <trkpt lat="43.53112" lon="5.30701">
        <ele>232.68341857849</ele>
        <time>2019-03-20T09:21:49Z</time>
      </trkpt>
      <trkpt lat="43.53109" lon="5.30701">
        <ele>232.51858531063</ele>
        <time>2019-03-20T09:21:53Z</time>
      </trkpt>
      <trkpt lat="43.53104" lon="5.30696">
        <ele>232.34699073224</ele>
        <time>2019-03-20T09:21:57Z</time>
      </trkpt>
      <trkpt lat="43.53101" lon="5.30693">
        <ele>232.16457421649</ele>
        <time>2019-03-20T09:22:01Z</time>
      </trkpt>
      <trkpt lat="43.53096" lon="5.30686">
        <ele>231.92688846727</ele>
        <time>2019-03-20T09:22:06Z</time>
      </trkpt>
      <trkpt lat="43.53092" lon="5.30679">
        <ele>231.69514501219</ele>
        <time>2019-03-20T09:22:11Z</time>
      </trkpt>
      <trkpt lat="43.53089" lon="5.30674">
        <ele>231.38941072744</ele>
        <time>2019-03-20T09:22:19Z</time>
      </trkpt>
      <trkpt lat="43.53086" lon="5.30671">
        <ele>230.96935055805</ele>
        <time>2019-03-20T09:22:30Z</time>
      </trkpt>
      <trkpt lat="43.53083" lon="5.30667">
        <ele>230.8252844237</ele>
        <time>2019-03-20T09:22:34Z</time>
      </trkpt>
      <trkpt lat="43.53079" lon="5.30666">
        <ele>230.58435894288</ele>
        <time>2019-03-20T09:22:41Z</time>
      </trkpt>
      <trkpt lat="43.53075" lon="5.30664">
        <ele>230.42081349838</ele>
        <time>2019-03-20T09:22:46Z</time>
      </trkpt>
      <trkpt lat="43.53071" lon="5.30662">
        <ele>230.29288451195</ele>
        <time>2019-03-20T09:22:50Z</time>
      </trkpt>
      <trkpt lat="43.53067" lon="5.3066">
        <ele>230.04258510832</ele>
        <time>2019-03-20T09:22:58Z</time>
      </trkpt>
      <trkpt lat="43.53064" lon="5.30663">
        <ele>229.91908739455</ele>
        <time>2019-03-20T09:23:02Z</time>
      </trkpt>
      <trkpt lat="43.53061" lon="5.30669">
        <ele>229.79066755677</ele>
        <time>2019-03-20T09:23:06Z</time>
      </trkpt>
      <trkpt lat="43.53058" lon="5.30674">
        <ele>229.65883118884</ele>
        <time>2019-03-20T09:23:10Z</time>
      </trkpt>
      <trkpt lat="43.53055" lon="5.3068">
        <ele>229.49100940372</ele>
        <time>2019-03-20T09:23:15Z</time>
      </trkpt>
      <trkpt lat="43.53052" lon="5.30687">
        <ele>229.31239578524</ele>
        <time>2019-03-20T09:23:20Z</time>
      </trkpt>
      <trkpt lat="43.53049" lon="5.30693">
        <ele>229.1259321853</ele>
        <time>2019-03-20T09:23:25Z</time>
      </trkpt>
      <trkpt lat="43.53046" lon="5.30699">
        <ele>228.97113143295</ele>
        <time>2019-03-20T09:23:29Z</time>
      </trkpt>
      <trkpt lat="43.53043" lon="5.30704">
        <ele>228.81756518319</ele>
        <time>2019-03-20T09:23:33Z</time>
      </trkpt>
      <trkpt lat="43.53039" lon="5.30711">
        <ele>228.61776245343</ele>
        <time>2019-03-20T09:23:38Z</time>
      </trkpt>
      <trkpt lat="43.53035" lon="5.30719">
        <ele>228.45691837656</ele>
        <time>2019-03-20T09:23:42Z</time>
      </trkpt>
      <trkpt lat="43.53031" lon="5.30725">
        <ele>228.30014980392</ele>
        <time>2019-03-20T09:23:46Z</time>
      </trkpt>
      <trkpt lat="43.53027" lon="5.30731">
        <ele>228.14048995231</ele>
        <time>2019-03-20T09:23:50Z</time>
      </trkpt>
      <trkpt lat="43.53025" lon="5.30734">
        <ele>227.97585518825</ele>
        <time>2019-03-20T09:23:54Z</time>
      </trkpt>
      <trkpt lat="43.53021" lon="5.30739">
        <ele>227.77231803286</ele>
        <time>2019-03-20T09:23:59Z</time>
      </trkpt>
      <trkpt lat="43.53017" lon="5.30746">
        <ele>227.57576980902</ele>
        <time>2019-03-20T09:24:04Z</time>
      </trkpt>
      <trkpt lat="43.53015" lon="5.30749">
        <ele>227.41859414575</ele>
        <time>2019-03-20T09:24:08Z</time>
      </trkpt>
      <trkpt lat="43.53012" lon="5.30755">
        <ele>227.21887486023</ele>
        <time>2019-03-20T09:24:13Z</time>
      </trkpt>
      <trkpt lat="43.53007" lon="5.30765">
        <ele>227.00783551087</ele>
        <time>2019-03-20T09:24:18Z</time>
      </trkpt>
      <trkpt lat="43.53003" lon="5.30769">
        <ele>226.78831090316</ele>
        <time>2019-03-20T09:24:23Z</time>
      </trkpt>
      <trkpt lat="43.52999" lon="5.30771">
        <ele>226.60998382663</ele>
        <time>2019-03-20T09:24:27Z</time>
      </trkpt>
      <trkpt lat="43.52997" lon="5.30775">
        <ele>226.4806600731</ele>
        <time>2019-03-20T09:24:30Z</time>
      </trkpt>
      <trkpt lat="43.52993" lon="5.30783">
        <ele>226.31605458685</ele>
        <time>2019-03-20T09:24:35Z</time>
      </trkpt>
      <trkpt lat="43.52995" lon="5.30789">
        <ele>225.9994383975</ele>
        <time>2019-03-20T09:24:43Z</time>
      </trkpt>
      <trkpt lat="43.52997" lon="5.30793">
        <ele>225.8395511119</ele>
        <time>2019-03-20T09:24:47Z</time>
      </trkpt>
      <trkpt lat="43.53" lon="5.30803">
        <ele>225.63590074577</ele>
        <time>2019-03-20T09:24:52Z</time>
      </trkpt>
      <trkpt lat="43.53004" lon="5.3081">
        <ele>225.47438533768</ele>
        <time>2019-03-20T09:24:56Z</time>
      </trkpt>
      <trkpt lat="43.53008" lon="5.30816">
        <ele>225.27155629639</ele>
        <time>2019-03-20T09:25:01Z</time>
      </trkpt>
      <trkpt lat="43.5301" lon="5.3082">
        <ele>225.14833033211</ele>
        <time>2019-03-20T09:25:04Z</time>
      </trkpt>
      <trkpt lat="43.53013" lon="5.30822">
        <ele>225.0249762276</ele>
        <time>2019-03-20T09:25:07Z</time>
      </trkpt>
      <trkpt lat="43.53017" lon="5.30827">
        <ele>224.82128180633</ele>
        <time>2019-03-20T09:25:12Z</time>
      </trkpt>
      <trkpt lat="43.5302" lon="5.3083">
        <ele>224.65573808042</ele>
        <time>2019-03-20T09:25:16Z</time>
      </trkpt>
      <trkpt lat="43.53024" lon="5.30833">
        <ele>224.44212886986</ele>
        <time>2019-03-20T09:25:21Z</time>
      </trkpt>
      <trkpt lat="43.53026" lon="5.30836">
        <ele>224.26682398324</ele>
        <time>2019-03-20T09:25:25Z</time>
      </trkpt>
      <trkpt lat="43.5303" lon="5.30842">
        <ele>224.04921181316</ele>
        <time>2019-03-20T09:25:30Z</time>
      </trkpt>
      <trkpt lat="43.53034" lon="5.30848">
        <ele>223.87641709035</ele>
        <time>2019-03-20T09:25:34Z</time>
      </trkpt>
      <trkpt lat="43.53038" lon="5.30852">
        <ele>223.70992186039</ele>
        <time>2019-03-20T09:25:38Z</time>
      </trkpt>
      <trkpt lat="43.53041" lon="5.30856">
        <ele>223.41563624667</ele>
        <time>2019-03-20T09:25:46Z</time>
      </trkpt>
      <trkpt lat="43.53043" lon="5.30858">
        <ele>223.13408903875</ele>
        <time>2019-03-20T09:25:55Z</time>
      </trkpt>
      <trkpt lat="43.53045" lon="5.30862">
        <ele>222.9793283204</ele>
        <time>2019-03-20T09:25:59Z</time>
      </trkpt>
      <trkpt lat="43.53046" lon="5.30868">
        <ele>222.81959057798</ele>
        <time>2019-03-20T09:26:03Z</time>
      </trkpt>
      <trkpt lat="43.53049" lon="5.30874">
        <ele>222.62007039235</ele>
        <time>2019-03-20T09:26:08Z</time>
      </trkpt>
      <trkpt lat="43.53051" lon="5.3088">
        <ele>222.46159304344</ele>
        <time>2019-03-20T09:26:12Z</time>
      </trkpt>
      <trkpt lat="43.53051" lon="5.3089">
        <ele>222.28023709189</ele>
        <time>2019-03-20T09:26:17Z</time>
      </trkpt>
      <trkpt lat="43.53052" lon="5.30896">
        <ele>222.03825476582</ele>
        <time>2019-03-20T09:26:24Z</time>
      </trkpt>
      <trkpt lat="43.53052" lon="5.30902">
        <ele>221.77952847317</ele>
        <time>2019-03-20T09:26:32Z</time>
      </trkpt>
      <trkpt lat="43.53052" lon="5.30909">
        <ele>221.6250756012</ele>
        <time>2019-03-20T09:26:36Z</time>
      </trkpt>
      <trkpt lat="43.53052" lon="5.30921">
        <ele>221.45666002462</ele>
        <time>2019-03-20T09:26:41Z</time>
      </trkpt>
      <trkpt lat="43.53048" lon="5.30928">
        <ele>221.29248744419</ele>
        <time>2019-03-20T09:26:45Z</time>
      </trkpt>
      <trkpt lat="43.53045" lon="5.30935">
        <ele>221.12847168826</ele>
        <time>2019-03-20T09:26:49Z</time>
      </trkpt>
      <trkpt lat="43.53043" lon="5.30943">
        <ele>220.9675722311</ele>
        <time>2019-03-20T09:26:53Z</time>
      </trkpt>
      <trkpt lat="43.5304" lon="5.3095">
        <ele>220.8040688397</ele>
        <time>2019-03-20T09:26:58Z</time>
      </trkpt>
      <trkpt lat="43.53039" lon="5.30955">
        <ele>220.49879889735</ele>
        <time>2019-03-20T09:27:05Z</time>
      </trkpt>
      <trkpt lat="43.53041" lon="5.30962">
        <ele>220.32507150422</ele>
        <time>2019-03-20T09:27:09Z</time>
      </trkpt>
      <trkpt lat="43.53041" lon="5.30965">
        <ele>220.1587879574</ele>
        <time>2019-03-20T09:27:13Z</time>
      </trkpt>
      <trkpt lat="43.53042" lon="5.30972">
        <ele>219.98768059626</ele>
        <time>2019-03-20T09:27:18Z</time>
      </trkpt>
      <trkpt lat="43.53045" lon="5.30982">
        <ele>219.79141218754</ele>
        <time>2019-03-20T09:27:23Z</time>
      </trkpt>
      <trkpt lat="43.53049" lon="5.30985">
        <ele>219.33886290993</ele>
        <time>2019-03-20T09:27:37Z</time>
      </trkpt>
      <trkpt lat="43.53052" lon="5.3098">
        <ele>219.15986413903</ele>
        <time>2019-03-20T09:27:42Z</time>
      </trkpt>
      <trkpt lat="43.53053" lon="5.30975">
        <ele>218.98305801024</ele>
        <time>2019-03-20T09:27:48Z</time>
      </trkpt>
      <trkpt lat="43.53057" lon="5.30971">
        <ele>218.84484446055</ele>
        <time>2019-03-20T09:27:52Z</time>
      </trkpt>
      <trkpt lat="43.53061" lon="5.30967">
        <ele>218.70504336611</ele>
        <time>2019-03-20T09:27:56Z</time>
      </trkpt>
      <trkpt lat="43.53064" lon="5.30965">
        <ele>218.54682698822</ele>
        <time>2019-03-20T09:28:02Z</time>
      </trkpt>
      <trkpt lat="43.53068" lon="5.30967">
        <ele>218.32430075981</ele>
        <time>2019-03-20T09:28:08Z</time>
      </trkpt>
      <trkpt lat="43.53072" lon="5.30971">
        <ele>218.1562483658</ele>
        <time>2019-03-20T09:28:13Z</time>
      </trkpt>
      <trkpt lat="43.53075" lon="5.30974">
        <ele>218.06090503655</ele>
        <time>2019-03-20T09:28:16Z</time>
      </trkpt>
      <trkpt lat="43.53076" lon="5.30979">
        <ele>217.84725696294</ele>
        <time>2019-03-20T09:28:23Z</time>
      </trkpt>
      <trkpt lat="43.53079" lon="5.30984">
        <ele>217.70251764305</ele>
        <time>2019-03-20T09:28:28Z</time>
      </trkpt>
      <trkpt lat="43.53082" lon="5.30989">
        <ele>217.61708547444</ele>
        <time>2019-03-20T09:28:32Z</time>
      </trkpt>
      <trkpt lat="43.53085" lon="5.30994">
        <ele>217.5048560765</ele>
        <time>2019-03-20T09:28:36Z</time>
      </trkpt>
      <trkpt lat="43.53086" lon="5.31001">
        <ele>217.39963523414</ele>
        <time>2019-03-20T09:28:40Z</time>
      </trkpt>
      <trkpt lat="43.53087" lon="5.31007">
        <ele>217.27859715747</ele>
        <time>2019-03-20T09:28:45Z</time>
      </trkpt>
      <trkpt lat="43.53089" lon="5.31012">
        <ele>217.12060035926</ele>
        <time>2019-03-20T09:28:52Z</time>
      </trkpt>
      <trkpt lat="43.53092" lon="5.31015">
        <ele>217.01116566001</ele>
        <time>2019-03-20T09:28:57Z</time>
      </trkpt>
      <trkpt lat="43.53096" lon="5.3102">
        <ele>216.93321649418</ele>
        <time>2019-03-20T09:29:01Z</time>
      </trkpt>
      <trkpt lat="43.53101" lon="5.31021">
        <ele>216.84316000149</ele>
        <time>2019-03-20T09:29:06Z</time>
      </trkpt>
      <trkpt lat="43.53104" lon="5.31022">
        <ele>216.77250072672</ele>
        <time>2019-03-20T09:29:10Z</time>
      </trkpt>
      <trkpt lat="43.53108" lon="5.31023">
        <ele>216.68818345718</ele>
        <time>2019-03-20T09:29:15Z</time>
      </trkpt>
      <trkpt lat="43.53112" lon="5.31024">
        <ele>216.60898991415</ele>
        <time>2019-03-20T09:29:20Z</time>
      </trkpt>
      <trkpt lat="43.53115" lon="5.31026">
        <ele>216.55510383954</ele>
        <time>2019-03-20T09:29:24Z</time>
      </trkpt>
      <trkpt lat="43.53118" lon="5.3103">
        <ele>216.51507629764</ele>
        <time>2019-03-20T09:29:28Z</time>
      </trkpt>
      <trkpt lat="43.53123" lon="5.31037">
        <ele>216.48256314002</ele>
        <time>2019-03-20T09:29:32Z</time>
      </trkpt>
      <trkpt lat="43.53129" lon="5.31039">
        <ele>216.45187792991</ele>
        <time>2019-03-20T09:29:37Z</time>
      </trkpt>
      <trkpt lat="43.53133" lon="5.31042">
        <ele>216.42794252834</ele>
        <time>2019-03-20T09:29:41Z</time>
      </trkpt>
      <trkpt lat="43.53137" lon="5.31044">
        <ele>216.40355965401</ele>
        <time>2019-03-20T09:29:45Z</time>
      </trkpt>
      <trkpt lat="43.53143" lon="5.31046">
        <ele>216.37597726289</ele>
        <time>2019-03-20T09:29:50Z</time>
      </trkpt>
      <trkpt lat="43.53147" lon="5.31043">
        <ele>216.33866490386</ele>
        <time>2019-03-20T09:29:57Z</time>
      </trkpt>
      <trkpt lat="43.53151" lon="5.31042">
        <ele>216.31547199904</ele>
        <time>2019-03-20T09:30:01Z</time>
      </trkpt>
      <trkpt lat="43.53156" lon="5.31042">
        <ele>216.28204184782</ele>
        <time>2019-03-20T09:30:06Z</time>
      </trkpt>
      <trkpt lat="43.53162" lon="5.31042">
        <ele>216.25351074011</ele>
        <time>2019-03-20T09:30:10Z</time>
      </trkpt>
      <trkpt lat="43.53166" lon="5.31045">
        <ele>216.23092031505</ele>
        <time>2019-03-20T09:30:13Z</time>
      </trkpt>
      <trkpt lat="43.53174" lon="5.31053">
        <ele>216.19640093709</ele>
        <time>2019-03-20T09:30:18Z</time>
      </trkpt>
      <trkpt lat="43.53178" lon="5.31057">
        <ele>216.17492599841</ele>
        <time>2019-03-20T09:30:22Z</time>
      </trkpt>
      <trkpt lat="43.53181" lon="5.31061">
        <ele>216.15229487763</ele>
        <time>2019-03-20T09:30:26Z</time>
      </trkpt>
      <trkpt lat="43.53186" lon="5.31063">
        <ele>216.12820821456</ele>
        <time>2019-03-20T09:30:31Z</time>
      </trkpt>
      <trkpt lat="43.5319" lon="5.31066">
        <ele>216.11404845645</ele>
        <time>2019-03-20T09:30:35Z</time>
      </trkpt>
      <trkpt lat="43.53195" lon="5.31069">
        <ele>216.10058585213</ele>
        <time>2019-03-20T09:30:40Z</time>
      </trkpt>
      <trkpt lat="43.53199" lon="5.31072">
        <ele>216.0865403673</ele>
        <time>2019-03-20T09:30:45Z</time>
      </trkpt>
      <trkpt lat="43.53204" lon="5.31073">
        <ele>216.07834950434</ele>
        <time>2019-03-20T09:30:49Z</time>
      </trkpt>
      <trkpt lat="43.53209" lon="5.31073">
        <ele>216.07520633998</ele>
        <time>2019-03-20T09:30:53Z</time>
      </trkpt>
      <trkpt lat="43.53212" lon="5.31074">
        <ele>216.07284136747</ele>
        <time>2019-03-20T09:30:58Z</time>
      </trkpt>
      <trkpt lat="43.53217" lon="5.31077">
        <ele>216.08228819</ele>
        <time>2019-03-20T09:31:03Z</time>
      </trkpt>
      <trkpt lat="43.53221" lon="5.3108">
        <ele>216.09531114231</ele>
        <time>2019-03-20T09:31:07Z</time>
      </trkpt>
      <trkpt lat="43.53225" lon="5.31082">
        <ele>216.11136289545</ele>
        <time>2019-03-20T09:31:12Z</time>
      </trkpt>
      <trkpt lat="43.53228" lon="5.31084">
        <ele>216.1253989513</ele>
        <time>2019-03-20T09:31:17Z</time>
      </trkpt>
      <trkpt lat="43.53231" lon="5.31087">
        <ele>216.13157911983</ele>
        <time>2019-03-20T09:31:20Z</time>
      </trkpt>
      <trkpt lat="43.53233" lon="5.31094">
        <ele>216.13841950363</ele>
        <time>2019-03-20T09:31:24Z</time>
      </trkpt>
      <trkpt lat="43.53237" lon="5.31106">
        <ele>216.14789488609</ele>
        <time>2019-03-20T09:31:29Z</time>
      </trkpt>
      <trkpt lat="43.53239" lon="5.31112">
        <ele>216.15568329467</ele>
        <time>2019-03-20T09:31:32Z</time>
      </trkpt>
      <trkpt lat="43.53242" lon="5.31118">
        <ele>216.17050591294</ele>
        <time>2019-03-20T09:31:37Z</time>
      </trkpt>
      <trkpt lat="43.53245" lon="5.31122">
        <ele>216.18279812148</ele>
        <time>2019-03-20T09:31:41Z</time>
      </trkpt>
      <trkpt lat="43.53248" lon="5.31123">
        <ele>216.19681648682</ele>
        <time>2019-03-20T09:31:47Z</time>
      </trkpt>
      <trkpt lat="43.53252" lon="5.31122">
        <ele>216.20751846194</ele>
        <time>2019-03-20T09:31:54Z</time>
      </trkpt>
      <trkpt lat="43.53256" lon="5.31119">
        <ele>216.21042535504</ele>
        <time>2019-03-20T09:31:57Z</time>
      </trkpt>
      <trkpt lat="43.53262" lon="5.31113">
        <ele>216.21480235005</ele>
        <time>2019-03-20T09:32:01Z</time>
      </trkpt>
      <trkpt lat="43.53266" lon="5.31111">
        <ele>216.22010377474</ele>
        <time>2019-03-20T09:32:06Z</time>
      </trkpt>
      <trkpt lat="43.53269" lon="5.31113">
        <ele>216.22904737976</ele>
        <time>2019-03-20T09:32:11Z</time>
      </trkpt>
      <trkpt lat="43.53274" lon="5.31117">
        <ele>216.23625109691</ele>
        <time>2019-03-20T09:32:15Z</time>
      </trkpt>
      <trkpt lat="43.5328" lon="5.31121">
        <ele>216.24702130324</ele>
        <time>2019-03-20T09:32:20Z</time>
      </trkpt>
      <trkpt lat="43.53283" lon="5.31125">
        <ele>216.26000927335</ele>
        <time>2019-03-20T09:32:24Z</time>
      </trkpt>
      <trkpt lat="43.53288" lon="5.31129">
        <ele>216.27361680607</ele>
        <time>2019-03-20T09:32:28Z</time>
      </trkpt>
      <trkpt lat="43.53292" lon="5.31132">
        <ele>216.28569234538</ele>
        <time>2019-03-20T09:32:32Z</time>
      </trkpt>
      <trkpt lat="43.53297" lon="5.31131">
        <ele>216.30049581238</ele>
        <time>2019-03-20T09:32:36Z</time>
      </trkpt>
      <trkpt lat="43.53301" lon="5.31131">
        <ele>216.31919499225</ele>
        <time>2019-03-20T09:32:41Z</time>
      </trkpt>
      <trkpt lat="43.53305" lon="5.31131">
        <ele>216.3346910257</ele>
        <time>2019-03-20T09:32:46Z</time>
      </trkpt>
      <trkpt lat="43.5331" lon="5.31129">
        <ele>216.34803725874</ele>
        <time>2019-03-20T09:32:50Z</time>
      </trkpt>
      <trkpt lat="43.53319" lon="5.31125">
        <ele>216.3666668845</ele>
        <time>2019-03-20T09:32:55Z</time>
      </trkpt>
      <trkpt lat="43.53323" lon="5.31124">
        <ele>216.38218357032</ele>
        <time>2019-03-20T09:32:59Z</time>
      </trkpt>
      <trkpt lat="43.53328" lon="5.31122">
        <ele>216.39771118386</ele>
        <time>2019-03-20T09:33:03Z</time>
      </trkpt>
      <trkpt lat="43.53331" lon="5.31119">
        <ele>216.41725794936</ele>
        <time>2019-03-20T09:33:07Z</time>
      </trkpt>
      <trkpt lat="43.53338" lon="5.31116">
        <ele>216.44081615528</ele>
        <time>2019-03-20T09:33:12Z</time>
      </trkpt>
      <trkpt lat="43.5334" lon="5.31114">
        <ele>216.45442698402</ele>
        <time>2019-03-20T09:33:15Z</time>
      </trkpt>
      <trkpt lat="43.53345" lon="5.31112">
        <ele>216.47143201959</ele>
        <time>2019-03-20T09:33:19Z</time>
      </trkpt>
      <trkpt lat="43.53348" lon="5.31109">
        <ele>216.4871511089</ele>
        <time>2019-03-20T09:33:23Z</time>
      </trkpt>
      <trkpt lat="43.53351" lon="5.31106">
        <ele>216.49954159852</ele>
        <time>2019-03-20T09:33:27Z</time>
      </trkpt>
      <trkpt lat="43.53356" lon="5.31105">
        <ele>216.51318723875</ele>
        <time>2019-03-20T09:33:33Z</time>
      </trkpt>
      <trkpt lat="43.5336" lon="5.31104">
        <ele>216.52855683789</ele>
        <time>2019-03-20T09:33:39Z</time>
      </trkpt>
      <trkpt lat="43.53363" lon="5.31103">
        <ele>216.53454651491</ele>
        <time>2019-03-20T09:33:42Z</time>
      </trkpt>
      <trkpt lat="43.53366" lon="5.311">
        <ele>216.54376385307</ele>
        <time>2019-03-20T09:33:47Z</time>
      </trkpt>
      <trkpt lat="43.5337" lon="5.31099">
        <ele>216.55771580997</ele>
        <time>2019-03-20T09:33:52Z</time>
      </trkpt>
      <trkpt lat="43.53374" lon="5.31098">
        <ele>216.57168373692</ele>
        <time>2019-03-20T09:33:58Z</time>
      </trkpt>
      <trkpt lat="43.53378" lon="5.31096">
        <ele>216.58050851491</ele>
        <time>2019-03-20T09:34:02Z</time>
      </trkpt>
      <trkpt lat="43.53382" lon="5.31095">
        <ele>216.5872354522</ele>
        <time>2019-03-20T09:34:05Z</time>
      </trkpt>
      <trkpt lat="43.53389" lon="5.31092">
        <ele>216.59512436414</ele>
        <time>2019-03-20T09:34:09Z</time>
      </trkpt>
      <trkpt lat="43.53402" lon="5.31089">
        <ele>216.60561542795</ele>
        <time>2019-03-20T09:34:14Z</time>
      </trkpt>
      <trkpt lat="43.53409" lon="5.31087">
        <ele>216.62307769876</ele>
        <time>2019-03-20T09:34:18Z</time>
      </trkpt>
      <trkpt lat="43.53413" lon="5.31084">
        <ele>216.64270407337</ele>
        <time>2019-03-20T09:34:22Z</time>
      </trkpt>
      <trkpt lat="43.53418" lon="5.31082">
        <ele>216.66660532898</ele>
        <time>2019-03-20T09:34:27Z</time>
      </trkpt>
      <trkpt lat="43.53424" lon="5.31077">
        <ele>216.69363040397</ele>
        <time>2019-03-20T09:34:32Z</time>
      </trkpt>
      <trkpt lat="43.53427" lon="5.31074">
        <ele>216.73638119877</ele>
        <time>2019-03-20T09:34:40Z</time>
      </trkpt>
      <trkpt lat="43.53432" lon="5.31072">
        <ele>216.77071963706</ele>
        <time>2019-03-20T09:34:47Z</time>
      </trkpt>
      <trkpt lat="43.53436" lon="5.31072">
        <ele>216.80164951705</ele>
        <time>2019-03-20T09:34:53Z</time>
      </trkpt>
      <trkpt lat="43.53439" lon="5.31071">
        <ele>216.81533440765</ele>
        <time>2019-03-20T09:34:56Z</time>
      </trkpt>
      <trkpt lat="43.53442" lon="5.31068">
        <ele>216.83203480866</ele>
        <time>2019-03-20T09:35:00Z</time>
      </trkpt>
      <trkpt lat="43.53445" lon="5.31067">
        <ele>216.84726460088</ele>
        <time>2019-03-20T09:35:04Z</time>
      </trkpt>
      <trkpt lat="43.53448" lon="5.31065">
        <ele>216.86310098567</ele>
        <time>2019-03-20T09:35:10Z</time>
      </trkpt>
      <trkpt lat="43.53453" lon="5.31063">
        <ele>216.87673542791</ele>
        <time>2019-03-20T09:35:14Z</time>
      </trkpt>
      <trkpt lat="43.53458" lon="5.31061">
        <ele>216.89121171674</ele>
        <time>2019-03-20T09:35:18Z</time>
      </trkpt>
      <trkpt lat="43.53461" lon="5.31059">
        <ele>216.90188518354</ele>
        <time>2019-03-20T09:35:21Z</time>
      </trkpt>
      <trkpt lat="43.53467" lon="5.31059">
        <ele>216.91801862739</ele>
        <time>2019-03-20T09:35:25Z</time>
      </trkpt>
      <trkpt lat="43.53472" lon="5.31058">
        <ele>216.9346289006</ele>
        <time>2019-03-20T09:35:29Z</time>
      </trkpt>
      <trkpt lat="43.53477" lon="5.31056">
        <ele>216.95139832518</ele>
        <time>2019-03-20T09:35:33Z</time>
      </trkpt>
      <trkpt lat="43.53481" lon="5.31055">
        <ele>216.9837993867</ele>
        <time>2019-03-20T09:35:38Z</time>
      </trkpt>
      <trkpt lat="43.53486" lon="5.31052">
        <ele>217.03192219567</ele>
        <time>2019-03-20T09:35:43Z</time>
      </trkpt>
      <trkpt lat="43.53489" lon="5.31051">
        <ele>217.0632433793</ele>
        <time>2019-03-20T09:35:46Z</time>
      </trkpt>
      <trkpt lat="43.53495" lon="5.3105">
        <ele>217.12264060483</ele>
        <time>2019-03-20T09:35:51Z</time>
      </trkpt>
      <trkpt lat="43.53502" lon="5.31048">
        <ele>217.19133797525</ele>
        <time>2019-03-20T09:35:56Z</time>
      </trkpt>
      <trkpt lat="43.53507" lon="5.31045">
        <ele>217.26176834807</ele>
        <time>2019-03-20T09:36:01Z</time>
      </trkpt>
      <trkpt lat="43.53509" lon="5.31044">
        <ele>217.30523066788</ele>
        <time>2019-03-20T09:36:04Z</time>
      </trkpt>
      <trkpt lat="43.53514" lon="5.31044">
        <ele>217.37507635378</ele>
        <time>2019-03-20T09:36:09Z</time>
      </trkpt>
      <trkpt lat="43.53517" lon="5.31042">
        <ele>217.41810514463</ele>
        <time>2019-03-20T09:36:12Z</time>
      </trkpt>
      <trkpt lat="43.5352" lon="5.3104">
        <ele>217.46251165076</ele>
        <time>2019-03-20T09:36:15Z</time>
      </trkpt>
      <trkpt lat="43.53524" lon="5.31038">
        <ele>217.51910876827</ele>
        <time>2019-03-20T09:36:19Z</time>
      </trkpt>
      <trkpt lat="43.53528" lon="5.31037">
        <ele>217.57470790302</ele>
        <time>2019-03-20T09:36:23Z</time>
      </trkpt>
      <trkpt lat="43.53532" lon="5.31035">
        <ele>217.64286531071</ele>
        <time>2019-03-20T09:36:28Z</time>
      </trkpt>
      <trkpt lat="43.53538" lon="5.31032">
        <ele>217.69603613836</ele>
        <time>2019-03-20T09:36:32Z</time>
      </trkpt>
      <trkpt lat="43.53543" lon="5.3103">
        <ele>217.73788255588</ele>
        <time>2019-03-20T09:36:35Z</time>
      </trkpt>
      <trkpt lat="43.53548" lon="5.31026">
        <ele>217.81763308864</ele>
        <time>2019-03-20T09:36:40Z</time>
      </trkpt>
      <trkpt lat="43.53551" lon="5.31026">
        <ele>217.8735566565</ele>
        <time>2019-03-20T09:36:44Z</time>
      </trkpt>
      <trkpt lat="43.53555" lon="5.31024">
        <ele>217.97317263413</ele>
        <time>2019-03-20T09:36:50Z</time>
      </trkpt>
      <trkpt lat="43.53559" lon="5.31022">
        <ele>218.19296264953</ele>
        <time>2019-03-20T09:37:25Z</time>
      </trkpt>
      <trkpt lat="43.53563" lon="5.31021">
        <ele>221.89996964377</ele>
        <time>2019-03-20T09:41:18Z</time>
      </trkpt>
      <trkpt lat="43.53567" lon="5.31019">
        <ele>222.32445827756</ele>
        <time>2019-03-20T09:41:26Z</time>
      </trkpt>
      <trkpt lat="43.5357" lon="5.31018">
        <ele>222.48661428575</ele>
        <time>2019-03-20T09:41:29Z</time>
      </trkpt>
      <trkpt lat="43.53574" lon="5.31017">
        <ele>222.69219004324</ele>
        <time>2019-03-20T09:41:33Z</time>
      </trkpt>
      <trkpt lat="43.53577" lon="5.31016">
        <ele>222.83722389509</ele>
        <time>2019-03-20T09:41:36Z</time>
      </trkpt>
      <trkpt lat="43.53582" lon="5.31014">
        <ele>223.01818700548</ele>
        <time>2019-03-20T09:41:40Z</time>
      </trkpt>
      <trkpt lat="43.53585" lon="5.31012">
        <ele>223.27087292907</ele>
        <time>2019-03-20T09:41:46Z</time>
      </trkpt>
      <trkpt lat="43.53588" lon="5.3101">
        <ele>223.42414187614</ele>
        <time>2019-03-20T09:41:50Z</time>
      </trkpt>
      <trkpt lat="43.53593" lon="5.31008">
        <ele>223.60130327616</ele>
        <time>2019-03-20T09:41:55Z</time>
      </trkpt>
      <trkpt lat="43.53597" lon="5.31007">
        <ele>223.76179417098</ele>
        <time>2019-03-20T09:42:00Z</time>
      </trkpt>
      <trkpt lat="43.536" lon="5.31007">
        <ele>223.90973620761</ele>
        <time>2019-03-20T09:42:05Z</time>
      </trkpt>
      <trkpt lat="43.53605" lon="5.31006">
        <ele>224.01936312248</ele>
        <time>2019-03-20T09:42:09Z</time>
      </trkpt>
      <trkpt lat="43.5361" lon="5.31007">
        <ele>224.12133569096</ele>
        <time>2019-03-20T09:42:13Z</time>
      </trkpt>
      <trkpt lat="43.53617" lon="5.31012">
        <ele>224.23747669228</ele>
        <time>2019-03-20T09:42:18Z</time>
      </trkpt>
      <trkpt lat="43.53621" lon="5.31014">
        <ele>224.30203593588</ele>
        <time>2019-03-20T09:42:21Z</time>
      </trkpt>
      <trkpt lat="43.53625" lon="5.31015">
        <ele>224.38279188145</ele>
        <time>2019-03-20T09:42:25Z</time>
      </trkpt>
      <trkpt lat="43.53629" lon="5.31016">
        <ele>224.47544154454</ele>
        <time>2019-03-20T09:42:30Z</time>
      </trkpt>
      <trkpt lat="43.53633" lon="5.31015">
        <ele>224.54310876451</ele>
        <time>2019-03-20T09:42:34Z</time>
      </trkpt>
      <trkpt lat="43.53637" lon="5.31015">
        <ele>224.59132641865</ele>
        <time>2019-03-20T09:42:37Z</time>
      </trkpt>
      <trkpt lat="43.53643" lon="5.31014">
        <ele>224.66714833251</ele>
        <time>2019-03-20T09:42:42Z</time>
      </trkpt>
      <trkpt lat="43.53647" lon="5.31013">
        <ele>224.73790332632</ele>
        <time>2019-03-20T09:42:47Z</time>
      </trkpt>
      <trkpt lat="43.53654" lon="5.31012">
        <ele>224.80277538364</ele>
        <time>2019-03-20T09:42:52Z</time>
      </trkpt>
      <trkpt lat="43.53659" lon="5.31011">
        <ele>224.85001817003</ele>
        <time>2019-03-20T09:42:56Z</time>
      </trkpt>
      <trkpt lat="43.53662" lon="5.31012">
        <ele>224.89426563686</ele>
        <time>2019-03-20T09:43:00Z</time>
      </trkpt>
      <trkpt lat="43.53665" lon="5.31014">
        <ele>224.92606250537</ele>
        <time>2019-03-20T09:43:03Z</time>
      </trkpt>
      <trkpt lat="43.53671" lon="5.31018">
        <ele>224.97810791717</ele>
        <time>2019-03-20T09:43:08Z</time>
      </trkpt>
      <trkpt lat="43.53675" lon="5.31024">
        <ele>225.02716307853</ele>
        <time>2019-03-20T09:43:13Z</time>
      </trkpt>
      <trkpt lat="43.53677" lon="5.31027">
        <ele>225.06412808201</ele>
        <time>2019-03-20T09:43:17Z</time>
      </trkpt>
      <trkpt lat="43.5368" lon="5.31032">
        <ele>225.09875866988</ele>
        <time>2019-03-20T09:43:21Z</time>
      </trkpt>
      <trkpt lat="43.53683" lon="5.31036">
        <ele>225.13096467547</ele>
        <time>2019-03-20T09:43:25Z</time>
      </trkpt>
      <trkpt lat="43.53684" lon="5.31043">
        <ele>225.16205751015</ele>
        <time>2019-03-20T09:43:29Z</time>
      </trkpt>
      <trkpt lat="43.53687" lon="5.31051">
        <ele>225.19197101601</ele>
        <time>2019-03-20T09:43:33Z</time>
      </trkpt>
      <trkpt lat="43.5369" lon="5.31058">
        <ele>225.22943261763</ele>
        <time>2019-03-20T09:43:38Z</time>
      </trkpt>
      <trkpt lat="43.53691" lon="5.31063">
        <ele>225.25885534991</ele>
        <time>2019-03-20T09:43:42Z</time>
      </trkpt>
      <trkpt lat="43.53693" lon="5.31069">
        <ele>225.29204218288</ele>
        <time>2019-03-20T09:43:47Z</time>
      </trkpt>
      <trkpt lat="43.53694" lon="5.31075">
        <ele>225.31721831902</ele>
        <time>2019-03-20T09:43:51Z</time>
      </trkpt>
      <trkpt lat="43.53696" lon="5.31079">
        <ele>225.33553680733</ele>
        <time>2019-03-20T09:43:54Z</time>
      </trkpt>
      <trkpt lat="43.53699" lon="5.31083">
        <ele>225.35891859934</ele>
        <time>2019-03-20T09:43:58Z</time>
      </trkpt>
      <trkpt lat="43.53703" lon="5.31087">
        <ele>225.38170936065</ele>
        <time>2019-03-20T09:44:02Z</time>
      </trkpt>
      <trkpt lat="43.53707" lon="5.31092">
        <ele>225.40293273238</ele>
        <time>2019-03-20T09:44:06Z</time>
      </trkpt>
      <trkpt lat="43.53711" lon="5.31095">
        <ele>225.42493400807</ele>
        <time>2019-03-20T09:44:10Z</time>
      </trkpt>
      <trkpt lat="43.53713" lon="5.31098">
        <ele>225.44103590122</ele>
        <time>2019-03-20T09:44:13Z</time>
      </trkpt>
      <trkpt lat="43.53716" lon="5.311">
        <ele>225.46188481205</ele>
        <time>2019-03-20T09:44:17Z</time>
      </trkpt>
      <trkpt lat="43.53719" lon="5.31102">
        <ele>225.48132445776</ele>
        <time>2019-03-20T09:44:21Z</time>
      </trkpt>
      <trkpt lat="43.53722" lon="5.31104">
        <ele>225.49812959025</ele>
        <time>2019-03-20T09:44:25Z</time>
      </trkpt>
      <trkpt lat="43.53725" lon="5.31107">
        <ele>225.55424253434</ele>
        <time>2019-03-20T09:44:32Z</time>
      </trkpt>
      <trkpt lat="43.53728" lon="5.31108">
        <ele>225.6368842181</ele>
        <time>2019-03-20T09:44:39Z</time>
      </trkpt>
      <trkpt lat="43.53723" lon="5.31117">
        <ele>225.5925854718</ele>
        <time>2019-03-20T09:44:43Z</time>
      </trkpt>
      <trkpt lat="43.53721" lon="5.31121">
        <ele>225.48806586928</ele>
        <time>2019-03-20T09:44:49Z</time>
      </trkpt>
      <trkpt lat="43.53723" lon="5.31124">
        <ele>225.32839957575</ele>
        <time>2019-03-20T09:44:56Z</time>
      </trkpt>
      <trkpt lat="43.53732" lon="5.31122">
        <ele>225.23168282707</ele>
        <time>2019-03-20T09:45:00Z</time>
      </trkpt>
      <trkpt lat="43.53744" lon="5.31129">
        <ele>225.21996749239</ele>
        <time>2019-03-20T09:45:03Z</time>
      </trkpt>
      <trkpt lat="43.53749" lon="5.31139">
        <ele>225.2040122095</ele>
        <time>2019-03-20T09:45:07Z</time>
      </trkpt>
      <trkpt lat="43.5375" lon="5.31144">
        <ele>225.18886389435</ele>
        <time>2019-03-20T09:45:11Z</time>
      </trkpt>
      <trkpt lat="43.53751" lon="5.31149">
        <ele>225.1656392399</ele>
        <time>2019-03-20T09:45:17Z</time>
      </trkpt>
      <trkpt lat="43.53754" lon="5.31153">
        <ele>225.15630405588</ele>
        <time>2019-03-20T09:45:21Z</time>
      </trkpt>
      <trkpt lat="43.53758" lon="5.31151">
        <ele>225.14630896526</ele>
        <time>2019-03-20T09:45:25Z</time>
      </trkpt>
      <trkpt lat="43.53762" lon="5.31148">
        <ele>225.14087569585</ele>
        <time>2019-03-20T09:45:28Z</time>
      </trkpt>
      <trkpt lat="43.53767" lon="5.31142">
        <ele>225.13601193147</ele>
        <time>2019-03-20T09:45:32Z</time>
      </trkpt>
      <trkpt lat="43.53773" lon="5.31137">
        <ele>225.13436833641</ele>
        <time>2019-03-20T09:45:37Z</time>
      </trkpt>
      <trkpt lat="43.53778" lon="5.31138">
        <ele>225.1340886149</ele>
        <time>2019-03-20T09:45:41Z</time>
      </trkpt>
      <trkpt lat="43.53784" lon="5.31137">
        <ele>225.13268053805</ele>
        <time>2019-03-20T09:45:46Z</time>
      </trkpt>
      <trkpt lat="43.53789" lon="5.31139">
        <ele>225.13251618029</ele>
        <time>2019-03-20T09:45:49Z</time>
      </trkpt>
      <trkpt lat="43.53793" lon="5.31144">
        <ele>225.13275669571</ele>
        <time>2019-03-20T09:45:54Z</time>
      </trkpt>
      <trkpt lat="43.53795" lon="5.31148">
        <ele>225.13635302867</ele>
        <time>2019-03-20T09:45:58Z</time>
      </trkpt>
      <trkpt lat="43.53797" lon="5.31154">
        <ele>225.14221441826</ele>
        <time>2019-03-20T09:46:03Z</time>
      </trkpt>
      <trkpt lat="43.538" lon="5.3116">
        <ele>225.15019425798</ele>
        <time>2019-03-20T09:46:07Z</time>
      </trkpt>
      <trkpt lat="43.53802" lon="5.31164">
        <ele>225.1577850526</ele>
        <time>2019-03-20T09:46:10Z</time>
      </trkpt>
      <trkpt lat="43.53804" lon="5.31168">
        <ele>225.17000321925</ele>
        <time>2019-03-20T09:46:14Z</time>
      </trkpt>
      <trkpt lat="43.53807" lon="5.31171">
        <ele>225.18324775565</ele>
        <time>2019-03-20T09:46:18Z</time>
      </trkpt>
      <trkpt lat="43.5381" lon="5.31175">
        <ele>225.19807032532</ele>
        <time>2019-03-20T09:46:22Z</time>
      </trkpt>
      <trkpt lat="43.53814" lon="5.3118">
        <ele>225.2128612778</ele>
        <time>2019-03-20T09:46:26Z</time>
      </trkpt>
      <trkpt lat="43.53817" lon="5.31182">
        <ele>225.23234496185</ele>
        <time>2019-03-20T09:46:31Z</time>
      </trkpt>
      <trkpt lat="43.53822" lon="5.31183">
        <ele>225.25008127304</ele>
        <time>2019-03-20T09:46:35Z</time>
      </trkpt>
      <trkpt lat="43.53825" lon="5.31185">
        <ele>225.26346262271</ele>
        <time>2019-03-20T09:46:38Z</time>
      </trkpt>
      <trkpt lat="43.53828" lon="5.31188">
        <ele>225.28328051884</ele>
        <time>2019-03-20T09:46:42Z</time>
      </trkpt>
      <trkpt lat="43.53832" lon="5.31191">
        <ele>225.304677577</ele>
        <time>2019-03-20T09:46:46Z</time>
      </trkpt>
      <trkpt lat="43.53835" lon="5.31194">
        <ele>225.32650134728</ele>
        <time>2019-03-20T09:46:50Z</time>
      </trkpt>
      <trkpt lat="43.53839" lon="5.31199">
        <ele>225.34780077163</ele>
        <time>2019-03-20T09:46:54Z</time>
      </trkpt>
      <trkpt lat="43.53843" lon="5.31205">
        <ele>225.37715907396</ele>
        <time>2019-03-20T09:46:59Z</time>
      </trkpt>
      <trkpt lat="43.53845" lon="5.3121">
        <ele>225.39496633462</ele>
        <time>2019-03-20T09:47:02Z</time>
      </trkpt>
      <trkpt lat="43.53848" lon="5.31216">
        <ele>225.42095979233</ele>
        <time>2019-03-20T09:47:06Z</time>
      </trkpt>
      <trkpt lat="43.5385" lon="5.31221">
        <ele>225.45020961318</ele>
        <time>2019-03-20T09:47:10Z</time>
      </trkpt>
      <trkpt lat="43.53852" lon="5.31227">
        <ele>225.48460943399</ele>
        <time>2019-03-20T09:47:14Z</time>
      </trkpt>
      <trkpt lat="43.53853" lon="5.31231">
        <ele>225.51485628208</ele>
        <time>2019-03-20T09:47:17Z</time>
      </trkpt>
      <trkpt lat="43.53853" lon="5.31239">
        <ele>225.57118025296</ele>
        <time>2019-03-20T09:47:22Z</time>
      </trkpt>
      <trkpt lat="43.53853" lon="5.31246">
        <ele>225.61997711387</ele>
        <time>2019-03-20T09:47:26Z</time>
      </trkpt>
      <trkpt lat="43.53853" lon="5.31255">
        <ele>225.67184923545</ele>
        <time>2019-03-20T09:47:30Z</time>
      </trkpt>
      <trkpt lat="43.53853" lon="5.3126">
        <ele>225.71353550685</ele>
        <time>2019-03-20T09:47:33Z</time>
      </trkpt>
      <trkpt lat="43.53853" lon="5.31266">
        <ele>225.77174775847</ele>
        <time>2019-03-20T09:47:37Z</time>
      </trkpt>
      <trkpt lat="43.53853" lon="5.31272">
        <ele>225.83125031968</ele>
        <time>2019-03-20T09:47:41Z</time>
      </trkpt>
      <trkpt lat="43.53853" lon="5.31278">
        <ele>225.90570197207</ele>
        <time>2019-03-20T09:47:46Z</time>
      </trkpt>
      <trkpt lat="43.53854" lon="5.31285">
        <ele>225.98098958985</ele>
        <time>2019-03-20T09:47:51Z</time>
      </trkpt>
      <trkpt lat="43.53856" lon="5.31289">
        <ele>226.02627469792</ele>
        <time>2019-03-20T09:47:54Z</time>
      </trkpt>
      <trkpt lat="43.53857" lon="5.31292">
        <ele>226.08608466366</ele>
        <time>2019-03-20T09:47:58Z</time>
      </trkpt>
      <trkpt lat="43.53859" lon="5.31298">
        <ele>226.14448752614</ele>
        <time>2019-03-20T09:48:02Z</time>
      </trkpt>
      <trkpt lat="43.53862" lon="5.31303">
        <ele>226.20253777478</ele>
        <time>2019-03-20T09:48:06Z</time>
      </trkpt>
      <trkpt lat="43.53865" lon="5.31306">
        <ele>226.27480795171</ele>
        <time>2019-03-20T09:48:11Z</time>
      </trkpt>
      <trkpt lat="43.53869" lon="5.3131">
        <ele>226.33339918134</ele>
        <time>2019-03-20T09:48:15Z</time>
      </trkpt>
      <trkpt lat="43.53874" lon="5.31316">
        <ele>226.39321903108</ele>
        <time>2019-03-20T09:48:19Z</time>
      </trkpt>
      <trkpt lat="43.53878" lon="5.3132">
        <ele>226.45514686188</ele>
        <time>2019-03-20T09:48:23Z</time>
      </trkpt>
      <trkpt lat="43.53883" lon="5.31325">
        <ele>226.51723712724</ele>
        <time>2019-03-20T09:48:27Z</time>
      </trkpt>
      <trkpt lat="43.53887" lon="5.3133">
        <ele>226.5918751494</ele>
        <time>2019-03-20T09:48:32Z</time>
      </trkpt>
      <trkpt lat="43.53889" lon="5.31335">
        <ele>226.66322602319</ele>
        <time>2019-03-20T09:48:37Z</time>
      </trkpt>
      <trkpt lat="43.53892" lon="5.3134">
        <ele>226.73039933331</ele>
        <time>2019-03-20T09:48:42Z</time>
      </trkpt>
      <trkpt lat="43.53896" lon="5.31346">
        <ele>226.7802108852</ele>
        <time>2019-03-20T09:48:46Z</time>
      </trkpt>
      <trkpt lat="43.53899" lon="5.31351">
        <ele>226.81613553769</ele>
        <time>2019-03-20T09:48:49Z</time>
      </trkpt>
      <trkpt lat="43.53903" lon="5.31355">
        <ele>226.86431383157</ele>
        <time>2019-03-20T09:48:53Z</time>
      </trkpt>
      <trkpt lat="43.53905" lon="5.31359">
        <ele>226.90068234085</ele>
        <time>2019-03-20T09:48:56Z</time>
      </trkpt>
      <trkpt lat="43.53908" lon="5.31364">
        <ele>226.95144317126</ele>
        <time>2019-03-20T09:49:00Z</time>
      </trkpt>
      <trkpt lat="43.53912" lon="5.31371">
        <ele>227.02209922227</ele>
        <time>2019-03-20T09:49:05Z</time>
      </trkpt>
      <trkpt lat="43.53913" lon="5.31377">
        <ele>227.0840850434</ele>
        <time>2019-03-20T09:49:09Z</time>
      </trkpt>
      <trkpt lat="43.53913" lon="5.31384">
        <ele>227.14613306563</ele>
        <time>2019-03-20T09:49:13Z</time>
      </trkpt>
      <trkpt lat="43.53914" lon="5.31392">
        <ele>227.22580926804</ele>
        <time>2019-03-20T09:49:18Z</time>
      </trkpt>
      <trkpt lat="43.53915" lon="5.31397">
        <ele>227.27534040857</ele>
        <time>2019-03-20T09:49:21Z</time>
      </trkpt>
      <trkpt lat="43.53915" lon="5.31404">
        <ele>227.34182823797</ele>
        <time>2019-03-20T09:49:25Z</time>
      </trkpt>
      <trkpt lat="43.53916" lon="5.31411">
        <ele>227.42292085279</ele>
        <time>2019-03-20T09:49:30Z</time>
      </trkpt>
      <trkpt lat="43.53917" lon="5.31414">
        <ele>227.47019294766</ele>
        <time>2019-03-20T09:49:33Z</time>
      </trkpt>
      <trkpt lat="43.53918" lon="5.31422">
        <ele>227.54930840934</ele>
        <time>2019-03-20T09:49:38Z</time>
      </trkpt>
      <trkpt lat="43.53919" lon="5.31429">
        <ele>227.631223212</ele>
        <time>2019-03-20T09:49:43Z</time>
      </trkpt>
      <trkpt lat="43.53921" lon="5.31435">
        <ele>227.69869385639</ele>
        <time>2019-03-20T09:49:47Z</time>
      </trkpt>
      <trkpt lat="43.53922" lon="5.31442">
        <ele>227.76770308496</ele>
        <time>2019-03-20T09:49:51Z</time>
      </trkpt>
      <trkpt lat="43.53924" lon="5.31448">
        <ele>227.83592999114</ele>
        <time>2019-03-20T09:49:55Z</time>
      </trkpt>
      <trkpt lat="43.53925" lon="5.31455">
        <ele>227.92175833358</ele>
        <time>2019-03-20T09:50:00Z</time>
      </trkpt>
      <trkpt lat="43.53927" lon="5.31462">
        <ele>228.00871324679</ele>
        <time>2019-03-20T09:50:05Z</time>
      </trkpt>
      <trkpt lat="43.53929" lon="5.31467">
        <ele>228.08015894985</ele>
        <time>2019-03-20T09:50:09Z</time>
      </trkpt>
      <trkpt lat="43.53929" lon="5.31473">
        <ele>228.15128625779</ele>
        <time>2019-03-20T09:50:13Z</time>
      </trkpt>
      <trkpt lat="43.53931" lon="5.3148">
        <ele>228.24082206553</ele>
        <time>2019-03-20T09:50:18Z</time>
      </trkpt>
      <trkpt lat="43.53933" lon="5.31488">
        <ele>228.33102395379</ele>
        <time>2019-03-20T09:50:23Z</time>
      </trkpt>
      <trkpt lat="43.53933" lon="5.31493">
        <ele>228.40295300446</ele>
        <time>2019-03-20T09:50:27Z</time>
      </trkpt>
      <trkpt lat="43.53933" lon="5.31499">
        <ele>228.47353830791</ele>
        <time>2019-03-20T09:50:31Z</time>
      </trkpt>
      <trkpt lat="43.53933" lon="5.31507">
        <ele>228.5595649679</ele>
        <time>2019-03-20T09:50:36Z</time>
      </trkpt>
      <trkpt lat="43.53933" lon="5.31512">
        <ele>228.61083431242</ele>
        <time>2019-03-20T09:50:39Z</time>
      </trkpt>
      <trkpt lat="43.53933" lon="5.31519">
        <ele>228.67918615898</ele>
        <time>2019-03-20T09:50:43Z</time>
      </trkpt>
      <trkpt lat="43.53933" lon="5.31524">
        <ele>228.7297450876</ele>
        <time>2019-03-20T09:50:46Z</time>
      </trkpt>
      <trkpt lat="43.53934" lon="5.31533">
        <ele>228.81311978675</ele>
        <time>2019-03-20T09:50:51Z</time>
      </trkpt>
      <trkpt lat="43.53936" lon="5.31539">
        <ele>228.87866996961</ele>
        <time>2019-03-20T09:50:55Z</time>
      </trkpt>
      <trkpt lat="43.53938" lon="5.31545">
        <ele>228.9424344299</ele>
        <time>2019-03-20T09:50:59Z</time>
      </trkpt>
      <trkpt lat="43.53941" lon="5.31549">
        <ele>229.00434525535</ele>
        <time>2019-03-20T09:51:03Z</time>
      </trkpt>
      <trkpt lat="43.53944" lon="5.31553">
        <ele>229.06529808365</ele>
        <time>2019-03-20T09:51:07Z</time>
      </trkpt>
      <trkpt lat="43.53946" lon="5.31559">
        <ele>229.1418947012</ele>
        <time>2019-03-20T09:51:12Z</time>
      </trkpt>
      <trkpt lat="43.53947" lon="5.31565">
        <ele>229.20404907149</ele>
        <time>2019-03-20T09:51:16Z</time>
      </trkpt>
      <trkpt lat="43.53946" lon="5.31572">
        <ele>229.26711992594</ele>
        <time>2019-03-20T09:51:20Z</time>
      </trkpt>
      <trkpt lat="43.53944" lon="5.31579">
        <ele>229.34742556768</ele>
        <time>2019-03-20T09:51:25Z</time>
      </trkpt>
      <trkpt lat="43.53942" lon="5.31584">
        <ele>229.41224779277</ele>
        <time>2019-03-20T09:51:29Z</time>
      </trkpt>
      <trkpt lat="43.53939" lon="5.3159">
        <ele>229.49469524266</ele>
        <time>2019-03-20T09:51:34Z</time>
      </trkpt>
      <trkpt lat="43.53937" lon="5.31594">
        <ele>229.54441804355</ele>
        <time>2019-03-20T09:51:37Z</time>
      </trkpt>
      <trkpt lat="43.53934" lon="5.31599">
        <ele>229.62441803053</ele>
        <time>2019-03-20T09:51:42Z</time>
      </trkpt>
      <trkpt lat="43.53931" lon="5.31603">
        <ele>229.73640507698</ele>
        <time>2019-03-20T09:51:55Z</time>
      </trkpt>
      <trkpt lat="43.53928" lon="5.31608">
        <ele>230.16551292302</ele>
        <time>2019-03-20T09:53:04Z</time>
      </trkpt>
      <trkpt lat="43.53924" lon="5.3161">
        <ele>230.28509632709</ele>
        <time>2019-03-20T09:53:09Z</time>
      </trkpt>
      <trkpt lat="43.53922" lon="5.31611">
        <ele>230.37387664967</ele>
        <time>2019-03-20T09:53:13Z</time>
      </trkpt>
      <trkpt lat="43.53918" lon="5.31612">
        <ele>230.47666803675</ele>
        <time>2019-03-20T09:53:18Z</time>
      </trkpt>
      <trkpt lat="43.53914" lon="5.31614">
        <ele>230.59095175995</ele>
        <time>2019-03-20T09:53:24Z</time>
      </trkpt>
      <trkpt lat="43.5391" lon="5.31617">
        <ele>230.69450129069</ele>
        <time>2019-03-20T09:53:30Z</time>
      </trkpt>
      <trkpt lat="43.53907" lon="5.3162">
        <ele>230.77248589416</ele>
        <time>2019-03-20T09:53:35Z</time>
      </trkpt>
      <trkpt lat="43.53905" lon="5.31623">
        <ele>230.82974506596</ele>
        <time>2019-03-20T09:53:39Z</time>
      </trkpt>
      <trkpt lat="43.53901" lon="5.31629">
        <ele>230.8962196649</ele>
        <time>2019-03-20T09:53:44Z</time>
      </trkpt>
      <trkpt lat="43.53898" lon="5.31633">
        <ele>230.94605918655</ele>
        <time>2019-03-20T09:53:48Z</time>
      </trkpt>
      <trkpt lat="43.53894" lon="5.31639">
        <ele>231.00557799199</ele>
        <time>2019-03-20T09:53:53Z</time>
      </trkpt>
      <trkpt lat="43.53892" lon="5.31644">
        <ele>231.05063887226</ele>
        <time>2019-03-20T09:53:57Z</time>
      </trkpt>
      <trkpt lat="43.53889" lon="5.31651">
        <ele>231.09334430272</ele>
        <time>2019-03-20T09:54:01Z</time>
      </trkpt>
      <trkpt lat="43.53887" lon="5.31657">
        <ele>231.14379156457</ele>
        <time>2019-03-20T09:54:06Z</time>
      </trkpt>
      <trkpt lat="43.53885" lon="5.31661">
        <ele>231.17249154437</ele>
        <time>2019-03-20T09:54:09Z</time>
      </trkpt>
      <trkpt lat="43.53882" lon="5.31666">
        <ele>231.20883698678</ele>
        <time>2019-03-20T09:54:13Z</time>
      </trkpt>
      <trkpt lat="43.5388" lon="5.31671">
        <ele>231.24265526702</ele>
        <time>2019-03-20T09:54:17Z</time>
      </trkpt>
      <trkpt lat="43.53877" lon="5.31676">
        <ele>231.27412071851</ele>
        <time>2019-03-20T09:54:21Z</time>
      </trkpt>
      <trkpt lat="43.53874" lon="5.31682">
        <ele>231.30448525426</ele>
        <time>2019-03-20T09:54:25Z</time>
      </trkpt>
      <trkpt lat="43.53871" lon="5.31689">
        <ele>231.34078755239</ele>
        <time>2019-03-20T09:54:30Z</time>
      </trkpt>
      <trkpt lat="43.53869" lon="5.31695">
        <ele>231.36855889798</ele>
        <time>2019-03-20T09:54:34Z</time>
      </trkpt>
      <trkpt lat="43.53868" lon="5.31701">
        <ele>231.39708721105</ele>
        <time>2019-03-20T09:54:38Z</time>
      </trkpt>
      <trkpt lat="43.53866" lon="5.31707">
        <ele>231.42504452983</ele>
        <time>2019-03-20T09:54:42Z</time>
      </trkpt>
      <trkpt lat="43.53864" lon="5.31712">
        <ele>231.45317593062</ele>
        <time>2019-03-20T09:54:46Z</time>
      </trkpt>
      <trkpt lat="43.53862" lon="5.31717">
        <ele>231.48148239136</ele>
        <time>2019-03-20T09:54:50Z</time>
      </trkpt>
      <trkpt lat="43.53859" lon="5.31724">
        <ele>231.51578424776</ele>
        <time>2019-03-20T09:54:55Z</time>
      </trkpt>
      <trkpt lat="43.53856" lon="5.31728">
        <ele>231.54215452246</ele>
        <time>2019-03-20T09:54:59Z</time>
      </trkpt>
      <trkpt lat="43.53854" lon="5.31733">
        <ele>231.57404865299</ele>
        <time>2019-03-20T09:55:04Z</time>
      </trkpt>
      <trkpt lat="43.5385" lon="5.31737">
        <ele>231.60462010823</ele>
        <time>2019-03-20T09:55:09Z</time>
      </trkpt>
      <trkpt lat="43.53847" lon="5.31742">
        <ele>231.62779493476</ele>
        <time>2019-03-20T09:55:13Z</time>
      </trkpt>
      <trkpt lat="43.53844" lon="5.31746">
        <ele>231.65455913475</ele>
        <time>2019-03-20T09:55:18Z</time>
      </trkpt>
      <trkpt lat="43.53841" lon="5.3175">
        <ele>231.68070599922</ele>
        <time>2019-03-20T09:55:23Z</time>
      </trkpt>
      <trkpt lat="43.53839" lon="5.31756">
        <ele>231.70251259444</ele>
        <time>2019-03-20T09:55:27Z</time>
      </trkpt>
      <trkpt lat="43.53838" lon="5.31761">
        <ele>231.72376186324</ele>
        <time>2019-03-20T09:55:31Z</time>
      </trkpt>
      <trkpt lat="43.53836" lon="5.31767">
        <ele>231.74373347234</ele>
        <time>2019-03-20T09:55:35Z</time>
      </trkpt>
      <trkpt lat="43.53834" lon="5.31773">
        <ele>231.76193521003</ele>
        <time>2019-03-20T09:55:39Z</time>
      </trkpt>
      <trkpt lat="43.53833" lon="5.31776">
        <ele>231.7746321384</ele>
        <time>2019-03-20T09:55:42Z</time>
      </trkpt>
      <trkpt lat="43.5383" lon="5.31782">
        <ele>231.79298578721</ele>
        <time>2019-03-20T09:55:47Z</time>
      </trkpt>
      <trkpt lat="43.53827" lon="5.31787">
        <ele>231.80463124232</ele>
        <time>2019-03-20T09:55:51Z</time>
      </trkpt>
      <trkpt lat="43.53823" lon="5.31792">
        <ele>231.81767393044</ele>
        <time>2019-03-20T09:55:56Z</time>
      </trkpt>
      <trkpt lat="43.5382" lon="5.31796">
        <ele>231.82722374231</ele>
        <time>2019-03-20T09:56:00Z</time>
      </trkpt>
      <trkpt lat="43.53818" lon="5.318">
        <ele>231.83569588744</ele>
        <time>2019-03-20T09:56:04Z</time>
      </trkpt>
      <trkpt lat="43.53814" lon="5.31805">
        <ele>231.84553033886</ele>
        <time>2019-03-20T09:56:09Z</time>
      </trkpt>
      <trkpt lat="43.53812" lon="5.31809">
        <ele>231.85332743126</ele>
        <time>2019-03-20T09:56:13Z</time>
      </trkpt>
      <trkpt lat="43.53811" lon="5.31812">
        <ele>231.86059525592</ele>
        <time>2019-03-20T09:56:17Z</time>
      </trkpt>
      <trkpt lat="43.53808" lon="5.31818">
        <ele>231.86636965348</ele>
        <time>2019-03-20T09:56:21Z</time>
      </trkpt>
      <trkpt lat="43.53805" lon="5.31824">
        <ele>231.87054334572</ele>
        <time>2019-03-20T09:56:25Z</time>
      </trkpt>
      <trkpt lat="43.53802" lon="5.3183">
        <ele>231.87526598242</ele>
        <time>2019-03-20T09:56:30Z</time>
      </trkpt>
      <trkpt lat="43.53799" lon="5.31836">
        <ele>231.87918502661</ele>
        <time>2019-03-20T09:56:35Z</time>
      </trkpt>
      <trkpt lat="43.53797" lon="5.3184">
        <ele>231.88057723728</ele>
        <time>2019-03-20T09:56:38Z</time>
      </trkpt>
      <trkpt lat="43.53794" lon="5.31846">
        <ele>231.88170110776</ele>
        <time>2019-03-20T09:56:42Z</time>
      </trkpt>
      <trkpt lat="43.53791" lon="5.31852">
        <ele>231.88290851739</ele>
        <time>2019-03-20T09:56:46Z</time>
      </trkpt>
      <trkpt lat="43.5379" lon="5.31856">
        <ele>231.88359375863</ele>
        <time>2019-03-20T09:56:49Z</time>
      </trkpt>
      <trkpt lat="43.53788" lon="5.31861">
        <ele>231.88444491237</ele>
        <time>2019-03-20T09:56:53Z</time>
      </trkpt>
      <trkpt lat="43.53786" lon="5.31867">
        <ele>231.88491791416</ele>
        <time>2019-03-20T09:56:58Z</time>
      </trkpt>
      <trkpt lat="43.53784" lon="5.31871">
        <ele>231.88502880143</ele>
        <time>2019-03-20T09:57:01Z</time>
      </trkpt>
      <trkpt lat="43.53782" lon="5.31878">
        <ele>231.8845963235</ele>
        <time>2019-03-20T09:57:05Z</time>
      </trkpt>
      <trkpt lat="43.5378" lon="5.31883">
        <ele>231.88317924167</ele>
        <time>2019-03-20T09:57:09Z</time>
      </trkpt>
      <trkpt lat="43.53778" lon="5.31888">
        <ele>231.88035812954</ele>
        <time>2019-03-20T09:57:14Z</time>
      </trkpt>
      <trkpt lat="43.53776" lon="5.31893">
        <ele>231.87789800441</ele>
        <time>2019-03-20T09:57:18Z</time>
      </trkpt>
      <trkpt lat="43.53772" lon="5.319">
        <ele>231.87355364785</ele>
        <time>2019-03-20T09:57:23Z</time>
      </trkpt>
      <trkpt lat="43.53768" lon="5.31905">
        <ele>231.87102484691</ele>
        <time>2019-03-20T09:57:27Z</time>
      </trkpt>
      <trkpt lat="43.53764" lon="5.31909">
        <ele>231.86838261687</ele>
        <time>2019-03-20T09:57:31Z</time>
      </trkpt>
      <trkpt lat="43.53761" lon="5.31914">
        <ele>231.86278681559</ele>
        <time>2019-03-20T09:57:36Z</time>
      </trkpt>
      <trkpt lat="43.53759" lon="5.31918">
        <ele>231.85701542235</ele>
        <time>2019-03-20T09:57:40Z</time>
      </trkpt>
      <trkpt lat="43.53757" lon="5.31922">
        <ele>231.85162633481</ele>
        <time>2019-03-20T09:57:43Z</time>
      </trkpt>
      <trkpt lat="43.53753" lon="5.31929">
        <ele>231.84189158081</ele>
        <time>2019-03-20T09:57:48Z</time>
      </trkpt>
      <trkpt lat="43.53751" lon="5.31933">
        <ele>231.83061319898</ele>
        <time>2019-03-20T09:57:53Z</time>
      </trkpt>
      <trkpt lat="43.53748" lon="5.31938">
        <ele>231.8191238617</ele>
        <time>2019-03-20T09:57:58Z</time>
      </trkpt>
      <trkpt lat="43.53745" lon="5.31943">
        <ele>231.80797055633</ele>
        <time>2019-03-20T09:58:03Z</time>
      </trkpt>
      <trkpt lat="43.53742" lon="5.31946">
        <ele>231.79825508597</ele>
        <time>2019-03-20T09:58:07Z</time>
      </trkpt>
      <trkpt lat="43.5374" lon="5.3195">
        <ele>231.79055576361</ele>
        <time>2019-03-20T09:58:10Z</time>
      </trkpt>
      <trkpt lat="43.53738" lon="5.31953">
        <ele>231.77984253671</ele>
        <time>2019-03-20T09:58:14Z</time>
      </trkpt>
      <trkpt lat="43.53735" lon="5.31957">
        <ele>231.76821703381</ele>
        <time>2019-03-20T09:58:18Z</time>
      </trkpt>
      <trkpt lat="43.53732" lon="5.31962">
        <ele>231.75514019958</ele>
        <time>2019-03-20T09:58:22Z</time>
      </trkpt>
      <trkpt lat="43.53729" lon="5.31967">
        <ele>231.74111930101</ele>
        <time>2019-03-20T09:58:26Z</time>
      </trkpt>
      <trkpt lat="43.53726" lon="5.31971">
        <ele>231.72200802642</ele>
        <time>2019-03-20T09:58:31Z</time>
      </trkpt>
      <trkpt lat="43.53722" lon="5.31973">
        <ele>231.70218914883</ele>
        <time>2019-03-20T09:58:36Z</time>
      </trkpt>
      <trkpt lat="43.53718" lon="5.31975">
        <ele>231.68668049919</ele>
        <time>2019-03-20T09:58:40Z</time>
      </trkpt>
      <trkpt lat="43.53713" lon="5.31976">
        <ele>231.67100261427</ele>
        <time>2019-03-20T09:58:44Z</time>
      </trkpt>
      <trkpt lat="43.53709" lon="5.31977">
        <ele>231.65075026632</ele>
        <time>2019-03-20T09:58:49Z</time>
      </trkpt>
      <trkpt lat="43.53705" lon="5.31979">
        <ele>231.62429487484</ele>
        <time>2019-03-20T09:58:55Z</time>
      </trkpt>
      <trkpt lat="43.53703" lon="5.31982">
        <ele>231.60967919943</ele>
        <time>2019-03-20T09:58:58Z</time>
      </trkpt>
      <trkpt lat="43.537" lon="5.31986">
        <ele>231.58026399378</ele>
        <time>2019-03-20T09:59:03Z</time>
      </trkpt>
      <trkpt lat="43.53698" lon="5.31991">
        <ele>231.54549300849</ele>
        <time>2019-03-20T09:59:08Z</time>
      </trkpt>
      <trkpt lat="43.53698" lon="5.31996">
        <ele>231.49875289154</ele>
        <time>2019-03-20T09:59:14Z</time>
      </trkpt>
      <trkpt lat="43.53698" lon="5.32001">
        <ele>231.45907173368</ele>
        <time>2019-03-20T09:59:19Z</time>
      </trkpt>
      <trkpt lat="43.53698" lon="5.32007">
        <ele>231.41939915293</ele>
        <time>2019-03-20T09:59:24Z</time>
      </trkpt>
      <trkpt lat="43.53699" lon="5.32013">
        <ele>231.37900134739</ele>
        <time>2019-03-20T09:59:29Z</time>
      </trkpt>
      <trkpt lat="43.53701" lon="5.32018">
        <ele>231.3370582443</ele>
        <time>2019-03-20T09:59:34Z</time>
      </trkpt>
      <trkpt lat="43.53704" lon="5.32024">
        <ele>231.29694016485</ele>
        <time>2019-03-20T09:59:39Z</time>
      </trkpt>
      <trkpt lat="43.53706" lon="5.32028">
        <ele>231.25791786433</ele>
        <time>2019-03-20T09:59:44Z</time>
      </trkpt>
      <trkpt lat="43.53708" lon="5.32033">
        <ele>231.21151951075</ele>
        <time>2019-03-20T09:59:50Z</time>
      </trkpt>
      <trkpt lat="43.53711" lon="5.32037">
        <ele>231.17450898202</ele>
        <time>2019-03-20T09:59:55Z</time>
      </trkpt>
      <trkpt lat="43.53715" lon="5.32043">
        <ele>231.13904736799</ele>
        <time>2019-03-20T10:00:00Z</time>
      </trkpt>
      <trkpt lat="43.53719" lon="5.32046">
        <ele>231.10850149424</ele>
        <time>2019-03-20T10:00:04Z</time>
      </trkpt>
      <trkpt lat="43.53723" lon="5.3205">
        <ele>231.06750621762</ele>
        <time>2019-03-20T10:00:09Z</time>
      </trkpt>
      <trkpt lat="43.53725" lon="5.32055">
        <ele>231.01543543103</ele>
        <time>2019-03-20T10:00:18Z</time>
      </trkpt>
      <trkpt lat="43.53726" lon="5.3206">
        <ele>230.95026783727</ele>
        <time>2019-03-20T10:00:26Z</time>
      </trkpt>
      <trkpt lat="43.53728" lon="5.32066">
        <ele>230.91624059382</ele>
        <time>2019-03-20T10:00:31Z</time>
      </trkpt>
      <trkpt lat="43.53731" lon="5.3207">
        <ele>230.88461016449</ele>
        <time>2019-03-20T10:00:36Z</time>
      </trkpt>
      <trkpt lat="43.53734" lon="5.32073">
        <ele>230.83401151351</ele>
        <time>2019-03-20T10:00:44Z</time>
      </trkpt>
      <trkpt lat="43.53737" lon="5.32077">
        <ele>230.7923070135</ele>
        <time>2019-03-20T10:00:51Z</time>
      </trkpt>
      <trkpt lat="43.53741" lon="5.32081">
        <ele>230.74781460114</ele>
        <time>2019-03-20T10:01:00Z</time>
      </trkpt>
      <trkpt lat="43.53742" lon="5.32084">
        <ele>230.73172841466</ele>
        <time>2019-03-20T10:01:03Z</time>
      </trkpt>
      <trkpt lat="43.53745" lon="5.32088">
        <ele>230.712535433</ele>
        <time>2019-03-20T10:01:07Z</time>
      </trkpt>
      <trkpt lat="43.53749" lon="5.32094">
        <ele>230.69358490458</ele>
        <time>2019-03-20T10:01:12Z</time>
      </trkpt>
      <trkpt lat="43.53752" lon="5.32096">
        <ele>230.68107619594</ele>
        <time>2019-03-20T10:01:16Z</time>
      </trkpt>
      <trkpt lat="43.53755" lon="5.32098">
        <ele>230.67016098395</ele>
        <time>2019-03-20T10:01:20Z</time>
      </trkpt>
      <trkpt lat="43.53758" lon="5.32101">
        <ele>230.66217443852</ele>
        <time>2019-03-20T10:01:24Z</time>
      </trkpt>
      <trkpt lat="43.53759" lon="5.32104">
        <ele>230.65301291972</ele>
        <time>2019-03-20T10:01:28Z</time>
      </trkpt>
      <trkpt lat="43.53763" lon="5.32108">
        <ele>230.64286874141</ele>
        <time>2019-03-20T10:01:33Z</time>
      </trkpt>
      <trkpt lat="43.53767" lon="5.32111">
        <ele>230.6358895499</ele>
        <time>2019-03-20T10:01:38Z</time>
      </trkpt>
      <trkpt lat="43.53769" lon="5.32114">
        <ele>230.63439085949</ele>
        <time>2019-03-20T10:01:42Z</time>
      </trkpt>
      <trkpt lat="43.53773" lon="5.32117">
        <ele>230.63360861426</ele>
        <time>2019-03-20T10:01:47Z</time>
      </trkpt>
      <trkpt lat="43.53777" lon="5.32121">
        <ele>230.63465146075</ele>
        <time>2019-03-20T10:01:51Z</time>
      </trkpt>
      <trkpt lat="43.53783" lon="5.32126">
        <ele>230.63803027553</ele>
        <time>2019-03-20T10:01:56Z</time>
      </trkpt>
      <trkpt lat="43.53786" lon="5.32129">
        <ele>230.6399449344</ele>
        <time>2019-03-20T10:01:59Z</time>
      </trkpt>
      <trkpt lat="43.53789" lon="5.32133">
        <ele>230.64318238754</ele>
        <time>2019-03-20T10:02:03Z</time>
      </trkpt>
      <trkpt lat="43.53793" lon="5.32138">
        <ele>230.6459839433</ele>
        <time>2019-03-20T10:02:07Z</time>
      </trkpt>
      <trkpt lat="43.53797" lon="5.32142">
        <ele>230.65002211331</ele>
        <time>2019-03-20T10:02:11Z</time>
      </trkpt>
      <trkpt lat="43.538" lon="5.32147">
        <ele>230.6533436996</ele>
        <time>2019-03-20T10:02:15Z</time>
      </trkpt>
      <trkpt lat="43.53803" lon="5.32152">
        <ele>230.65890080336</ele>
        <time>2019-03-20T10:02:19Z</time>
      </trkpt>
      <trkpt lat="43.53806" lon="5.32157">
        <ele>230.66780160283</ele>
        <time>2019-03-20T10:02:25Z</time>
      </trkpt>
      <trkpt lat="43.53808" lon="5.32162">
        <ele>230.67481440861</ele>
        <time>2019-03-20T10:02:32Z</time>
      </trkpt>
      <trkpt lat="43.53811" lon="5.32167">
        <ele>230.67799903809</ele>
        <time>2019-03-20T10:02:37Z</time>
      </trkpt>
      <trkpt lat="43.53813" lon="5.32171">
        <ele>230.6785046893</ele>
        <time>2019-03-20T10:02:42Z</time>
      </trkpt>
      <trkpt lat="43.53816" lon="5.32173">
        <ele>230.67900126148</ele>
        <time>2019-03-20T10:02:45Z</time>
      </trkpt>
      <trkpt lat="43.5382" lon="5.32177">
        <ele>230.68319011375</ele>
        <time>2019-03-20T10:02:50Z</time>
      </trkpt>
      <trkpt lat="43.53825" lon="5.3218">
        <ele>230.69155254267</ele>
        <time>2019-03-20T10:02:54Z</time>
      </trkpt>
      <trkpt lat="43.53829" lon="5.32182">
        <ele>230.70223339361</ele>
        <time>2019-03-20T10:02:58Z</time>
      </trkpt>
      <trkpt lat="43.53834" lon="5.32185">
        <ele>230.71212624132</ele>
        <time>2019-03-20T10:03:03Z</time>
      </trkpt>
      <trkpt lat="43.53839" lon="5.32189">
        <ele>230.71821744028</ele>
        <time>2019-03-20T10:03:08Z</time>
      </trkpt>
      <trkpt lat="43.5384" lon="5.32193">
        <ele>230.7208321047</ele>
        <time>2019-03-20T10:03:11Z</time>
      </trkpt>
      <trkpt lat="43.53842" lon="5.32198">
        <ele>230.72402103537</ele>
        <time>2019-03-20T10:03:15Z</time>
      </trkpt>
      <trkpt lat="43.53845" lon="5.32204">
        <ele>230.73004994242</ele>
        <time>2019-03-20T10:03:20Z</time>
      </trkpt>
      <trkpt lat="43.53847" lon="5.32208">
        <ele>230.73899430892</ele>
        <time>2019-03-20T10:03:26Z</time>
      </trkpt>
      <trkpt lat="43.53849" lon="5.32213">
        <ele>230.74738379593</ele>
        <time>2019-03-20T10:03:30Z</time>
      </trkpt>
      <trkpt lat="43.53853" lon="5.32217">
        <ele>230.75931294705</ele>
        <time>2019-03-20T10:03:35Z</time>
      </trkpt>
      <trkpt lat="43.53856" lon="5.32221">
        <ele>230.77096392053</ele>
        <time>2019-03-20T10:03:39Z</time>
      </trkpt>
      <trkpt lat="43.53859" lon="5.32226">
        <ele>230.78198804839</ele>
        <time>2019-03-20T10:03:43Z</time>
      </trkpt>
      <trkpt lat="43.53861" lon="5.3223">
        <ele>230.7882257034</ele>
        <time>2019-03-20T10:03:47Z</time>
      </trkpt>
      <trkpt lat="43.53865" lon="5.32237">
        <ele>230.79271557166</ele>
        <time>2019-03-20T10:03:51Z</time>
      </trkpt>
      <trkpt lat="43.5387" lon="5.32245">
        <ele>230.79670937813</ele>
        <time>2019-03-20T10:03:56Z</time>
      </trkpt>
      <trkpt lat="43.53874" lon="5.32249">
        <ele>230.7996655413</ele>
        <time>2019-03-20T10:03:59Z</time>
      </trkpt>
      <trkpt lat="43.53878" lon="5.32254">
        <ele>230.80499042406</ele>
        <time>2019-03-20T10:04:03Z</time>
      </trkpt>
      <trkpt lat="43.53883" lon="5.3226">
        <ele>230.81313071987</ele>
        <time>2019-03-20T10:04:08Z</time>
      </trkpt>
      <trkpt lat="43.53885" lon="5.32263">
        <ele>230.81837633503</ele>
        <time>2019-03-20T10:04:11Z</time>
      </trkpt>
      <trkpt lat="43.53891" lon="5.3227">
        <ele>230.82470856245</ele>
        <time>2019-03-20T10:04:16Z</time>
      </trkpt>
      <trkpt lat="43.53894" lon="5.32274">
        <ele>230.82894603257</ele>
        <time>2019-03-20T10:04:20Z</time>
      </trkpt>
      <trkpt lat="43.53897" lon="5.32279">
        <ele>230.83262249442</ele>
        <time>2019-03-20T10:04:25Z</time>
      </trkpt>
      <trkpt lat="43.539" lon="5.32285">
        <ele>230.83631643027</ele>
        <time>2019-03-20T10:04:30Z</time>
      </trkpt>
      <trkpt lat="43.53902" lon="5.3229">
        <ele>230.83831835767</ele>
        <time>2019-03-20T10:04:34Z</time>
      </trkpt>
      <trkpt lat="43.53905" lon="5.32295">
        <ele>230.84171380898</ele>
        <time>2019-03-20T10:04:39Z</time>
      </trkpt>
      <trkpt lat="43.53907" lon="5.32299">
        <ele>230.84492978201</ele>
        <time>2019-03-20T10:04:43Z</time>
      </trkpt>
      <trkpt lat="43.53909" lon="5.32302">
        <ele>230.84873124222</ele>
        <time>2019-03-20T10:04:47Z</time>
      </trkpt>
      <trkpt lat="43.53912" lon="5.32307">
        <ele>230.8533115321</ele>
        <time>2019-03-20T10:04:51Z</time>
      </trkpt>
      <trkpt lat="43.53916" lon="5.32314">
        <ele>230.85982395463</ele>
        <time>2019-03-20T10:04:55Z</time>
      </trkpt>
      <trkpt lat="43.53918" lon="5.32319">
        <ele>230.8680742613</ele>
        <time>2019-03-20T10:05:00Z</time>
      </trkpt>
      <trkpt lat="43.53919" lon="5.32322">
        <ele>230.87350982689</ele>
        <time>2019-03-20T10:05:03Z</time>
      </trkpt>
      <trkpt lat="43.5392" lon="5.32328">
        <ele>230.88300781559</ele>
        <time>2019-03-20T10:05:07Z</time>
      </trkpt>
      <trkpt lat="43.53922" lon="5.32332">
        <ele>230.89033138887</ele>
        <time>2019-03-20T10:05:10Z</time>
      </trkpt>
      <trkpt lat="43.53924" lon="5.32336">
        <ele>230.90068001521</ele>
        <time>2019-03-20T10:05:14Z</time>
      </trkpt>
      <trkpt lat="43.53926" lon="5.3234">
        <ele>230.91278507588</ele>
        <time>2019-03-20T10:05:19Z</time>
      </trkpt>
      <trkpt lat="43.53928" lon="5.32344">
        <ele>230.92085911633</ele>
        <time>2019-03-20T10:05:23Z</time>
      </trkpt>
      <trkpt lat="43.53929" lon="5.3235">
        <ele>230.93041001912</ele>
        <time>2019-03-20T10:05:27Z</time>
      </trkpt>
      <trkpt lat="43.5393" lon="5.32355">
        <ele>230.93883710376</ele>
        <time>2019-03-20T10:05:31Z</time>
      </trkpt>
      <trkpt lat="43.5393" lon="5.3236">
        <ele>230.95174215585</ele>
        <time>2019-03-20T10:05:37Z</time>
      </trkpt>
      <trkpt lat="43.53933" lon="5.32365">
        <ele>230.9686384118</ele>
        <time>2019-03-20T10:05:44Z</time>
      </trkpt>
      <trkpt lat="43.53934" lon="5.32369">
        <ele>230.97706409823</ele>
        <time>2019-03-20T10:05:48Z</time>
      </trkpt>
      <trkpt lat="43.53935" lon="5.32374">
        <ele>230.98426753037</ele>
        <time>2019-03-20T10:05:52Z</time>
      </trkpt>
      <trkpt lat="43.53938" lon="5.32381">
        <ele>230.99265332164</ele>
        <time>2019-03-20T10:05:57Z</time>
      </trkpt>
      <trkpt lat="43.53939" lon="5.32385">
        <ele>230.99690197217</ele>
        <time>2019-03-20T10:06:00Z</time>
      </trkpt>
      <trkpt lat="43.53941" lon="5.3239">
        <ele>231.00223966494</ele>
        <time>2019-03-20T10:06:04Z</time>
      </trkpt>
      <trkpt lat="43.53945" lon="5.32396">
        <ele>231.00876636192</ele>
        <time>2019-03-20T10:06:09Z</time>
      </trkpt>
      <trkpt lat="43.53947" lon="5.32402">
        <ele>231.01656036958</ele>
        <time>2019-03-20T10:06:14Z</time>
      </trkpt>
      <trkpt lat="43.5395" lon="5.32409">
        <ele>231.02327968213</ele>
        <time>2019-03-20T10:06:19Z</time>
      </trkpt>
      <trkpt lat="43.53953" lon="5.32417">
        <ele>231.03094322823</ele>
        <time>2019-03-20T10:06:24Z</time>
      </trkpt>
      <trkpt lat="43.53955" lon="5.32421">
        <ele>231.03671142341</ele>
        <time>2019-03-20T10:06:27Z</time>
      </trkpt>
      <trkpt lat="43.53958" lon="5.32427">
        <ele>231.04789927314</ele>
        <time>2019-03-20T10:06:32Z</time>
      </trkpt>
      <trkpt lat="43.53959" lon="5.32432">
        <ele>231.05971960792</ele>
        <time>2019-03-20T10:06:37Z</time>
      </trkpt>
      <trkpt lat="43.53962" lon="5.32438">
        <ele>231.07160193321</ele>
        <time>2019-03-20T10:06:42Z</time>
      </trkpt>
      <trkpt lat="43.53963" lon="5.32442">
        <ele>231.07946002779</ele>
        <time>2019-03-20T10:06:46Z</time>
      </trkpt>
      <trkpt lat="43.53965" lon="5.32447">
        <ele>231.0866261219</ele>
        <time>2019-03-20T10:06:50Z</time>
      </trkpt>
      <trkpt lat="43.53966" lon="5.32455">
        <ele>231.09565232259</ele>
        <time>2019-03-20T10:06:55Z</time>
      </trkpt>
      <trkpt lat="43.53967" lon="5.32461">
        <ele>231.10221059385</ele>
        <time>2019-03-20T10:06:59Z</time>
      </trkpt>
      <trkpt lat="43.53968" lon="5.32465">
        <ele>231.10693005969</ele>
        <time>2019-03-20T10:07:02Z</time>
      </trkpt>
      <trkpt lat="43.53969" lon="5.32472">
        <ele>231.11325464617</ele>
        <time>2019-03-20T10:07:06Z</time>
      </trkpt>
      <trkpt lat="43.5397" lon="5.32479">
        <ele>231.11951988118</ele>
        <time>2019-03-20T10:07:10Z</time>
      </trkpt>
      <trkpt lat="43.53971" lon="5.32486">
        <ele>231.12472825986</ele>
        <time>2019-03-20T10:07:14Z</time>
      </trkpt>
      <trkpt lat="43.53971" lon="5.32491">
        <ele>231.12846571932</ele>
        <time>2019-03-20T10:07:18Z</time>
      </trkpt>
      <trkpt lat="43.53971" lon="5.32496">
        <ele>231.13488946972</ele>
        <time>2019-03-20T10:07:24Z</time>
      </trkpt>
      <trkpt lat="43.53971" lon="5.32502">
        <ele>231.1388136555</ele>
        <time>2019-03-20T10:07:29Z</time>
      </trkpt>
      <trkpt lat="43.53971" lon="5.3251">
        <ele>231.13979578844</ele>
        <time>2019-03-20T10:07:34Z</time>
      </trkpt>
      <trkpt lat="43.53972" lon="5.32516">
        <ele>231.13961497829</ele>
        <time>2019-03-20T10:07:39Z</time>
      </trkpt>
      <trkpt lat="43.53972" lon="5.32521">
        <ele>231.13838296601</ele>
        <time>2019-03-20T10:07:42Z</time>
      </trkpt>
      <trkpt lat="43.53972" lon="5.32527">
        <ele>231.13640067052</ele>
        <time>2019-03-20T10:07:46Z</time>
      </trkpt>
      <trkpt lat="43.53971" lon="5.32533">
        <ele>231.13346983234</ele>
        <time>2019-03-20T10:07:50Z</time>
      </trkpt>
      <trkpt lat="43.53971" lon="5.3254">
        <ele>231.12970715449</ele>
        <time>2019-03-20T10:07:55Z</time>
      </trkpt>
      <trkpt lat="43.5397" lon="5.32544">
        <ele>231.12716624348</ele>
        <time>2019-03-20T10:07:58Z</time>
      </trkpt>
      <trkpt lat="43.53971" lon="5.3255">
        <ele>231.12367078024</ele>
        <time>2019-03-20T10:08:02Z</time>
      </trkpt>
      <trkpt lat="43.53971" lon="5.32555">
        <ele>231.12002749424</ele>
        <time>2019-03-20T10:08:06Z</time>
      </trkpt>
      <trkpt lat="43.53971" lon="5.32559">
        <ele>231.11599257556</ele>
        <time>2019-03-20T10:08:09Z</time>
      </trkpt>
      <trkpt lat="43.53972" lon="5.32569">
        <ele>231.10563664815</ele>
        <time>2019-03-20T10:08:14Z</time>
      </trkpt>
      <trkpt lat="43.53972" lon="5.32576">
        <ele>231.09653532131</ele>
        <time>2019-03-20T10:08:18Z</time>
      </trkpt>
      <trkpt lat="43.53971" lon="5.32583">
        <ele>231.08433840554</ele>
        <time>2019-03-20T10:08:23Z</time>
      </trkpt>
      <trkpt lat="43.5397" lon="5.32592">
        <ele>231.07088362642</ele>
        <time>2019-03-20T10:08:28Z</time>
      </trkpt>
      <trkpt lat="43.5397" lon="5.32598">
        <ele>231.06264240671</ele>
        <time>2019-03-20T10:08:31Z</time>
      </trkpt>
      <trkpt lat="43.5397" lon="5.32603">
        <ele>231.05484839921</ele>
        <time>2019-03-20T10:08:34Z</time>
      </trkpt>
      <trkpt lat="43.53971" lon="5.32609">
        <ele>231.04435055064</ele>
        <time>2019-03-20T10:08:38Z</time>
      </trkpt>
      <trkpt lat="43.53969" lon="5.32617">
        <ele>231.0322582856</ele>
        <time>2019-03-20T10:08:43Z</time>
      </trkpt>
      <trkpt lat="43.53968" lon="5.32624">
        <ele>231.02047904486</ele>
        <time>2019-03-20T10:08:48Z</time>
      </trkpt>
      <trkpt lat="43.53966" lon="5.32631">
        <ele>231.01112221724</ele>
        <time>2019-03-20T10:08:52Z</time>
      </trkpt>
      <trkpt lat="43.53965" lon="5.32638">
        <ele>231.00093101754</ele>
        <time>2019-03-20T10:08:57Z</time>
      </trkpt>
      <trkpt lat="43.53965" lon="5.32643">
        <ele>230.99562271177</ele>
        <time>2019-03-20T10:09:00Z</time>
      </trkpt>
      <trkpt lat="43.53963" lon="5.32651">
        <ele>230.98782077165</ele>
        <time>2019-03-20T10:09:05Z</time>
      </trkpt>
      <trkpt lat="43.53961" lon="5.32657">
        <ele>230.98225231477</ele>
        <time>2019-03-20T10:09:09Z</time>
      </trkpt>
      <trkpt lat="43.5396" lon="5.32662">
        <ele>230.97456637346</ele>
        <time>2019-03-20T10:09:13Z</time>
      </trkpt>
      <trkpt lat="43.53958" lon="5.32667">
        <ele>230.966673446</ele>
        <time>2019-03-20T10:09:17Z</time>
      </trkpt>
      <trkpt lat="43.53956" lon="5.32677">
        <ele>230.95602891329</ele>
        <time>2019-03-20T10:09:22Z</time>
      </trkpt>
      <trkpt lat="43.53956" lon="5.32682">
        <ele>230.94894971298</ele>
        <time>2019-03-20T10:09:25Z</time>
      </trkpt>
      <trkpt lat="43.53955" lon="5.32689">
        <ele>230.93764311464</ele>
        <time>2019-03-20T10:09:29Z</time>
      </trkpt>
      <trkpt lat="43.53954" lon="5.32697">
        <ele>230.9257064382</ele>
        <time>2019-03-20T10:09:33Z</time>
      </trkpt>
      <trkpt lat="43.53953" lon="5.32702">
        <ele>230.91643175496</ele>
        <time>2019-03-20T10:09:36Z</time>
      </trkpt>
      <trkpt lat="43.53953" lon="5.32708">
        <ele>230.90242745549</ele>
        <time>2019-03-20T10:09:40Z</time>
      </trkpt>
      <trkpt lat="43.53952" lon="5.32713">
        <ele>230.88707435261</ele>
        <time>2019-03-20T10:09:44Z</time>
      </trkpt>
      <trkpt lat="43.53953" lon="5.3272">
        <ele>230.86778331068</ele>
        <time>2019-03-20T10:09:49Z</time>
      </trkpt>
      <trkpt lat="43.53953" lon="5.32726">
        <ele>230.85230381198</ele>
        <time>2019-03-20T10:09:53Z</time>
      </trkpt>
      <trkpt lat="43.53954" lon="5.32731">
        <ele>230.84043010381</ele>
        <time>2019-03-20T10:09:56Z</time>
      </trkpt>
      <trkpt lat="43.53955" lon="5.32737">
        <ele>230.82503614828</ele>
        <time>2019-03-20T10:10:00Z</time>
      </trkpt>
      <trkpt lat="43.53956" lon="5.32744">
        <ele>230.80586613215</ele>
        <time>2019-03-20T10:10:05Z</time>
      </trkpt>
      <trkpt lat="43.53955" lon="5.32749">
        <ele>230.78896359384</ele>
        <time>2019-03-20T10:10:09Z</time>
      </trkpt>
      <trkpt lat="43.53956" lon="5.32754">
        <ele>230.77010088321</ele>
        <time>2019-03-20T10:10:13Z</time>
      </trkpt>
      <trkpt lat="43.53956" lon="5.3276">
        <ele>230.74950899726</ele>
        <time>2019-03-20T10:10:17Z</time>
      </trkpt>
      <trkpt lat="43.53956" lon="5.32765">
        <ele>230.72732582033</ele>
        <time>2019-03-20T10:10:21Z</time>
      </trkpt>
      <trkpt lat="43.53955" lon="5.32774">
        <ele>230.69756468317</ele>
        <time>2019-03-20T10:10:26Z</time>
      </trkpt>
      <trkpt lat="43.53955" lon="5.32781">
        <ele>230.67190521821</ele>
        <time>2019-03-20T10:10:30Z</time>
      </trkpt>
      <trkpt lat="43.53954" lon="5.32787">
        <ele>230.63883696327</ele>
        <time>2019-03-20T10:10:35Z</time>
      </trkpt>
      <trkpt lat="43.53953" lon="5.32794">
        <ele>230.61140663536</ele>
        <time>2019-03-20T10:10:39Z</time>
      </trkpt>
      <trkpt lat="43.53952" lon="5.32801">
        <ele>230.58392156651</ele>
        <time>2019-03-20T10:10:43Z</time>
      </trkpt>
      <trkpt lat="43.5395" lon="5.32807">
        <ele>230.5570394005</ele>
        <time>2019-03-20T10:10:47Z</time>
      </trkpt>
      <trkpt lat="43.5395" lon="5.32813">
        <ele>230.52157978083</ele>
        <time>2019-03-20T10:10:52Z</time>
      </trkpt>
      <trkpt lat="43.53949" lon="5.32819">
        <ele>230.49170629488</ele>
        <time>2019-03-20T10:10:56Z</time>
      </trkpt>
      <trkpt lat="43.53949" lon="5.32824">
        <ele>230.46036642907</ele>
        <time>2019-03-20T10:11:00Z</time>
      </trkpt>
      <trkpt lat="43.53948" lon="5.32831">
        <ele>230.41984246586</ele>
        <time>2019-03-20T10:11:05Z</time>
      </trkpt>
      <trkpt lat="43.53947" lon="5.32837">
        <ele>230.38594602105</ele>
        <time>2019-03-20T10:11:09Z</time>
      </trkpt>
      <trkpt lat="43.53946" lon="5.32845">
        <ele>230.34267544226</ele>
        <time>2019-03-20T10:11:14Z</time>
      </trkpt>
      <trkpt lat="43.53946" lon="5.3285">
        <ele>230.29925322875</ele>
        <time>2019-03-20T10:11:19Z</time>
      </trkpt>
      <trkpt lat="43.53947" lon="5.32858">
        <ele>230.25232063408</ele>
        <time>2019-03-20T10:11:24Z</time>
      </trkpt>
      <trkpt lat="43.53947" lon="5.32864">
        <ele>230.21345501231</ele>
        <time>2019-03-20T10:11:28Z</time>
      </trkpt>
      <trkpt lat="43.53947" lon="5.32872">
        <ele>230.16459032417</ele>
        <time>2019-03-20T10:11:33Z</time>
      </trkpt>
      <trkpt lat="43.53947" lon="5.32878">
        <ele>230.12626408355</ele>
        <time>2019-03-20T10:11:37Z</time>
      </trkpt>
      <trkpt lat="43.53947" lon="5.32885">
        <ele>230.08779043401</ele>
        <time>2019-03-20T10:11:41Z</time>
      </trkpt>
      <trkpt lat="43.53946" lon="5.3289">
        <ele>230.0506284921</ele>
        <time>2019-03-20T10:11:45Z</time>
      </trkpt>
      <trkpt lat="43.53945" lon="5.32898">
        <ele>230.00533549036</ele>
        <time>2019-03-20T10:11:50Z</time>
      </trkpt>
      <trkpt lat="43.53945" lon="5.32902">
        <ele>229.97802220139</ele>
        <time>2019-03-20T10:11:53Z</time>
      </trkpt>
      <trkpt lat="43.53944" lon="5.32909">
        <ele>229.94126887136</ele>
        <time>2019-03-20T10:11:57Z</time>
      </trkpt>
      <trkpt lat="43.53944" lon="5.32915">
        <ele>229.90492083441</ele>
        <time>2019-03-20T10:12:01Z</time>
      </trkpt>
      <trkpt lat="43.53943" lon="5.3292">
        <ele>229.87685461449</ele>
        <time>2019-03-20T10:12:04Z</time>
      </trkpt>
      <trkpt lat="43.53943" lon="5.32925">
        <ele>229.83913972354</ele>
        <time>2019-03-20T10:12:08Z</time>
      </trkpt>
      <trkpt lat="43.53943" lon="5.3293">
        <ele>229.8104424323</ele>
        <time>2019-03-20T10:12:11Z</time>
      </trkpt>
      <trkpt lat="43.53942" lon="5.32935">
        <ele>229.77191721474</ele>
        <time>2019-03-20T10:12:15Z</time>
      </trkpt>
      <trkpt lat="43.53943" lon="5.32943">
        <ele>229.72560133968</ele>
        <time>2019-03-20T10:12:20Z</time>
      </trkpt>
      <trkpt lat="43.53944" lon="5.32949">
        <ele>229.69075686866</ele>
        <time>2019-03-20T10:12:24Z</time>
      </trkpt>
      <trkpt lat="43.53945" lon="5.32955">
        <ele>229.65686810862</ele>
        <time>2019-03-20T10:12:28Z</time>
      </trkpt>
      <trkpt lat="43.53945" lon="5.32961">
        <ele>229.62452972942</ele>
        <time>2019-03-20T10:12:32Z</time>
      </trkpt>
      <trkpt lat="43.53946" lon="5.32968">
        <ele>229.58575008437</ele>
        <time>2019-03-20T10:12:37Z</time>
      </trkpt>
      <trkpt lat="43.53945" lon="5.32974">
        <ele>229.54675805178</ele>
        <time>2019-03-20T10:12:42Z</time>
      </trkpt>
      <trkpt lat="43.53945" lon="5.32981">
        <ele>229.5067127344</ele>
        <time>2019-03-20T10:12:47Z</time>
      </trkpt>
      <trkpt lat="43.53945" lon="5.32988">
        <ele>229.4552091699</ele>
        <time>2019-03-20T10:12:52Z</time>
      </trkpt>
      <trkpt lat="43.53945" lon="5.32993">
        <ele>229.4094508608</ele>
        <time>2019-03-20T10:12:56Z</time>
      </trkpt>
      <trkpt lat="43.53946" lon="5.33">
        <ele>229.35187020043</ele>
        <time>2019-03-20T10:13:01Z</time>
      </trkpt>
      <trkpt lat="43.53948" lon="5.33006">
        <ele>229.30746783635</ele>
        <time>2019-03-20T10:13:05Z</time>
      </trkpt>
      <trkpt lat="43.5395" lon="5.33011">
        <ele>229.26142292938</ele>
        <time>2019-03-20T10:13:09Z</time>
      </trkpt>
      <trkpt lat="43.53952" lon="5.33017">
        <ele>229.20298515047</ele>
        <time>2019-03-20T10:13:14Z</time>
      </trkpt>
      <trkpt lat="43.53952" lon="5.33023">
        <ele>229.14469004923</ele>
        <time>2019-03-20T10:13:19Z</time>
      </trkpt>
      <trkpt lat="43.53953" lon="5.33027">
        <ele>229.09889197666</ele>
        <time>2019-03-20T10:13:23Z</time>
      </trkpt>
      <trkpt lat="43.53953" lon="5.33033">
        <ele>229.02855273252</ele>
        <time>2019-03-20T10:13:29Z</time>
      </trkpt>
      <trkpt lat="43.53952" lon="5.33039">
        <ele>228.98023798158</ele>
        <time>2019-03-20T10:13:33Z</time>
      </trkpt>
      <trkpt lat="43.53951" lon="5.33045">
        <ele>228.91922688925</ele>
        <time>2019-03-20T10:13:38Z</time>
      </trkpt>
      <trkpt lat="43.53951" lon="5.3305">
        <ele>228.86830265371</ele>
        <time>2019-03-20T10:13:42Z</time>
      </trkpt>
      <trkpt lat="43.53951" lon="5.33057">
        <ele>228.81599518425</ele>
        <time>2019-03-20T10:13:46Z</time>
      </trkpt>
      <trkpt lat="43.5395" lon="5.33064">
        <ele>228.74939069594</ele>
        <time>2019-03-20T10:13:51Z</time>
      </trkpt>
      <trkpt lat="43.53949" lon="5.3307">
        <ele>228.69742379412</ele>
        <time>2019-03-20T10:13:55Z</time>
      </trkpt>
      <trkpt lat="43.53948" lon="5.33076">
        <ele>228.63419069582</ele>
        <time>2019-03-20T10:14:00Z</time>
      </trkpt>
      <trkpt lat="43.53947" lon="5.33083">
        <ele>228.57068930062</ele>
        <time>2019-03-20T10:14:05Z</time>
      </trkpt>
      <trkpt lat="43.53947" lon="5.33089">
        <ele>228.51964287068</ele>
        <time>2019-03-20T10:14:09Z</time>
      </trkpt>
      <trkpt lat="43.53947" lon="5.33094">
        <ele>228.4689082281</ele>
        <time>2019-03-20T10:14:13Z</time>
      </trkpt>
      <trkpt lat="43.53947" lon="5.33101">
        <ele>228.40512858482</ele>
        <time>2019-03-20T10:14:18Z</time>
      </trkpt>
      <trkpt lat="43.53946" lon="5.33107">
        <ele>228.35404842223</ele>
        <time>2019-03-20T10:14:22Z</time>
      </trkpt>
      <trkpt lat="43.53946" lon="5.33113">
        <ele>228.27883651778</ele>
        <time>2019-03-20T10:14:28Z</time>
      </trkpt>
      <trkpt lat="43.53944" lon="5.33119">
        <ele>228.23046942979</ele>
        <time>2019-03-20T10:14:32Z</time>
      </trkpt>
      <trkpt lat="43.53943" lon="5.33124">
        <ele>228.18290260338</ele>
        <time>2019-03-20T10:14:36Z</time>
      </trkpt>
      <trkpt lat="43.53943" lon="5.33129">
        <ele>228.1362214092</ele>
        <time>2019-03-20T10:14:40Z</time>
      </trkpt>
      <trkpt lat="43.53943" lon="5.33135">
        <ele>228.08909655757</ele>
        <time>2019-03-20T10:14:44Z</time>
      </trkpt>
      <trkpt lat="43.53943" lon="5.3314">
        <ele>228.05267633112</ele>
        <time>2019-03-20T10:14:47Z</time>
      </trkpt>
      <trkpt lat="43.53945" lon="5.33147">
        <ele>227.98960786024</ele>
        <time>2019-03-20T10:14:52Z</time>
      </trkpt>
      <trkpt lat="43.53945" lon="5.33152">
        <ele>227.95026329265</ele>
        <time>2019-03-20T10:14:55Z</time>
      </trkpt>
      <trkpt lat="43.53945" lon="5.33158">
        <ele>227.88711822291</ele>
        <time>2019-03-20T10:15:00Z</time>
      </trkpt>
      <trkpt lat="43.53946" lon="5.33163">
        <ele>227.83745157675</ele>
        <time>2019-03-20T10:15:04Z</time>
      </trkpt>
      <trkpt lat="43.53946" lon="5.3317">
        <ele>227.77473605513</ele>
        <time>2019-03-20T10:15:09Z</time>
      </trkpt>
      <trkpt lat="43.53946" lon="5.33176">
        <ele>227.72412042121</ele>
        <time>2019-03-20T10:15:13Z</time>
      </trkpt>
      <trkpt lat="43.53946" lon="5.33183">
        <ele>227.66025767896</ele>
        <time>2019-03-20T10:15:18Z</time>
      </trkpt>
      <trkpt lat="43.53945" lon="5.33189">
        <ele>227.60843746508</ele>
        <time>2019-03-20T10:15:22Z</time>
      </trkpt>
      <trkpt lat="43.53945" lon="5.33194">
        <ele>227.56984001727</ele>
        <time>2019-03-20T10:15:25Z</time>
      </trkpt>
      <trkpt lat="43.53944" lon="5.33201">
        <ele>227.51833167684</ele>
        <time>2019-03-20T10:15:29Z</time>
      </trkpt>
      <trkpt lat="43.53943" lon="5.33208">
        <ele>227.46516530263</ele>
        <time>2019-03-20T10:15:33Z</time>
      </trkpt>
      <trkpt lat="43.53943" lon="5.33213">
        <ele>227.40007211924</ele>
        <time>2019-03-20T10:15:38Z</time>
      </trkpt>
      <trkpt lat="43.53941" lon="5.33219">
        <ele>227.33561425758</ele>
        <time>2019-03-20T10:15:43Z</time>
      </trkpt>
      <trkpt lat="43.53941" lon="5.33223">
        <ele>227.29736125448</ele>
        <time>2019-03-20T10:15:46Z</time>
      </trkpt>
      <trkpt lat="43.5394" lon="5.3323">
        <ele>227.2473495283</ele>
        <time>2019-03-20T10:15:50Z</time>
      </trkpt>
      <trkpt lat="43.5394" lon="5.33234">
        <ele>227.21067254087</ele>
        <time>2019-03-20T10:15:53Z</time>
      </trkpt>
      <trkpt lat="43.53939" lon="5.33239">
        <ele>227.16223549474</ele>
        <time>2019-03-20T10:15:57Z</time>
      </trkpt>
      <trkpt lat="43.53938" lon="5.33245">
        <ele>227.10136982144</ele>
        <time>2019-03-20T10:16:02Z</time>
      </trkpt>
      <trkpt lat="43.53937" lon="5.33249">
        <ele>227.05244395231</ele>
        <time>2019-03-20T10:16:06Z</time>
      </trkpt>
      <trkpt lat="43.53938" lon="5.33254">
        <ele>227.00215249808</ele>
        <time>2019-03-20T10:16:10Z</time>
      </trkpt>
      <trkpt lat="43.53937" lon="5.3326">
        <ele>226.78062951898</ele>
        <time>2019-03-20T10:17:28Z</time>
      </trkpt>
      <trkpt lat="43.53936" lon="5.33266">
        <ele>225.51913691054</ele>
        <time>2019-03-20T10:20:20Z</time>
      </trkpt>
      <trkpt lat="43.53932" lon="5.33267">
        <ele>225.11588172078</ele>
        <time>2019-03-20T10:20:28Z</time>
      </trkpt>
      <trkpt lat="43.53929" lon="5.33265">
        <ele>224.80872971184</ele>
        <time>2019-03-20T10:20:35Z</time>
      </trkpt>
      <trkpt lat="43.53925" lon="5.33262">
        <ele>224.54085443903</ele>
        <time>2019-03-20T10:20:42Z</time>
      </trkpt>
      <trkpt lat="43.53921" lon="5.3326">
        <ele>224.33843358295</ele>
        <time>2019-03-20T10:20:48Z</time>
      </trkpt>
      <trkpt lat="43.53917" lon="5.33258">
        <ele>224.18700273803</ele>
        <time>2019-03-20T10:20:53Z</time>
      </trkpt>
      <trkpt lat="43.53913" lon="5.33256">
        <ele>224.00066387415</ele>
        <time>2019-03-20T10:21:00Z</time>
      </trkpt>
      <trkpt lat="43.53909" lon="5.33253">
        <ele>223.81848597199</ele>
        <time>2019-03-20T10:21:08Z</time>
      </trkpt>
      <trkpt lat="43.53906" lon="5.33249">
        <ele>223.68224867076</ele>
        <time>2019-03-20T10:21:15Z</time>
      </trkpt>
      <trkpt lat="43.53903" lon="5.33246">
        <ele>223.57936283111</ele>
        <time>2019-03-20T10:21:21Z</time>
      </trkpt>
      <trkpt lat="43.53899" lon="5.33245">
        <ele>223.48787797633</ele>
        <time>2019-03-20T10:21:27Z</time>
      </trkpt>
      <trkpt lat="43.53896" lon="5.33244">
        <ele>223.41807273467</ele>
        <time>2019-03-20T10:21:32Z</time>
      </trkpt>
      <trkpt lat="43.53892" lon="5.33244">
        <ele>223.3523804331</ele>
        <time>2019-03-20T10:21:37Z</time>
      </trkpt>
      <trkpt lat="43.53888" lon="5.33242">
        <ele>223.29257462902</ele>
        <time>2019-03-20T10:21:42Z</time>
      </trkpt>
      <trkpt lat="43.53884" lon="5.33241">
        <ele>223.23482012454</ele>
        <time>2019-03-20T10:21:47Z</time>
      </trkpt>
      <trkpt lat="43.53881" lon="5.33242">
        <ele>223.18960374819</ele>
        <time>2019-03-20T10:21:51Z</time>
      </trkpt>
      <trkpt lat="43.53878" lon="5.33245">
        <ele>223.14423493947</ele>
        <time>2019-03-20T10:21:55Z</time>
      </trkpt>
      <trkpt lat="43.53875" lon="5.33249">
        <ele>223.09902631668</ele>
        <time>2019-03-20T10:21:59Z</time>
      </trkpt>
      <trkpt lat="43.5387" lon="5.33256">
        <ele>223.03956791479</ele>
        <time>2019-03-20T10:22:04Z</time>
      </trkpt>
      <trkpt lat="43.53867" lon="5.33261">
        <ele>222.97771497825</ele>
        <time>2019-03-20T10:22:09Z</time>
      </trkpt>
      <trkpt lat="43.53867" lon="5.33266">
        <ele>222.94240512211</ele>
        <time>2019-03-20T10:22:12Z</time>
      </trkpt>
      <trkpt lat="43.53866" lon="5.33271">
        <ele>222.88619658438</ele>
        <time>2019-03-20T10:22:17Z</time>
      </trkpt>
      <trkpt lat="43.53866" lon="5.33276">
        <ele>222.83050894943</ele>
        <time>2019-03-20T10:22:22Z</time>
      </trkpt>
      <trkpt lat="43.53866" lon="5.33281">
        <ele>222.78358293732</ele>
        <time>2019-03-20T10:22:26Z</time>
      </trkpt>
      <trkpt lat="43.53868" lon="5.33287">
        <ele>222.7201476617</ele>
        <time>2019-03-20T10:22:30Z</time>
      </trkpt>
      <trkpt lat="43.53868" lon="5.33293">
        <ele>222.65217687094</ele>
        <time>2019-03-20T10:22:34Z</time>
      </trkpt>
      <trkpt lat="43.53868" lon="5.33298">
        <ele>222.60168865735</ele>
        <time>2019-03-20T10:22:37Z</time>
      </trkpt>
      <trkpt lat="43.53868" lon="5.33306">
        <ele>222.51845966671</ele>
        <time>2019-03-20T10:22:42Z</time>
      </trkpt>
      <trkpt lat="43.53868" lon="5.33311">
        <ele>222.45218624898</ele>
        <time>2019-03-20T10:22:46Z</time>
      </trkpt>
      <trkpt lat="43.53869" lon="5.33317">
        <ele>222.37006736192</ele>
        <time>2019-03-20T10:22:51Z</time>
      </trkpt>
      <trkpt lat="43.53869" lon="5.33323">
        <ele>222.28959572301</ele>
        <time>2019-03-20T10:22:56Z</time>
      </trkpt>
      <trkpt lat="43.53869" lon="5.33329">
        <ele>222.22637596803</ele>
        <time>2019-03-20T10:23:00Z</time>
      </trkpt>
      <trkpt lat="43.53868" lon="5.33334">
        <ele>222.14851510929</ele>
        <time>2019-03-20T10:23:05Z</time>
      </trkpt>
      <trkpt lat="43.53869" lon="5.33338">
        <ele>222.08725903254</ele>
        <time>2019-03-20T10:23:09Z</time>
      </trkpt>
      <trkpt lat="43.53869" lon="5.33344">
        <ele>222.02725573235</ele>
        <time>2019-03-20T10:23:13Z</time>
      </trkpt>
      <trkpt lat="43.5387" lon="5.33351">
        <ele>221.96829931592</ele>
        <time>2019-03-20T10:23:17Z</time>
      </trkpt>
      <trkpt lat="43.53871" lon="5.33358">
        <ele>221.89350386171</ele>
        <time>2019-03-20T10:23:22Z</time>
      </trkpt>
      <trkpt lat="43.53872" lon="5.33365">
        <ele>221.82006251678</ele>
        <time>2019-03-20T10:23:27Z</time>
      </trkpt>
      <trkpt lat="43.53873" lon="5.33371">
        <ele>221.76230151248</ele>
        <time>2019-03-20T10:23:31Z</time>
      </trkpt>
      <trkpt lat="43.53874" lon="5.33377">
        <ele>221.6913354118</ele>
        <time>2019-03-20T10:23:36Z</time>
      </trkpt>
      <trkpt lat="43.53876" lon="5.33382">
        <ele>221.60172340015</ele>
        <time>2019-03-20T10:23:43Z</time>
      </trkpt>
      <trkpt lat="43.53878" lon="5.33386">
        <ele>221.54086527872</ele>
        <time>2019-03-20T10:23:48Z</time>
      </trkpt>
      <trkpt lat="43.5388" lon="5.33391">
        <ele>221.48436996126</ele>
        <time>2019-03-20T10:23:53Z</time>
      </trkpt>
      <trkpt lat="43.53883" lon="5.33395">
        <ele>221.43303680316</ele>
        <time>2019-03-20T10:23:58Z</time>
      </trkpt>
      <trkpt lat="43.53885" lon="5.33398">
        <ele>221.39802787155</ele>
        <time>2019-03-20T10:24:01Z</time>
      </trkpt>
      <trkpt lat="43.53889" lon="5.334">
        <ele>221.33451074636</ele>
        <time>2019-03-20T10:24:06Z</time>
      </trkpt>
      <trkpt lat="43.53896" lon="5.334">
        <ele>221.27692071628</ele>
        <time>2019-03-20T10:24:10Z</time>
      </trkpt>
      <trkpt lat="43.539" lon="5.334">
        <ele>221.23117661921</ele>
        <time>2019-03-20T10:24:14Z</time>
      </trkpt>
      <trkpt lat="43.53905" lon="5.33398">
        <ele>221.16711827693</ele>
        <time>2019-03-20T10:24:18Z</time>
      </trkpt>
      <trkpt lat="43.53907" lon="5.33396">
        <ele>221.11924046182</ele>
        <time>2019-03-20T10:24:21Z</time>
      </trkpt>
      <trkpt lat="43.5391" lon="5.33393">
        <ele>221.04925830614</ele>
        <time>2019-03-20T10:24:25Z</time>
      </trkpt>
      <trkpt lat="43.53914" lon="5.33386">
        <ele>220.95385959118</ele>
        <time>2019-03-20T10:24:30Z</time>
      </trkpt>
      <trkpt lat="43.53918" lon="5.33382">
        <ele>220.86924453715</ele>
        <time>2019-03-20T10:24:34Z</time>
      </trkpt>
      <trkpt lat="43.53922" lon="5.33376">
        <ele>220.74503332032</ele>
        <time>2019-03-20T10:24:39Z</time>
      </trkpt>
      <trkpt lat="43.53924" lon="5.33371">
        <ele>220.60888556807</ele>
        <time>2019-03-20T10:24:44Z</time>
      </trkpt>
      <trkpt lat="43.53926" lon="5.33366">
        <ele>220.4642545059</ele>
        <time>2019-03-20T10:24:49Z</time>
      </trkpt>
      <trkpt lat="43.53928" lon="5.3336">
        <ele>220.31501567494</ele>
        <time>2019-03-20T10:24:54Z</time>
      </trkpt>
      <trkpt lat="43.53931" lon="5.33355">
        <ele>220.19361294922</ele>
        <time>2019-03-20T10:24:58Z</time>
      </trkpt>
      <trkpt lat="43.53933" lon="5.33352">
        <ele>220.06949786104</ele>
        <time>2019-03-20T10:25:02Z</time>
      </trkpt>
      <trkpt lat="43.53937" lon="5.3335">
        <ele>219.83910548425</ele>
        <time>2019-03-20T10:25:10Z</time>
      </trkpt>
      <trkpt lat="43.53938" lon="5.33355">
        <ele>219.75697501712</ele>
        <time>2019-03-20T10:25:13Z</time>
      </trkpt>
      <trkpt lat="43.53938" lon="5.33359">
        <ele>219.67860711477</ele>
        <time>2019-03-20T10:25:16Z</time>
      </trkpt>
      <trkpt lat="43.53938" lon="5.33365">
        <ele>219.57978198218</ele>
        <time>2019-03-20T10:25:20Z</time>
      </trkpt>
      <trkpt lat="43.53938" lon="5.33374">
        <ele>219.46101661264</ele>
        <time>2019-03-20T10:25:25Z</time>
      </trkpt>
      <trkpt lat="43.53936" lon="5.33382">
        <ele>219.34611916435</ele>
        <time>2019-03-20T10:25:30Z</time>
      </trkpt>
      <trkpt lat="43.53933" lon="5.33389">
        <ele>219.2573781606</ele>
        <time>2019-03-20T10:25:34Z</time>
      </trkpt>
      <trkpt lat="43.53932" lon="5.33397">
        <ele>219.17095300292</ele>
        <time>2019-03-20T10:25:38Z</time>
      </trkpt>
      <trkpt lat="43.53931" lon="5.33403">
        <ele>219.08758051871</ele>
        <time>2019-03-20T10:25:42Z</time>
      </trkpt>
      <trkpt lat="43.5393" lon="5.33408">
        <ele>219.00814195752</ele>
        <time>2019-03-20T10:25:46Z</time>
      </trkpt>
      <trkpt lat="43.5393" lon="5.33414">
        <ele>218.93188255818</ele>
        <time>2019-03-20T10:25:50Z</time>
      </trkpt>
      <trkpt lat="43.5393" lon="5.33419">
        <ele>218.82655577139</ele>
        <time>2019-03-20T10:25:56Z</time>
      </trkpt>
      <trkpt lat="43.5393" lon="5.33425">
        <ele>218.74220852858</ele>
        <time>2019-03-20T10:26:01Z</time>
      </trkpt>
      <trkpt lat="43.53929" lon="5.33431">
        <ele>218.67689861208</ele>
        <time>2019-03-20T10:26:05Z</time>
      </trkpt>
      <trkpt lat="43.53928" lon="5.33436">
        <ele>218.6136856158</ele>
        <time>2019-03-20T10:26:09Z</time>
      </trkpt>
      <trkpt lat="43.53928" lon="5.33441">
        <ele>218.5518523794</ele>
        <time>2019-03-20T10:26:13Z</time>
      </trkpt>
      <trkpt lat="43.53929" lon="5.33447">
        <ele>218.49095242984</ele>
        <time>2019-03-20T10:26:17Z</time>
      </trkpt>
      <trkpt lat="43.53928" lon="5.33453">
        <ele>218.41414760048</ele>
        <time>2019-03-20T10:26:22Z</time>
      </trkpt>
      <trkpt lat="43.53929" lon="5.3346">
        <ele>218.33769859784</ele>
        <time>2019-03-20T10:26:27Z</time>
      </trkpt>
      <trkpt lat="43.5393" lon="5.33467">
        <ele>218.26449984964</ele>
        <time>2019-03-20T10:26:32Z</time>
      </trkpt>
      <trkpt lat="43.5393" lon="5.33472">
        <ele>218.20655611372</ele>
        <time>2019-03-20T10:26:36Z</time>
      </trkpt>
      <trkpt lat="43.5393" lon="5.33477">
        <ele>218.15071320294</ele>
        <time>2019-03-20T10:26:40Z</time>
      </trkpt>
      <trkpt lat="43.5393" lon="5.33483">
        <ele>218.10987908543</ele>
        <time>2019-03-20T10:26:43Z</time>
      </trkpt>
      <trkpt lat="43.53927" lon="5.33494">
        <ele>218.0437820582</ele>
        <time>2019-03-20T10:26:48Z</time>
      </trkpt>
      <trkpt lat="43.53926" lon="5.335">
        <ele>217.99253929725</ele>
        <time>2019-03-20T10:26:52Z</time>
      </trkpt>
      <trkpt lat="43.53925" lon="5.33507">
        <ele>217.94178846353</ele>
        <time>2019-03-20T10:26:56Z</time>
      </trkpt>
      <trkpt lat="43.53924" lon="5.33514">
        <ele>217.89076200703</ele>
        <time>2019-03-20T10:27:00Z</time>
      </trkpt>
      <trkpt lat="43.53922" lon="5.33523">
        <ele>217.82519205714</ele>
        <time>2019-03-20T10:27:05Z</time>
      </trkpt>
      <trkpt lat="43.53921" lon="5.33527">
        <ele>217.77123434846</ele>
        <time>2019-03-20T10:27:09Z</time>
      </trkpt>
      <trkpt lat="43.53921" lon="5.33533">
        <ele>217.71555869025</ele>
        <time>2019-03-20T10:27:13Z</time>
      </trkpt>
      <trkpt lat="43.5392" lon="5.3354">
        <ele>217.65840658953</ele>
        <time>2019-03-20T10:27:17Z</time>
      </trkpt>
      <trkpt lat="43.53918" lon="5.33547">
        <ele>217.58620220979</ele>
        <time>2019-03-20T10:27:22Z</time>
      </trkpt>
      <trkpt lat="43.53916" lon="5.33552">
        <ele>217.52679867165</ele>
        <time>2019-03-20T10:27:26Z</time>
      </trkpt>
      <trkpt lat="43.53915" lon="5.33558">
        <ele>217.46651949461</ele>
        <time>2019-03-20T10:27:30Z</time>
      </trkpt>
      <trkpt lat="43.53914" lon="5.33564">
        <ele>217.40600058399</ele>
        <time>2019-03-20T10:27:34Z</time>
      </trkpt>
      <trkpt lat="43.53913" lon="5.33573">
        <ele>217.33117165419</ele>
        <time>2019-03-20T10:27:39Z</time>
      </trkpt>
      <trkpt lat="43.53912" lon="5.3358">
        <ele>217.2715656127</ele>
        <time>2019-03-20T10:27:43Z</time>
      </trkpt>
      <trkpt lat="43.5391" lon="5.33587">
        <ele>217.21143107276</ele>
        <time>2019-03-20T10:27:47Z</time>
      </trkpt>
      <trkpt lat="43.53908" lon="5.33591">
        <ele>217.15170767136</ele>
        <time>2019-03-20T10:27:51Z</time>
      </trkpt>
      <trkpt lat="43.53907" lon="5.33597">
        <ele>217.09172534032</ele>
        <time>2019-03-20T10:27:55Z</time>
      </trkpt>
      <trkpt lat="43.53906" lon="5.33603">
        <ele>217.03111103534</ele>
        <time>2019-03-20T10:27:59Z</time>
      </trkpt>
      <trkpt lat="43.53904" lon="5.3361">
        <ele>216.95266466404</ele>
        <time>2019-03-20T10:28:04Z</time>
      </trkpt>
      <trkpt lat="43.53901" lon="5.33617">
        <ele>216.87606854403</ele>
        <time>2019-03-20T10:28:09Z</time>
      </trkpt>
      <trkpt lat="43.539" lon="5.33625">
        <ele>216.8169479886</ele>
        <time>2019-03-20T10:28:13Z</time>
      </trkpt>
      <trkpt lat="43.53899" lon="5.33631">
        <ele>216.74529827193</ele>
        <time>2019-03-20T10:28:18Z</time>
      </trkpt>
      <trkpt lat="43.53899" lon="5.33635">
        <ele>216.70116871083</ele>
        <time>2019-03-20T10:28:21Z</time>
      </trkpt>
      <trkpt lat="43.53899" lon="5.3364">
        <ele>216.62734028828</ele>
        <time>2019-03-20T10:28:26Z</time>
      </trkpt>
      <trkpt lat="43.53898" lon="5.33646">
        <ele>216.55525802142</ele>
        <time>2019-03-20T10:28:31Z</time>
      </trkpt>
      <trkpt lat="43.53897" lon="5.33652">
        <ele>216.51238557986</ele>
        <time>2019-03-20T10:28:34Z</time>
      </trkpt>
      <trkpt lat="43.53895" lon="5.3366">
        <ele>216.45508204305</ele>
        <time>2019-03-20T10:28:38Z</time>
      </trkpt>
      <trkpt lat="43.53893" lon="5.33668">
        <ele>216.38228333245</ele>
        <time>2019-03-20T10:28:43Z</time>
      </trkpt>
      <trkpt lat="43.53892" lon="5.33673">
        <ele>216.33856501301</ele>
        <time>2019-03-20T10:28:46Z</time>
      </trkpt>
      <trkpt lat="43.53889" lon="5.33679">
        <ele>216.27527954924</ele>
        <time>2019-03-20T10:28:50Z</time>
      </trkpt>
      <trkpt lat="43.53886" lon="5.33689">
        <ele>216.19580574109</ele>
        <time>2019-03-20T10:28:55Z</time>
      </trkpt>
      <trkpt lat="43.53884" lon="5.33693">
        <ele>216.13288569252</ele>
        <time>2019-03-20T10:28:59Z</time>
      </trkpt>
      <trkpt lat="43.53882" lon="5.337">
        <ele>216.05455378956</ele>
        <time>2019-03-20T10:29:04Z</time>
      </trkpt>
      <trkpt lat="43.53881" lon="5.33704">
        <ele>216.00843149205</ele>
        <time>2019-03-20T10:29:07Z</time>
      </trkpt>
      <trkpt lat="43.53877" lon="5.33712">
        <ele>215.93043592161</ele>
        <time>2019-03-20T10:29:12Z</time>
      </trkpt>
      <trkpt lat="43.53875" lon="5.33716">
        <ele>215.85317758782</ele>
        <time>2019-03-20T10:29:17Z</time>
      </trkpt>
      <trkpt lat="43.53873" lon="5.3372">
        <ele>215.7778915256</ele>
        <time>2019-03-20T10:29:22Z</time>
      </trkpt>
      <trkpt lat="43.53869" lon="5.33724">
        <ele>215.72021370738</ele>
        <time>2019-03-20T10:29:26Z</time>
      </trkpt>
      <trkpt lat="43.53867" lon="5.33727">
        <ele>215.65065071172</ele>
        <time>2019-03-20T10:29:31Z</time>
      </trkpt>
      <trkpt lat="43.53864" lon="5.33733">
        <ele>215.59215588696</ele>
        <time>2019-03-20T10:29:35Z</time>
      </trkpt>
      <trkpt lat="43.53862" lon="5.33737">
        <ele>215.54550443495</ele>
        <time>2019-03-20T10:29:38Z</time>
      </trkpt>
      <trkpt lat="43.53859" lon="5.33741">
        <ele>215.48258651109</ele>
        <time>2019-03-20T10:29:42Z</time>
      </trkpt>
      <trkpt lat="43.53858" lon="5.33746">
        <ele>215.011714368</ele>
        <time>2019-03-20T10:30:42Z</time>
      </trkpt>
      <trkpt lat="43.53855" lon="5.33749">
        <ele>214.88596217763</ele>
        <time>2019-03-20T10:30:46Z</time>
      </trkpt>
      <trkpt lat="43.53851" lon="5.33751">
        <ele>214.76337908823</ele>
        <time>2019-03-20T10:30:50Z</time>
      </trkpt>
      <trkpt lat="43.53846" lon="5.33755">
        <ele>214.61406453066</ele>
        <time>2019-03-20T10:30:55Z</time>
      </trkpt>
      <trkpt lat="43.53842" lon="5.33757">
        <ele>214.52624800999</ele>
        <time>2019-03-20T10:30:58Z</time>
      </trkpt>
      <trkpt lat="43.53839" lon="5.33762">
        <ele>214.38322286298</ele>
        <time>2019-03-20T10:31:03Z</time>
      </trkpt>
      <trkpt lat="43.53836" lon="5.33766">
        <ele>214.1641994494</ele>
        <time>2019-03-20T10:31:12Z</time>
      </trkpt>
      <trkpt lat="43.53832" lon="5.33767">
        <ele>214.03511896103</ele>
        <time>2019-03-20T10:31:17Z</time>
      </trkpt>
      <trkpt lat="43.53829" lon="5.33768">
        <ele>213.93783247115</ele>
        <time>2019-03-20T10:31:21Z</time>
      </trkpt>
      <trkpt lat="43.53824" lon="5.33769">
        <ele>213.84650440059</ele>
        <time>2019-03-20T10:31:25Z</time>
      </trkpt>
      <trkpt lat="43.5382" lon="5.3377">
        <ele>213.73995120707</ele>
        <time>2019-03-20T10:31:30Z</time>
      </trkpt>
      <trkpt lat="43.53816" lon="5.33772">
        <ele>213.59384008076</ele>
        <time>2019-03-20T10:31:38Z</time>
      </trkpt>
      <trkpt lat="43.53813" lon="5.33777">
        <ele>213.34859423121</ele>
        <time>2019-03-20T10:32:14Z</time>
      </trkpt>
      <trkpt lat="43.53809" lon="5.3378">
        <ele>212.89852479918</ele>
        <time>2019-03-20T10:33:45Z</time>
      </trkpt>
      <trkpt lat="43.53808" lon="5.33786">
        <ele>210.2479661161</ele>
        <time>2019-03-20T10:35:55Z</time>
      </trkpt>
      <trkpt lat="43.53808" lon="5.33792">
        <ele>209.81146664082</ele>
        <time>2019-03-20T10:36:01Z</time>
      </trkpt>
      <trkpt lat="43.53807" lon="5.33797">
        <ele>209.479926468</ele>
        <time>2019-03-20T10:36:06Z</time>
      </trkpt>
      <trkpt lat="43.53804" lon="5.33802">
        <ele>208.9434341904</ele>
        <time>2019-03-20T10:36:15Z</time>
      </trkpt>
      <trkpt lat="43.538" lon="5.33805">
        <ele>208.52791695157</ele>
        <time>2019-03-20T10:36:23Z</time>
      </trkpt>
      <trkpt lat="43.53797" lon="5.33808">
        <ele>207.98387507158</ele>
        <time>2019-03-20T10:36:38Z</time>
      </trkpt>
      <trkpt lat="43.53793" lon="5.33808">
        <ele>207.74612921588</ele>
        <time>2019-03-20T10:36:44Z</time>
      </trkpt>
      <trkpt lat="43.53788" lon="5.33808">
        <ele>207.56248157904</ele>
        <time>2019-03-20T10:36:49Z</time>
      </trkpt>
      <trkpt lat="43.53784" lon="5.33808">
        <ele>207.42471408817</ele>
        <time>2019-03-20T10:36:53Z</time>
      </trkpt>
      <trkpt lat="43.53779" lon="5.33809">
        <ele>207.29393271338</ele>
        <time>2019-03-20T10:36:57Z</time>
      </trkpt>
      <trkpt lat="43.53773" lon="5.33809">
        <ele>207.14351484592</ele>
        <time>2019-03-20T10:37:02Z</time>
      </trkpt>
      <trkpt lat="43.53768" lon="5.33809">
        <ele>206.99919610499</ele>
        <time>2019-03-20T10:37:07Z</time>
      </trkpt>
      <trkpt lat="43.53764" lon="5.33811">
        <ele>206.89105652706</ele>
        <time>2019-03-20T10:37:11Z</time>
      </trkpt>
      <trkpt lat="43.5376" lon="5.33812">
        <ele>206.79038412056</ele>
        <time>2019-03-20T10:37:15Z</time>
      </trkpt>
      <trkpt lat="43.53756" lon="5.33812">
        <ele>206.67401097259</ele>
        <time>2019-03-20T10:37:20Z</time>
      </trkpt>
      <trkpt lat="43.53753" lon="5.33812">
        <ele>206.58800101401</ele>
        <time>2019-03-20T10:37:24Z</time>
      </trkpt>
      <trkpt lat="43.53748" lon="5.33812">
        <ele>206.48447741614</ele>
        <time>2019-03-20T10:37:29Z</time>
      </trkpt>
      <trkpt lat="43.53743" lon="5.33812">
        <ele>206.40719394913</ele>
        <time>2019-03-20T10:37:33Z</time>
      </trkpt>
      <trkpt lat="43.53738" lon="5.33812">
        <ele>206.335653501</ele>
        <time>2019-03-20T10:37:37Z</time>
      </trkpt>
      <trkpt lat="43.53735" lon="5.33813">
        <ele>206.28407448923</ele>
        <time>2019-03-20T10:37:40Z</time>
      </trkpt>
      <trkpt lat="43.5373" lon="5.33812">
        <ele>206.21841470591</ele>
        <time>2019-03-20T10:37:44Z</time>
      </trkpt>
      <trkpt lat="43.53725" lon="5.33813">
        <ele>206.15586636124</ele>
        <time>2019-03-20T10:37:48Z</time>
      </trkpt>
      <trkpt lat="43.53721" lon="5.33813">
        <ele>206.09485789186</ele>
        <time>2019-03-20T10:37:52Z</time>
      </trkpt>
      <trkpt lat="43.53715" lon="5.33813">
        <ele>206.03463108775</ele>
        <time>2019-03-20T10:37:56Z</time>
      </trkpt>
      <trkpt lat="43.53711" lon="5.33813">
        <ele>205.97406034113</ele>
        <time>2019-03-20T10:38:00Z</time>
      </trkpt>
      <trkpt lat="43.53708" lon="5.33809">
        <ele>205.88441659392</ele>
        <time>2019-03-20T10:38:07Z</time>
      </trkpt>
      <trkpt lat="43.53705" lon="5.33807">
        <ele>205.81367902035</ele>
        <time>2019-03-20T10:38:12Z</time>
      </trkpt>
      <trkpt lat="43.53701" lon="5.33804">
        <ele>205.75769809092</ele>
        <time>2019-03-20T10:38:16Z</time>
      </trkpt>
      <trkpt lat="43.53696" lon="5.33801">
        <ele>205.68854459311</ele>
        <time>2019-03-20T10:38:21Z</time>
      </trkpt>
      <trkpt lat="43.5369" lon="5.33797">
        <ele>205.61595127598</ele>
        <time>2019-03-20T10:38:26Z</time>
      </trkpt>
      <trkpt lat="43.53686" lon="5.33794">
        <ele>205.55643110953</ele>
        <time>2019-03-20T10:38:30Z</time>
      </trkpt>
      <trkpt lat="43.53682" lon="5.33791">
        <ele>205.48084850517</ele>
        <time>2019-03-20T10:38:35Z</time>
      </trkpt>
      <trkpt lat="43.53678" lon="5.33788">
        <ele>205.43525259383</ele>
        <time>2019-03-20T10:38:38Z</time>
      </trkpt>
      <trkpt lat="43.53673" lon="5.33786">
        <ele>205.3587981629</ele>
        <time>2019-03-20T10:38:43Z</time>
      </trkpt>
      <trkpt lat="43.53667" lon="5.33783">
        <ele>205.27679588467</ele>
        <time>2019-03-20T10:38:48Z</time>
      </trkpt>
      <trkpt lat="43.53662" lon="5.3378">
        <ele>205.20630394469</ele>
        <time>2019-03-20T10:38:52Z</time>
      </trkpt>
      <trkpt lat="43.53657" lon="5.33777">
        <ele>205.12094599809</ele>
        <time>2019-03-20T10:38:57Z</time>
      </trkpt>
      <trkpt lat="43.53654" lon="5.33775">
        <ele>205.07183643031</ele>
        <time>2019-03-20T10:39:00Z</time>
      </trkpt>
      <trkpt lat="43.5365" lon="5.33774">
        <ele>204.99255045726</ele>
        <time>2019-03-20T10:39:05Z</time>
      </trkpt>
      <trkpt lat="43.53645" lon="5.33772">
        <ele>204.92968117428</ele>
        <time>2019-03-20T10:39:09Z</time>
      </trkpt>
      <trkpt lat="43.53642" lon="5.33768">
        <ele>204.85977340236</ele>
        <time>2019-03-20T10:39:13Z</time>
      </trkpt>
      <trkpt lat="43.53636" lon="5.33764">
        <ele>204.78690163378</ele>
        <time>2019-03-20T10:39:17Z</time>
      </trkpt>
      <trkpt lat="43.53632" lon="5.33762">
        <ele>204.69926678587</ele>
        <time>2019-03-20T10:39:22Z</time>
      </trkpt>
      <trkpt lat="43.53628" lon="5.3376">
        <ele>204.59281183963</ele>
        <time>2019-03-20T10:39:28Z</time>
      </trkpt>
      <trkpt lat="43.53624" lon="5.33758">
        <ele>204.50772921946</ele>
        <time>2019-03-20T10:39:33Z</time>
      </trkpt>
      <trkpt lat="43.5362" lon="5.33756">
        <ele>204.42934541257</ele>
        <time>2019-03-20T10:39:38Z</time>
      </trkpt>
      <trkpt lat="43.53616" lon="5.33754">
        <ele>204.36924388854</ele>
        <time>2019-03-20T10:39:42Z</time>
      </trkpt>
      <trkpt lat="43.53613" lon="5.33752">
        <ele>204.32555074745</ele>
        <time>2019-03-20T10:39:45Z</time>
      </trkpt>
      <trkpt lat="43.5361" lon="5.3375">
        <ele>204.26666590334</ele>
        <time>2019-03-20T10:39:49Z</time>
      </trkpt>
      <trkpt lat="43.53606" lon="5.33747">
        <ele>204.18042608845</ele>
        <time>2019-03-20T10:39:55Z</time>
      </trkpt>
      <trkpt lat="43.53602" lon="5.33744">
        <ele>204.12731086421</ele>
        <time>2019-03-20T10:39:59Z</time>
      </trkpt>
      <trkpt lat="43.53598" lon="5.33742">
        <ele>204.07526143553</ele>
        <time>2019-03-20T10:40:03Z</time>
      </trkpt>
      <trkpt lat="43.53593" lon="5.33739">
        <ele>204.01459821106</ele>
        <time>2019-03-20T10:40:08Z</time>
      </trkpt>
      <trkpt lat="43.53589" lon="5.33736">
        <ele>203.95511788844</ele>
        <time>2019-03-20T10:40:13Z</time>
      </trkpt>
      <trkpt lat="43.53584" lon="5.33735">
        <ele>203.90771245446</ele>
        <time>2019-03-20T10:40:17Z</time>
      </trkpt>
      <trkpt lat="43.53579" lon="5.33735">
        <ele>203.86190200483</ele>
        <time>2019-03-20T10:40:21Z</time>
      </trkpt>
      <trkpt lat="43.53575" lon="5.33735">
        <ele>203.81674329583</ele>
        <time>2019-03-20T10:40:25Z</time>
      </trkpt>
      <trkpt lat="43.53572" lon="5.33736">
        <ele>203.77177495982</ele>
        <time>2019-03-20T10:40:29Z</time>
      </trkpt>
      <trkpt lat="43.53569" lon="5.33738">
        <ele>203.72686193326</ele>
        <time>2019-03-20T10:40:33Z</time>
      </trkpt>
      <trkpt lat="43.53565" lon="5.33739">
        <ele>203.67206134241</ele>
        <time>2019-03-20T10:40:38Z</time>
      </trkpt>
      <trkpt lat="43.53559" lon="5.33739">
        <ele>203.61796496109</ele>
        <time>2019-03-20T10:40:43Z</time>
      </trkpt>
      <trkpt lat="43.53553" lon="5.33739">
        <ele>203.57421428394</ele>
        <time>2019-03-20T10:40:47Z</time>
      </trkpt>
      <trkpt lat="43.5355" lon="5.33739">
        <ele>203.52783420919</ele>
        <time>2019-03-20T10:40:51Z</time>
      </trkpt>
      <trkpt lat="43.53546" lon="5.33737">
        <ele>203.48241033812</ele>
        <time>2019-03-20T10:40:55Z</time>
      </trkpt>
      <trkpt lat="43.53542" lon="5.33735">
        <ele>203.44029911985</ele>
        <time>2019-03-20T10:40:59Z</time>
      </trkpt>
      <trkpt lat="43.53538" lon="5.33734">
        <ele>203.3997274025</ele>
        <time>2019-03-20T10:41:03Z</time>
      </trkpt>
      <trkpt lat="43.53533" lon="5.33731">
        <ele>203.34433668974</ele>
        <time>2019-03-20T10:41:08Z</time>
      </trkpt>
      <trkpt lat="43.53528" lon="5.33729">
        <ele>203.29927773838</ele>
        <time>2019-03-20T10:41:12Z</time>
      </trkpt>
      <trkpt lat="43.53524" lon="5.33726">
        <ele>203.2652633003</ele>
        <time>2019-03-20T10:41:15Z</time>
      </trkpt>
      <trkpt lat="43.53519" lon="5.33722">
        <ele>203.20926753625</ele>
        <time>2019-03-20T10:41:20Z</time>
      </trkpt>
      <trkpt lat="43.53516" lon="5.33717">
        <ele>203.15350845461</ele>
        <time>2019-03-20T10:41:25Z</time>
      </trkpt>
      <trkpt lat="43.53513" lon="5.33715">
        <ele>203.08188725542</ele>
        <time>2019-03-20T10:41:31Z</time>
      </trkpt>
      <trkpt lat="43.53511" lon="5.33712">
        <ele>203.04483709255</ele>
        <time>2019-03-20T10:41:34Z</time>
      </trkpt>
      <trkpt lat="43.53507" lon="5.33707">
        <ele>202.98610588373</ele>
        <time>2019-03-20T10:41:39Z</time>
      </trkpt>
      <trkpt lat="43.53503" lon="5.33704">
        <ele>202.92606948852</ele>
        <time>2019-03-20T10:41:44Z</time>
      </trkpt>
      <trkpt lat="43.535" lon="5.33701">
        <ele>202.87453586105</ele>
        <time>2019-03-20T10:41:48Z</time>
      </trkpt>
      <trkpt lat="43.53496" lon="5.33698">
        <ele>202.80422420854</ele>
        <time>2019-03-20T10:41:53Z</time>
      </trkpt>
      <trkpt lat="43.53491" lon="5.33693">
        <ele>202.70951921717</ele>
        <time>2019-03-20T10:41:58Z</time>
      </trkpt>
      <trkpt lat="43.53486" lon="5.33692">
        <ele>202.56359085937</ele>
        <time>2019-03-20T10:42:04Z</time>
      </trkpt>
      <trkpt lat="43.53483" lon="5.33692">
        <ele>202.43769732609</ele>
        <time>2019-03-20T10:42:09Z</time>
      </trkpt>
      <trkpt lat="43.53479" lon="5.33693">
        <ele>202.36307185629</ele>
        <time>2019-03-20T10:42:12Z</time>
      </trkpt>
      <trkpt lat="43.53475" lon="5.33695">
        <ele>202.18134845119</ele>
        <time>2019-03-20T10:42:19Z</time>
      </trkpt>
      <trkpt lat="43.53471" lon="5.33697">
        <ele>202.04398233743</ele>
        <time>2019-03-20T10:42:24Z</time>
      </trkpt>
      <trkpt lat="43.53467" lon="5.33699">
        <ele>201.86672007177</ele>
        <time>2019-03-20T10:42:30Z</time>
      </trkpt>
      <trkpt lat="43.53462" lon="5.337">
        <ele>201.72352822979</ele>
        <time>2019-03-20T10:42:35Z</time>
      </trkpt>
      <trkpt lat="43.53458" lon="5.33701">
        <ele>201.58147536624</ele>
        <time>2019-03-20T10:42:40Z</time>
      </trkpt>
      <trkpt lat="43.53454" lon="5.33702">
        <ele>201.46818024401</ele>
        <time>2019-03-20T10:42:44Z</time>
      </trkpt>
      <trkpt lat="43.53451" lon="5.33703">
        <ele>201.35690810901</ele>
        <time>2019-03-20T10:42:48Z</time>
      </trkpt>
      <trkpt lat="43.53446" lon="5.33704">
        <ele>201.24856355369</ele>
        <time>2019-03-20T10:42:52Z</time>
      </trkpt>
      <trkpt lat="43.53442" lon="5.33705">
        <ele>201.11629662618</ele>
        <time>2019-03-20T10:42:57Z</time>
      </trkpt>
      <trkpt lat="43.53438" lon="5.33706">
        <ele>200.95673986551</ele>
        <time>2019-03-20T10:43:03Z</time>
      </trkpt>
      <trkpt lat="43.53434" lon="5.33706">
        <ele>200.82798179504</ele>
        <time>2019-03-20T10:43:08Z</time>
      </trkpt>
      <trkpt lat="43.53429" lon="5.33706">
        <ele>200.70395773698</ele>
        <time>2019-03-20T10:43:13Z</time>
      </trkpt>
      <trkpt lat="43.53425" lon="5.33705">
        <ele>200.6091157435</ele>
        <time>2019-03-20T10:43:17Z</time>
      </trkpt>
      <trkpt lat="43.5342" lon="5.33704">
        <ele>200.51677528422</ele>
        <time>2019-03-20T10:43:21Z</time>
      </trkpt>
      <trkpt lat="43.53414" lon="5.33703">
        <ele>200.40115960189</ele>
        <time>2019-03-20T10:43:26Z</time>
      </trkpt>
      <trkpt lat="43.5341" lon="5.33703">
        <ele>200.30797670886</ele>
        <time>2019-03-20T10:43:30Z</time>
      </trkpt>
      <trkpt lat="43.53405" lon="5.33701">
        <ele>200.18417670811</ele>
        <time>2019-03-20T10:43:35Z</time>
      </trkpt>
      <trkpt lat="43.53401" lon="5.33699">
        <ele>200.08293355576</ele>
        <time>2019-03-20T10:43:39Z</time>
      </trkpt>
      <trkpt lat="43.53397" lon="5.33697">
        <ele>199.98297603638</ele>
        <time>2019-03-20T10:43:43Z</time>
      </trkpt>
      <trkpt lat="43.5339" lon="5.33693">
        <ele>199.85986991102</ele>
        <time>2019-03-20T10:43:48Z</time>
      </trkpt>
      <trkpt lat="43.53385" lon="5.3369">
        <ele>199.76228364942</ele>
        <time>2019-03-20T10:43:52Z</time>
      </trkpt>
      <trkpt lat="43.5338" lon="5.33689">
        <ele>199.66359257518</ele>
        <time>2019-03-20T10:43:56Z</time>
      </trkpt>
      <trkpt lat="43.53376" lon="5.33687">
        <ele>199.56357668101</ele>
        <time>2019-03-20T10:44:00Z</time>
      </trkpt>
      <trkpt lat="43.53372" lon="5.33686">
        <ele>199.46390930015</ele>
        <time>2019-03-20T10:44:04Z</time>
      </trkpt>
      <trkpt lat="43.53369" lon="5.33684">
        <ele>199.36691104674</ele>
        <time>2019-03-20T10:44:08Z</time>
      </trkpt>
      <trkpt lat="43.53364" lon="5.3368">
        <ele>199.27034010548</ele>
        <time>2019-03-20T10:44:12Z</time>
      </trkpt>
      <trkpt lat="43.53361" lon="5.33677">
        <ele>199.17170392779</ele>
        <time>2019-03-20T10:44:16Z</time>
      </trkpt>
      <trkpt lat="43.53358" lon="5.33675">
        <ele>199.07383321358</ele>
        <time>2019-03-20T10:44:20Z</time>
      </trkpt>
      <trkpt lat="43.53353" lon="5.33673">
        <ele>198.97559539939</ele>
        <time>2019-03-20T10:44:24Z</time>
      </trkpt>
      <trkpt lat="43.53347" lon="5.33671">
        <ele>198.84103804946</ele>
        <time>2019-03-20T10:44:29Z</time>
      </trkpt>
      <trkpt lat="43.53342" lon="5.33672">
        <ele>198.72964118741</ele>
        <time>2019-03-20T10:44:33Z</time>
      </trkpt>
      <trkpt lat="43.53338" lon="5.3367">
        <ele>198.59335956741</ele>
        <time>2019-03-20T10:44:38Z</time>
      </trkpt>
      <trkpt lat="43.53334" lon="5.33667">
        <ele>198.48764547092</ele>
        <time>2019-03-20T10:44:42Z</time>
      </trkpt>
      <trkpt lat="43.53329" lon="5.33664">
        <ele>198.35869985975</ele>
        <time>2019-03-20T10:44:47Z</time>
      </trkpt>
      <trkpt lat="43.53323" lon="5.33662">
        <ele>198.23688874083</ele>
        <time>2019-03-20T10:44:52Z</time>
      </trkpt>
      <trkpt lat="43.53318" lon="5.33661">
        <ele>198.14173410252</ele>
        <time>2019-03-20T10:44:56Z</time>
      </trkpt>
      <trkpt lat="43.53314" lon="5.33659">
        <ele>198.04931295827</ele>
        <time>2019-03-20T10:45:00Z</time>
      </trkpt>
      <trkpt lat="43.53309" lon="5.33657">
        <ele>197.95410749238</ele>
        <time>2019-03-20T10:45:04Z</time>
      </trkpt>
      <trkpt lat="43.53304" lon="5.33655">
        <ele>197.83850795006</ele>
        <time>2019-03-20T10:45:09Z</time>
      </trkpt>
      <trkpt lat="43.53301" lon="5.33652">
        <ele>197.72405768413</ele>
        <time>2019-03-20T10:45:14Z</time>
      </trkpt>
      <trkpt lat="43.53296" lon="5.3365">
        <ele>197.63457361323</ele>
        <time>2019-03-20T10:45:18Z</time>
      </trkpt>
      <trkpt lat="43.53293" lon="5.33647">
        <ele>197.54683858998</ele>
        <time>2019-03-20T10:45:22Z</time>
      </trkpt>
      <trkpt lat="43.5329" lon="5.33645">
        <ele>197.4630312062</ele>
        <time>2019-03-20T10:45:26Z</time>
      </trkpt>
      <trkpt lat="43.53287" lon="5.33643">
        <ele>197.38279843089</ele>
        <time>2019-03-20T10:45:30Z</time>
      </trkpt>
      <trkpt lat="43.53283" lon="5.3364">
        <ele>197.28705707184</ele>
        <time>2019-03-20T10:45:35Z</time>
      </trkpt>
      <trkpt lat="43.5328" lon="5.33638">
        <ele>197.21456352997</ele>
        <time>2019-03-20T10:45:39Z</time>
      </trkpt>
      <trkpt lat="43.53275" lon="5.33634">
        <ele>197.12664742536</ele>
        <time>2019-03-20T10:45:44Z</time>
      </trkpt>
      <trkpt lat="43.53271" lon="5.33631">
        <ele>197.05637540589</ele>
        <time>2019-03-20T10:45:48Z</time>
      </trkpt>
      <trkpt lat="43.53268" lon="5.33628">
        <ele>196.95437608914</ele>
        <time>2019-03-20T10:45:54Z</time>
      </trkpt>
      <trkpt lat="43.53265" lon="5.33626">
        <ele>196.88815903391</ele>
        <time>2019-03-20T10:45:58Z</time>
      </trkpt>
      <trkpt lat="43.53261" lon="5.33621">
        <ele>196.82362672912</ele>
        <time>2019-03-20T10:46:02Z</time>
      </trkpt>
      <trkpt lat="43.53258" lon="5.33618">
        <ele>196.72939008985</ele>
        <time>2019-03-20T10:46:08Z</time>
      </trkpt>
      <trkpt lat="43.53256" lon="5.33615">
        <ele>196.68190488838</ele>
        <time>2019-03-20T10:46:11Z</time>
      </trkpt>
      <trkpt lat="43.53254" lon="5.33611">
        <ele>196.63453993969</ele>
        <time>2019-03-20T10:46:14Z</time>
      </trkpt>
      <trkpt lat="43.53249" lon="5.33604">
        <ele>196.55628893457</ele>
        <time>2019-03-20T10:46:19Z</time>
      </trkpt>
      <trkpt lat="43.53247" lon="5.33599">
        <ele>196.49606578199</ele>
        <time>2019-03-20T10:46:23Z</time>
      </trkpt>
      <trkpt lat="43.53245" lon="5.33594">
        <ele>196.4182972162</ele>
        <time>2019-03-20T10:46:28Z</time>
      </trkpt>
      <trkpt lat="43.53243" lon="5.33587">
        <ele>196.35483601468</ele>
        <time>2019-03-20T10:46:32Z</time>
      </trkpt>
      <trkpt lat="43.5324" lon="5.33581">
        <ele>196.29216945879</ele>
        <time>2019-03-20T10:46:36Z</time>
      </trkpt>
      <trkpt lat="43.53238" lon="5.33573">
        <ele>196.22958745799</ele>
        <time>2019-03-20T10:46:40Z</time>
      </trkpt>
      <trkpt lat="43.53237" lon="5.33567">
        <ele>196.16948375693</ele>
        <time>2019-03-20T10:46:44Z</time>
      </trkpt>
      <trkpt lat="43.53237" lon="5.33562">
        <ele>196.1118647221</ele>
        <time>2019-03-20T10:46:48Z</time>
      </trkpt>
      <trkpt lat="43.53236" lon="5.33557">
        <ele>196.06750782041</ele>
        <time>2019-03-20T10:46:52Z</time>
      </trkpt>
      <trkpt lat="43.53235" lon="5.33552">
        <ele>195.94978922062</ele>
        <time>2019-03-20T10:47:00Z</time>
      </trkpt>
      <trkpt lat="43.53234" lon="5.33547">
        <ele>195.89057665132</ele>
        <time>2019-03-20T10:47:04Z</time>
      </trkpt>
      <trkpt lat="43.53234" lon="5.33542">
        <ele>195.83638228085</ele>
        <time>2019-03-20T10:47:12Z</time>
      </trkpt>
      <trkpt lat="43.53232" lon="5.33536">
        <ele>195.74987528747</ele>
        <time>2019-03-20T10:47:17Z</time>
      </trkpt>
      <trkpt lat="43.53229" lon="5.3353">
        <ele>195.67731144805</ele>
        <time>2019-03-20T10:47:21Z</time>
      </trkpt>
      <trkpt lat="43.53226" lon="5.33525">
        <ele>195.60652562895</ele>
        <time>2019-03-20T10:47:25Z</time>
      </trkpt>
      <trkpt lat="43.53222" lon="5.3352">
        <ele>195.51848001712</ele>
        <time>2019-03-20T10:47:30Z</time>
      </trkpt>
      <trkpt lat="43.5322" lon="5.33516">
        <ele>195.46537816489</ele>
        <time>2019-03-20T10:47:33Z</time>
      </trkpt>
      <trkpt lat="43.53216" lon="5.33508">
        <ele>195.39478703112</ele>
        <time>2019-03-20T10:47:37Z</time>
      </trkpt>
      <trkpt lat="43.53213" lon="5.335">
        <ele>195.32477028723</ele>
        <time>2019-03-20T10:47:41Z</time>
      </trkpt>
      <trkpt lat="43.53211" lon="5.33493">
        <ele>195.27137263731</ele>
        <time>2019-03-20T10:47:44Z</time>
      </trkpt>
      <trkpt lat="43.53209" lon="5.33485">
        <ele>195.20209355815</ele>
        <time>2019-03-20T10:47:48Z</time>
      </trkpt>
      <trkpt lat="43.53207" lon="5.33478">
        <ele>195.11684026625</ele>
        <time>2019-03-20T10:47:53Z</time>
      </trkpt>
      <trkpt lat="43.53206" lon="5.33473">
        <ele>195.04818497202</ele>
        <time>2019-03-20T10:47:57Z</time>
      </trkpt>
      <trkpt lat="43.53206" lon="5.33467">
        <ele>194.97956470554</ele>
        <time>2019-03-20T10:48:01Z</time>
      </trkpt>
      <trkpt lat="43.53206" lon="5.33463">
        <ele>194.92947906451</ele>
        <time>2019-03-20T10:48:04Z</time>
      </trkpt>
      <trkpt lat="43.53205" lon="5.33457">
        <ele>194.88125316571</ele>
        <time>2019-03-20T10:48:07Z</time>
      </trkpt>
      <trkpt lat="43.53205" lon="5.33452">
        <ele>194.82100831075</ele>
        <time>2019-03-20T10:48:11Z</time>
      </trkpt>
      <trkpt lat="43.53205" lon="5.33446">
        <ele>194.76485193553</ele>
        <time>2019-03-20T10:48:15Z</time>
      </trkpt>
      <trkpt lat="43.53205" lon="5.33441">
        <ele>194.68742024531</ele>
        <time>2019-03-20T10:48:21Z</time>
      </trkpt>
      <trkpt lat="43.53205" lon="5.33436">
        <ele>194.63939728685</ele>
        <time>2019-03-20T10:48:25Z</time>
      </trkpt>
      <trkpt lat="43.53207" lon="5.3343">
        <ele>194.5930064638</ele>
        <time>2019-03-20T10:48:29Z</time>
      </trkpt>
      <trkpt lat="43.53207" lon="5.33424">
        <ele>194.54813055224</ele>
        <time>2019-03-20T10:48:33Z</time>
      </trkpt>
      <trkpt lat="43.53208" lon="5.33417">
        <ele>194.5061083237</ele>
        <time>2019-03-20T10:48:37Z</time>
      </trkpt>
      <trkpt lat="43.53208" lon="5.33408">
        <ele>194.44414349488</ele>
        <time>2019-03-20T10:48:42Z</time>
      </trkpt>
      <trkpt lat="43.53206" lon="5.33403">
        <ele>194.4057978081</ele>
        <time>2019-03-20T10:48:45Z</time>
      </trkpt>
      <trkpt lat="43.53205" lon="5.33397">
        <ele>194.35577708538</ele>
        <time>2019-03-20T10:48:49Z</time>
      </trkpt>
      <trkpt lat="43.53204" lon="5.33392">
        <ele>194.30672334174</ele>
        <time>2019-03-20T10:48:53Z</time>
      </trkpt>
      <trkpt lat="43.53203" lon="5.33387">
        <ele>194.21788618701</ele>
        <time>2019-03-20T10:49:00Z</time>
      </trkpt>
      <trkpt lat="43.53203" lon="5.33383">
        <ele>194.17961511453</ele>
        <time>2019-03-20T10:49:03Z</time>
      </trkpt>
      <trkpt lat="43.53206" lon="5.3338">
        <ele>194.0359956452</ele>
        <time>2019-03-20T10:49:13Z</time>
      </trkpt>
      <trkpt lat="43.5321" lon="5.3338">
        <ele>193.96646430023</ele>
        <time>2019-03-20T10:49:17Z</time>
      </trkpt>
      <trkpt lat="43.53214" lon="5.33379">
        <ele>193.92716467742</ele>
        <time>2019-03-20T10:49:22Z</time>
      </trkpt>
      <trkpt lat="43.53214" lon="5.33373">
        <ele>193.75296334087</ele>
        <time>2019-03-20T10:49:33Z</time>
      </trkpt>
      <trkpt lat="43.53213" lon="5.33364">
        <ele>193.68779499686</ele>
        <time>2019-03-20T10:49:37Z</time>
      </trkpt>
      <trkpt lat="43.53212" lon="5.33349">
        <ele>193.61726985581</ele>
        <time>2019-03-20T10:49:41Z</time>
      </trkpt>
      <trkpt lat="43.53211" lon="5.33342">
        <ele>193.53310864489</ele>
        <time>2019-03-20T10:49:46Z</time>
      </trkpt>
      <trkpt lat="43.5321" lon="5.33338">
        <ele>193.48497799813</ele>
        <time>2019-03-20T10:49:49Z</time>
      </trkpt>
      <trkpt lat="43.53208" lon="5.33331">
        <ele>193.42617022355</ele>
        <time>2019-03-20T10:49:53Z</time>
      </trkpt>
      <trkpt lat="43.53206" lon="5.33324">
        <ele>193.3671931545</ele>
        <time>2019-03-20T10:49:57Z</time>
      </trkpt>
      <trkpt lat="43.53204" lon="5.33319">
        <ele>193.3049861764</ele>
        <time>2019-03-20T10:50:01Z</time>
      </trkpt>
      <trkpt lat="43.53203" lon="5.33311">
        <ele>193.24386769353</ele>
        <time>2019-03-20T10:50:05Z</time>
      </trkpt>
      <trkpt lat="43.532" lon="5.33308">
        <ele>193.15288678668</ele>
        <time>2019-03-20T10:50:11Z</time>
      </trkpt>
      <trkpt lat="43.53198" lon="5.33304">
        <ele>193.07571361801</ele>
        <time>2019-03-20T10:50:16Z</time>
      </trkpt>
      <trkpt lat="43.53196" lon="5.333">
        <ele>193.01156925783</ele>
        <time>2019-03-20T10:50:20Z</time>
      </trkpt>
      <trkpt lat="43.53193" lon="5.33296">
        <ele>192.94873625873</ele>
        <time>2019-03-20T10:50:24Z</time>
      </trkpt>
      <trkpt lat="43.53189" lon="5.33291">
        <ele>192.86936888114</ele>
        <time>2019-03-20T10:50:29Z</time>
      </trkpt>
      <trkpt lat="43.53186" lon="5.33289">
        <ele>192.80502840743</ele>
        <time>2019-03-20T10:50:33Z</time>
      </trkpt>
      <trkpt lat="43.53182" lon="5.33287">
        <ele>192.73920385637</ele>
        <time>2019-03-20T10:50:37Z</time>
      </trkpt>
      <trkpt lat="43.53179" lon="5.33286">
        <ele>192.68861974825</ele>
        <time>2019-03-20T10:50:40Z</time>
      </trkpt>
      <trkpt lat="43.53175" lon="5.33283">
        <ele>192.61928170091</ele>
        <time>2019-03-20T10:50:44Z</time>
      </trkpt>
      <trkpt lat="43.53171" lon="5.33282">
        <ele>192.54010824622</ele>
        <time>2019-03-20T10:50:48Z</time>
      </trkpt>
      <trkpt lat="43.53167" lon="5.33281">
        <ele>192.45226400598</ele>
        <time>2019-03-20T10:50:52Z</time>
      </trkpt>
      <trkpt lat="43.53163" lon="5.3328">
        <ele>192.35666684389</ele>
        <time>2019-03-20T10:50:56Z</time>
      </trkpt>
      <trkpt lat="43.53158" lon="5.33278">
        <ele>192.22586933816</ele>
        <time>2019-03-20T10:51:01Z</time>
      </trkpt>
      <trkpt lat="43.53155" lon="5.33277">
        <ele>192.14093422696</ele>
        <time>2019-03-20T10:51:04Z</time>
      </trkpt>
      <trkpt lat="43.5315" lon="5.33275">
        <ele>192.0219261703</ele>
        <time>2019-03-20T10:51:08Z</time>
      </trkpt>
      <trkpt lat="43.53145" lon="5.33272">
        <ele>191.90064161368</ele>
        <time>2019-03-20T10:51:12Z</time>
      </trkpt>
      <trkpt lat="43.5314" lon="5.33266">
        <ele>191.75712082756</ele>
        <time>2019-03-20T10:51:17Z</time>
      </trkpt>
      <trkpt lat="43.53137" lon="5.33261">
        <ele>191.65097613871</ele>
        <time>2019-03-20T10:51:21Z</time>
      </trkpt>
      <trkpt lat="43.53135" lon="5.33257">
        <ele>191.57660820674</ele>
        <time>2019-03-20T10:51:24Z</time>
      </trkpt>
      <trkpt lat="43.53132" lon="5.33252">
        <ele>191.48777851058</ele>
        <time>2019-03-20T10:51:28Z</time>
      </trkpt>
      <trkpt lat="43.53129" lon="5.33246">
        <ele>191.40942933903</ele>
        <time>2019-03-20T10:51:32Z</time>
      </trkpt>
      <trkpt lat="43.53126" lon="5.33241">
        <ele>191.32212413939</ele>
        <time>2019-03-20T10:51:37Z</time>
      </trkpt>
      <trkpt lat="43.53123" lon="5.33234">
        <ele>191.25405072292</ele>
        <time>2019-03-20T10:51:42Z</time>
      </trkpt>
      <trkpt lat="43.5312" lon="5.33231">
        <ele>191.2017485985</ele>
        <time>2019-03-20T10:51:47Z</time>
      </trkpt>
      <trkpt lat="43.53117" lon="5.33227">
        <ele>191.17184376499</ele>
        <time>2019-03-20T10:51:50Z</time>
      </trkpt>
      <trkpt lat="43.53113" lon="5.33224">
        <ele>191.12556529529</ele>
        <time>2019-03-20T10:51:55Z</time>
      </trkpt>
      <trkpt lat="43.53109" lon="5.33221">
        <ele>191.07458553814</ele>
        <time>2019-03-20T10:52:00Z</time>
      </trkpt>
      <trkpt lat="43.53105" lon="5.33217">
        <ele>191.03215924197</ele>
        <time>2019-03-20T10:52:04Z</time>
      </trkpt>
      <trkpt lat="43.53101" lon="5.33213">
        <ele>190.98197186406</ele>
        <time>2019-03-20T10:52:09Z</time>
      </trkpt>
      <trkpt lat="43.53098" lon="5.33209">
        <ele>190.94315435989</ele>
        <time>2019-03-20T10:52:13Z</time>
      </trkpt>
      <trkpt lat="43.53094" lon="5.33205">
        <ele>190.90313800208</ele>
        <time>2019-03-20T10:52:17Z</time>
      </trkpt>
      <trkpt lat="43.5309" lon="5.332">
        <ele>190.86210120396</ele>
        <time>2019-03-20T10:52:21Z</time>
      </trkpt>
      <trkpt lat="43.53088" lon="5.33196">
        <ele>190.82151451086</ele>
        <time>2019-03-20T10:52:25Z</time>
      </trkpt>
      <trkpt lat="43.53084" lon="5.33193">
        <ele>190.76872780322</ele>
        <time>2019-03-20T10:52:30Z</time>
      </trkpt>
      <trkpt lat="43.5308" lon="5.3319">
        <ele>190.72357405391</ele>
        <time>2019-03-20T10:52:34Z</time>
      </trkpt>
      <trkpt lat="43.53077" lon="5.33187">
        <ele>190.68811673187</ele>
        <time>2019-03-20T10:52:37Z</time>
      </trkpt>
      <trkpt lat="43.53073" lon="5.33184">
        <ele>190.63602736708</ele>
        <time>2019-03-20T10:52:41Z</time>
      </trkpt>
      <trkpt lat="43.53068" lon="5.33181">
        <ele>190.56154686119</ele>
        <time>2019-03-20T10:52:46Z</time>
      </trkpt>
      <trkpt lat="43.53064" lon="5.33179">
        <ele>190.49524631178</ele>
        <time>2019-03-20T10:52:50Z</time>
      </trkpt>
      <trkpt lat="43.5306" lon="5.33173">
        <ele>190.40968192897</ele>
        <time>2019-03-20T10:52:55Z</time>
      </trkpt>
      <trkpt lat="43.53056" lon="5.33168">
        <ele>190.32756391847</ele>
        <time>2019-03-20T10:53:00Z</time>
      </trkpt>
      <trkpt lat="43.53053" lon="5.33165">
        <ele>190.2819286523</ele>
        <time>2019-03-20T10:53:03Z</time>
      </trkpt>
      <trkpt lat="43.53049" lon="5.33162">
        <ele>190.20553405226</ele>
        <time>2019-03-20T10:53:08Z</time>
      </trkpt>
      <trkpt lat="43.53046" lon="5.3316">
        <ele>190.14413056605</ele>
        <time>2019-03-20T10:53:12Z</time>
      </trkpt>
      <trkpt lat="43.53042" lon="5.33157">
        <ele>190.09895913098</ele>
        <time>2019-03-20T10:53:15Z</time>
      </trkpt>
      <trkpt lat="43.53035" lon="5.33152">
        <ele>190.02213306841</ele>
        <time>2019-03-20T10:53:20Z</time>
      </trkpt>
      <trkpt lat="43.53033" lon="5.33149">
        <ele>189.97844708835</ele>
        <time>2019-03-20T10:53:23Z</time>
      </trkpt>
      <trkpt lat="43.53028" lon="5.33146">
        <ele>189.90809771393</ele>
        <time>2019-03-20T10:53:28Z</time>
      </trkpt>
      <trkpt lat="43.53025" lon="5.33143">
        <ele>189.84945683683</ele>
        <time>2019-03-20T10:53:32Z</time>
      </trkpt>
      <trkpt lat="43.53021" lon="5.33139">
        <ele>189.78664575345</ele>
        <time>2019-03-20T10:53:36Z</time>
      </trkpt>
      <trkpt lat="43.53017" lon="5.33135">
        <ele>189.7099102234</ele>
        <time>2019-03-20T10:53:41Z</time>
      </trkpt>
      <trkpt lat="43.53013" lon="5.33131">
        <ele>189.63842147185</ele>
        <time>2019-03-20T10:53:46Z</time>
      </trkpt>
      <trkpt lat="43.5301" lon="5.33127">
        <ele>189.56983673397</ele>
        <time>2019-03-20T10:53:51Z</time>
      </trkpt>
      <trkpt lat="43.53007" lon="5.33125">
        <ele>189.52689005483</ele>
        <time>2019-03-20T10:53:54Z</time>
      </trkpt>
      <trkpt lat="43.53003" lon="5.33122">
        <ele>189.46767515962</ele>
        <time>2019-03-20T10:53:58Z</time>
      </trkpt>
      <trkpt lat="43.52999" lon="5.33117">
        <ele>189.39459822595</ele>
        <time>2019-03-20T10:54:03Z</time>
      </trkpt>
      <trkpt lat="43.52995" lon="5.33114">
        <ele>189.30784027111</ele>
        <time>2019-03-20T10:54:08Z</time>
      </trkpt>
      <trkpt lat="43.52992" lon="5.33113">
        <ele>189.13174483563</ele>
        <time>2019-03-20T10:54:17Z</time>
      </trkpt>
      <trkpt lat="43.52987" lon="5.3311">
        <ele>189.03948459394</ele>
        <time>2019-03-20T10:54:21Z</time>
      </trkpt>
      <trkpt lat="43.52984" lon="5.33107">
        <ele>188.94790098688</ele>
        <time>2019-03-20T10:54:25Z</time>
      </trkpt>
      <trkpt lat="43.52978" lon="5.33105">
        <ele>188.85821153621</ele>
        <time>2019-03-20T10:54:29Z</time>
      </trkpt>
      <trkpt lat="43.52975" lon="5.33104">
        <ele>188.79176431888</ele>
        <time>2019-03-20T10:54:32Z</time>
      </trkpt>
      <trkpt lat="43.52971" lon="5.33101">
        <ele>188.68706378648</ele>
        <time>2019-03-20T10:54:37Z</time>
      </trkpt>
      <trkpt lat="43.52969" lon="5.33099">
        <ele>188.58753212902</ele>
        <time>2019-03-20T10:54:42Z</time>
      </trkpt>
      <trkpt lat="43.52965" lon="5.33097">
        <ele>188.50669496592</ele>
        <time>2019-03-20T10:54:46Z</time>
      </trkpt>
      <trkpt lat="43.52961" lon="5.33095">
        <ele>188.43351001611</ele>
        <time>2019-03-20T10:54:50Z</time>
      </trkpt>
      <trkpt lat="43.52957" lon="5.33093">
        <ele>188.36331765345</ele>
        <time>2019-03-20T10:54:54Z</time>
      </trkpt>
      <trkpt lat="43.52953" lon="5.33092">
        <ele>188.29308821178</ele>
        <time>2019-03-20T10:54:58Z</time>
      </trkpt>
      <trkpt lat="43.52949" lon="5.33091">
        <ele>188.22257314835</ele>
        <time>2019-03-20T10:55:02Z</time>
      </trkpt>
      <trkpt lat="43.52946" lon="5.33088">
        <ele>188.13849667111</ele>
        <time>2019-03-20T10:55:07Z</time>
      </trkpt>
      <trkpt lat="43.52941" lon="5.33087">
        <ele>188.05501310556</ele>
        <time>2019-03-20T10:55:12Z</time>
      </trkpt>
      <trkpt lat="43.52937" lon="5.33083">
        <ele>187.97662523429</ele>
        <time>2019-03-20T10:55:17Z</time>
      </trkpt>
      <trkpt lat="43.52935" lon="5.33081">
        <ele>187.93593223605</ele>
        <time>2019-03-20T10:55:20Z</time>
      </trkpt>
      <trkpt lat="43.5293" lon="5.33077">
        <ele>187.87758712696</ele>
        <time>2019-03-20T10:55:25Z</time>
      </trkpt>
      <trkpt lat="43.52927" lon="5.33074">
        <ele>187.83920762111</ele>
        <time>2019-03-20T10:55:29Z</time>
      </trkpt>
      <trkpt lat="43.52925" lon="5.3307">
        <ele>187.79784426222</ele>
        <time>2019-03-20T10:55:34Z</time>
      </trkpt>
      <trkpt lat="43.52923" lon="5.33067">
        <ele>187.77429441904</ele>
        <time>2019-03-20T10:55:37Z</time>
      </trkpt>
      <trkpt lat="43.52919" lon="5.33062">
        <ele>187.74079323541</ele>
        <time>2019-03-20T10:55:42Z</time>
      </trkpt>
      <trkpt lat="43.52915" lon="5.33058">
        <ele>187.70917581604</ele>
        <time>2019-03-20T10:55:47Z</time>
      </trkpt>
      <trkpt lat="43.52911" lon="5.33054">
        <ele>187.6886699221</ele>
        <time>2019-03-20T10:55:51Z</time>
      </trkpt>
      <trkpt lat="43.52908" lon="5.33051">
        <ele>187.67453753143</ele>
        <time>2019-03-20T10:55:54Z</time>
      </trkpt>
      <trkpt lat="43.52904" lon="5.33048">
        <ele>187.651679421</ele>
        <time>2019-03-20T10:55:59Z</time>
      </trkpt>
      <trkpt lat="43.52902" lon="5.33044">
        <ele>187.63836602882</ele>
        <time>2019-03-20T10:56:03Z</time>
      </trkpt>
      <trkpt lat="43.52899" lon="5.33041">
        <ele>187.62854500089</ele>
        <time>2019-03-20T10:56:09Z</time>
      </trkpt>
      <trkpt lat="43.52896" lon="5.33037">
        <ele>187.62257810007</ele>
        <time>2019-03-20T10:56:15Z</time>
      </trkpt>
      <trkpt lat="43.52894" lon="5.33034">
        <ele>187.62147245941</ele>
        <time>2019-03-20T10:56:19Z</time>
      </trkpt>
      <trkpt lat="43.52891" lon="5.33031">
        <ele>187.62413236223</ele>
        <time>2019-03-20T10:56:23Z</time>
      </trkpt>
      <trkpt lat="43.52887" lon="5.33028">
        <ele>187.62187364521</ele>
        <time>2019-03-20T10:56:28Z</time>
      </trkpt>
      <trkpt lat="43.52885" lon="5.33024">
        <ele>187.6183219542</ele>
        <time>2019-03-20T10:56:31Z</time>
      </trkpt>
      <trkpt lat="43.52882" lon="5.33019">
        <ele>187.61128793701</ele>
        <time>2019-03-20T10:56:35Z</time>
      </trkpt>
      <trkpt lat="43.52877" lon="5.33014">
        <ele>187.60468161563</ele>
        <time>2019-03-20T10:56:40Z</time>
      </trkpt>
      <trkpt lat="43.52874" lon="5.33011">
        <ele>187.60176507463</ele>
        <time>2019-03-20T10:56:43Z</time>
      </trkpt>
      <trkpt lat="43.52872" lon="5.33006">
        <ele>187.58878931538</ele>
        <time>2019-03-20T10:56:47Z</time>
      </trkpt>
      <trkpt lat="43.5287" lon="5.33001">
        <ele>187.57206543869</ele>
        <time>2019-03-20T10:56:51Z</time>
      </trkpt>
      <trkpt lat="43.52869" lon="5.32995">
        <ele>187.55340521289</ele>
        <time>2019-03-20T10:56:55Z</time>
      </trkpt>
      <trkpt lat="43.52868" lon="5.32991">
        <ele>187.53837201971</ele>
        <time>2019-03-20T10:56:58Z</time>
      </trkpt>
      <trkpt lat="43.52867" lon="5.32986">
        <ele>187.51954904462</ele>
        <time>2019-03-20T10:57:02Z</time>
      </trkpt>
      <trkpt lat="43.52868" lon="5.32982">
        <ele>187.50161457031</ele>
        <time>2019-03-20T10:57:06Z</time>
      </trkpt>
      <trkpt lat="43.52868" lon="5.32975">
        <ele>187.48075701662</ele>
        <time>2019-03-20T10:57:11Z</time>
      </trkpt>
      <trkpt lat="43.52868" lon="5.32969">
        <ele>187.45792841332</ele>
        <time>2019-03-20T10:57:16Z</time>
      </trkpt>
      <trkpt lat="43.52869" lon="5.32961">
        <ele>187.4395589291</ele>
        <time>2019-03-20T10:57:21Z</time>
      </trkpt>
      <trkpt lat="43.5287" lon="5.32953">
        <ele>187.42451595728</ele>
        <time>2019-03-20T10:57:26Z</time>
      </trkpt>
      <trkpt lat="43.52871" lon="5.32947">
        <ele>187.41407811844</ele>
        <time>2019-03-20T10:57:30Z</time>
      </trkpt>
      <trkpt lat="43.52872" lon="5.32941">
        <ele>187.4083055263</ele>
        <time>2019-03-20T10:57:34Z</time>
      </trkpt>
      <trkpt lat="43.52873" lon="5.32935">
        <ele>187.40358467491</ele>
        <time>2019-03-20T10:57:40Z</time>
      </trkpt>
      <trkpt lat="43.52873" lon="5.3293">
        <ele>187.40144556249</ele>
        <time>2019-03-20T10:57:44Z</time>
      </trkpt>
      <trkpt lat="43.52874" lon="5.32924">
        <ele>187.40019025746</ele>
        <time>2019-03-20T10:57:48Z</time>
      </trkpt>
      <trkpt lat="43.52873" lon="5.32918">
        <ele>187.39903042357</ele>
        <time>2019-03-20T10:57:51Z</time>
      </trkpt>
      <trkpt lat="43.52873" lon="5.32912">
        <ele>187.39782387848</ele>
        <time>2019-03-20T10:57:55Z</time>
      </trkpt>
      <trkpt lat="43.52873" lon="5.32906">
        <ele>187.39630698797</ele>
        <time>2019-03-20T10:57:59Z</time>
      </trkpt>
      <trkpt lat="43.52873" lon="5.32899">
        <ele>187.39614693293</ele>
        <time>2019-03-20T10:58:03Z</time>
      </trkpt>
      <trkpt lat="43.52873" lon="5.32893">
        <ele>187.39517879625</ele>
        <time>2019-03-20T10:58:07Z</time>
      </trkpt>
      <trkpt lat="43.52872" lon="5.32889">
        <ele>187.39520829052</ele>
        <time>2019-03-20T10:58:11Z</time>
      </trkpt>
      <trkpt lat="43.52872" lon="5.32883">
        <ele>187.39808590482</ele>
        <time>2019-03-20T10:58:16Z</time>
      </trkpt>
      <trkpt lat="43.52872" lon="5.32877">
        <ele>187.39621159467</ele>
        <time>2019-03-20T10:58:21Z</time>
      </trkpt>
      <trkpt lat="43.52871" lon="5.3287">
        <ele>187.39414823681</ele>
        <time>2019-03-20T10:58:24Z</time>
      </trkpt>
      <trkpt lat="43.52871" lon="5.32864">
        <ele>187.39265356116</ele>
        <time>2019-03-20T10:58:28Z</time>
      </trkpt>
      <trkpt lat="43.52871" lon="5.32855">
        <ele>187.3913457361</ele>
        <time>2019-03-20T10:58:33Z</time>
      </trkpt>
      <trkpt lat="43.52873" lon="5.3285">
        <ele>187.39082852777</ele>
        <time>2019-03-20T10:58:37Z</time>
      </trkpt>
      <trkpt lat="43.52875" lon="5.32845">
        <ele>187.39079651058</ele>
        <time>2019-03-20T10:58:42Z</time>
      </trkpt>
      <trkpt lat="43.52877" lon="5.3284">
        <ele>187.39074818377</ele>
        <time>2019-03-20T10:58:49Z</time>
      </trkpt>
      <trkpt lat="43.52875" lon="5.32837">
        <ele>187.38731318423</ele>
        <time>2019-03-20T10:59:03Z</time>
      </trkpt>
      <trkpt lat="43.52871" lon="5.32834">
        <ele>187.38224890595</ele>
        <time>2019-03-20T10:59:08Z</time>
      </trkpt>
      <trkpt lat="43.52866" lon="5.32831">
        <ele>187.37612104377</ele>
        <time>2019-03-20T10:59:12Z</time>
      </trkpt>
      <trkpt lat="43.52863" lon="5.32828">
        <ele>187.36705375337</ele>
        <time>2019-03-20T10:59:17Z</time>
      </trkpt>
      <trkpt lat="43.52859" lon="5.32828">
        <ele>187.29605884671</ele>
        <time>2019-03-20T10:59:36Z</time>
      </trkpt>
      <trkpt lat="43.52855" lon="5.32831">
        <ele>187.07593730619</ele>
        <time>2019-03-20T11:00:46Z</time>
      </trkpt>
      <trkpt lat="43.52853" lon="5.32826">
        <ele>186.97503071934</ele>
        <time>2019-03-20T11:00:52Z</time>
      </trkpt>
      <trkpt lat="43.52853" lon="5.32815">
        <ele>186.88167649575</ele>
        <time>2019-03-20T11:00:57Z</time>
      </trkpt>
      <trkpt lat="43.52851" lon="5.32807">
        <ele>186.81657934034</ele>
        <time>2019-03-20T11:01:01Z</time>
      </trkpt>
      <trkpt lat="43.5285" lon="5.32799">
        <ele>186.74116985481</ele>
        <time>2019-03-20T11:01:05Z</time>
      </trkpt>
      <trkpt lat="43.52849" lon="5.32792">
        <ele>186.66901868567</ele>
        <time>2019-03-20T11:01:09Z</time>
      </trkpt>
      <trkpt lat="43.5285" lon="5.32786">
        <ele>186.37433877153</ele>
        <time>2019-03-20T11:01:45Z</time>
      </trkpt>
      <trkpt lat="43.52851" lon="5.32778">
        <ele>186.27817038531</ele>
        <time>2019-03-20T11:01:49Z</time>
      </trkpt>
      <trkpt lat="43.52853" lon="5.3277">
        <ele>186.16481927586</ele>
        <time>2019-03-20T11:01:54Z</time>
      </trkpt>
      <trkpt lat="43.52854" lon="5.32762">
        <ele>186.0616936195</ele>
        <time>2019-03-20T11:01:59Z</time>
      </trkpt>
      <trkpt lat="43.52857" lon="5.32758">
        <ele>186.00529877202</ele>
        <time>2019-03-20T11:02:02Z</time>
      </trkpt>
      <trkpt lat="43.5286" lon="5.32753">
        <ele>185.93359815615</ele>
        <time>2019-03-20T11:02:06Z</time>
      </trkpt>
      <trkpt lat="43.52862" lon="5.32747">
        <ele>185.84924831328</ele>
        <time>2019-03-20T11:02:11Z</time>
      </trkpt>
      <trkpt lat="43.52863" lon="5.32743">
        <ele>185.80073815142</ele>
        <time>2019-03-20T11:02:14Z</time>
      </trkpt>
      <trkpt lat="43.52863" lon="5.32738">
        <ele>185.74236823478</ele>
        <time>2019-03-20T11:02:18Z</time>
      </trkpt>
      <trkpt lat="43.52863" lon="5.3273">
        <ele>185.6768559342</ele>
        <time>2019-03-20T11:02:23Z</time>
      </trkpt>
      <trkpt lat="43.52864" lon="5.32722">
        <ele>185.61683494791</ele>
        <time>2019-03-20T11:02:28Z</time>
      </trkpt>
      <trkpt lat="43.52862" lon="5.32717">
        <ele>185.57077582154</ele>
        <time>2019-03-20T11:02:32Z</time>
      </trkpt>
      <trkpt lat="43.52857" lon="5.32712">
        <ele>185.51841186843</ele>
        <time>2019-03-20T11:02:37Z</time>
      </trkpt>
      <trkpt lat="43.52853" lon="5.32708">
        <ele>185.4667095343</ele>
        <time>2019-03-20T11:02:42Z</time>
      </trkpt>
      <trkpt lat="43.5285" lon="5.32705">
        <ele>185.41264808189</ele>
        <time>2019-03-20T11:02:47Z</time>
      </trkpt>
      <trkpt lat="43.52847" lon="5.32703">
        <ele>185.36545612543</ele>
        <time>2019-03-20T11:02:51Z</time>
      </trkpt>
      <trkpt lat="43.52842" lon="5.32703">
        <ele>185.30448398867</ele>
        <time>2019-03-20T11:02:56Z</time>
      </trkpt>
      <trkpt lat="43.52837" lon="5.32703">
        <ele>185.25200270389</ele>
        <time>2019-03-20T11:03:00Z</time>
      </trkpt>
      <trkpt lat="43.52833" lon="5.32703">
        <ele>185.19618803963</ele>
        <time>2019-03-20T11:03:04Z</time>
      </trkpt>
      <trkpt lat="43.52827" lon="5.32702">
        <ele>185.12020166391</ele>
        <time>2019-03-20T11:03:09Z</time>
      </trkpt>
      <trkpt lat="43.52824" lon="5.32701">
        <ele>185.05601109483</ele>
        <time>2019-03-20T11:03:13Z</time>
      </trkpt>
      <trkpt lat="43.5282" lon="5.32699">
        <ele>184.98979882081</ele>
        <time>2019-03-20T11:03:17Z</time>
      </trkpt>
      <trkpt lat="43.52816" lon="5.32696">
        <ele>184.90550578909</ele>
        <time>2019-03-20T11:03:22Z</time>
      </trkpt>
      <trkpt lat="43.52813" lon="5.32694">
        <ele>184.83814395423</ele>
        <time>2019-03-20T11:03:26Z</time>
      </trkpt>
      <trkpt lat="43.52811" lon="5.3269">
        <ele>184.77389171494</ele>
        <time>2019-03-20T11:03:30Z</time>
      </trkpt>
      <trkpt lat="43.52808" lon="5.32685">
        <ele>184.71282996872</ele>
        <time>2019-03-20T11:03:34Z</time>
      </trkpt>
      <trkpt lat="43.52806" lon="5.32682">
        <ele>184.65530443823</ele>
        <time>2019-03-20T11:03:38Z</time>
      </trkpt>
      <trkpt lat="43.52803" lon="5.32676">
        <ele>184.59076386763</ele>
        <time>2019-03-20T11:03:43Z</time>
      </trkpt>
      <trkpt lat="43.52801" lon="5.32673">
        <ele>184.54436226947</ele>
        <time>2019-03-20T11:03:47Z</time>
      </trkpt>
      <trkpt lat="43.52798" lon="5.32668">
        <ele>184.50169699129</ele>
        <time>2019-03-20T11:03:51Z</time>
      </trkpt>
      <trkpt lat="43.52794" lon="5.32666">
        <ele>184.45961954713</ele>
        <time>2019-03-20T11:03:55Z</time>
      </trkpt>
      <trkpt lat="43.52789" lon="5.32666">
        <ele>184.39875282775</ele>
        <time>2019-03-20T11:04:00Z</time>
      </trkpt>
      <trkpt lat="43.52784" lon="5.32664">
        <ele>184.33865050531</ele>
        <time>2019-03-20T11:04:05Z</time>
      </trkpt>
      <trkpt lat="43.52781" lon="5.32662">
        <ele>184.2897418244</ele>
        <time>2019-03-20T11:04:09Z</time>
      </trkpt>
      <trkpt lat="43.52777" lon="5.3266">
        <ele>184.23978601459</ele>
        <time>2019-03-20T11:04:13Z</time>
      </trkpt>
      <trkpt lat="43.52774" lon="5.32658">
        <ele>184.17895919605</ele>
        <time>2019-03-20T11:04:18Z</time>
      </trkpt>
      <trkpt lat="43.5277" lon="5.32654">
        <ele>184.12557572646</ele>
        <time>2019-03-20T11:04:23Z</time>
      </trkpt>
      <trkpt lat="43.52767" lon="5.32651">
        <ele>184.08883491493</ele>
        <time>2019-03-20T11:04:27Z</time>
      </trkpt>
      <trkpt lat="43.52765" lon="5.32649">
        <ele>184.06432111945</ele>
        <time>2019-03-20T11:04:30Z</time>
      </trkpt>
      <trkpt lat="43.52762" lon="5.32642">
        <ele>184.02786237546</ele>
        <time>2019-03-20T11:04:35Z</time>
      </trkpt>
      <trkpt lat="43.52759" lon="5.32635">
        <ele>183.99556290341</ele>
        <time>2019-03-20T11:04:40Z</time>
      </trkpt>
      <trkpt lat="43.52757" lon="5.3263">
        <ele>183.97677073817</ele>
        <time>2019-03-20T11:04:44Z</time>
      </trkpt>
      <trkpt lat="43.52756" lon="5.32624">
        <ele>183.96923275826</ele>
        <time>2019-03-20T11:04:48Z</time>
      </trkpt>
      <trkpt lat="43.52754" lon="5.32618">
        <ele>183.96802821515</ele>
        <time>2019-03-20T11:04:52Z</time>
      </trkpt>
      <trkpt lat="43.52754" lon="5.32613">
        <ele>183.97890086771</ele>
        <time>2019-03-20T11:04:58Z</time>
      </trkpt>
      <trkpt lat="43.52753" lon="5.32607">
        <ele>183.99140613888</ele>
        <time>2019-03-20T11:05:03Z</time>
      </trkpt>
      <trkpt lat="43.52752" lon="5.32602">
        <ele>184.0047384874</ele>
        <time>2019-03-20T11:05:07Z</time>
      </trkpt>
      <trkpt lat="43.52752" lon="5.32595">
        <ele>184.02410883814</ele>
        <time>2019-03-20T11:05:11Z</time>
      </trkpt>
      <trkpt lat="43.52751" lon="5.32584">
        <ele>184.05506241649</ele>
        <time>2019-03-20T11:05:16Z</time>
      </trkpt>
      <trkpt lat="43.5275" lon="5.32577">
        <ele>184.09558130759</ele>
        <time>2019-03-20T11:05:21Z</time>
      </trkpt>
      <trkpt lat="43.5275" lon="5.32573">
        <ele>184.12710343996</ele>
        <time>2019-03-20T11:05:25Z</time>
      </trkpt>
      <trkpt lat="43.52749" lon="5.32566">
        <ele>184.16544300838</ele>
        <time>2019-03-20T11:05:30Z</time>
      </trkpt>
      <trkpt lat="43.52749" lon="5.32561">
        <ele>184.2164283459</ele>
        <time>2019-03-20T11:05:37Z</time>
      </trkpt>
      <trkpt lat="43.52749" lon="5.32555">
        <ele>184.25761339324</ele>
        <time>2019-03-20T11:05:43Z</time>
      </trkpt>
      <trkpt lat="43.5275" lon="5.32548">
        <ele>184.28777740324</ele>
        <time>2019-03-20T11:05:48Z</time>
      </trkpt>
      <trkpt lat="43.52751" lon="5.32539">
        <ele>184.31854075766</ele>
        <time>2019-03-20T11:05:53Z</time>
      </trkpt>
      <trkpt lat="43.5275" lon="5.32531">
        <ele>184.350864007</ele>
        <time>2019-03-20T11:05:58Z</time>
      </trkpt>
      <trkpt lat="43.5275" lon="5.32527">
        <ele>184.37207953127</ele>
        <time>2019-03-20T11:06:01Z</time>
      </trkpt>
      <trkpt lat="43.5275" lon="5.32521">
        <ele>184.40700395077</ele>
        <time>2019-03-20T11:06:06Z</time>
      </trkpt>
      <trkpt lat="43.5275" lon="5.32516">
        <ele>184.43527182283</ele>
        <time>2019-03-20T11:06:10Z</time>
      </trkpt>
      <trkpt lat="43.5275" lon="5.3251">
        <ele>184.46157799709</ele>
        <time>2019-03-20T11:06:14Z</time>
      </trkpt>
      <trkpt lat="43.5275" lon="5.32503">
        <ele>184.49245277707</ele>
        <time>2019-03-20T11:06:19Z</time>
      </trkpt>
      <trkpt lat="43.52749" lon="5.32496">
        <ele>184.51641007504</ele>
        <time>2019-03-20T11:06:24Z</time>
      </trkpt>
      <trkpt lat="43.52749" lon="5.32493">
        <ele>184.52832673838</ele>
        <time>2019-03-20T11:06:27Z</time>
      </trkpt>
      <trkpt lat="43.52749" lon="5.32487">
        <ele>184.54032458971</ele>
        <time>2019-03-20T11:06:31Z</time>
      </trkpt>
      <trkpt lat="43.52749" lon="5.3248">
        <ele>184.5504654784</ele>
        <time>2019-03-20T11:06:35Z</time>
      </trkpt>
      <trkpt lat="43.52747" lon="5.32473">
        <ele>184.56704674161</ele>
        <time>2019-03-20T11:06:40Z</time>
      </trkpt>
      <trkpt lat="43.52745" lon="5.32466">
        <ele>184.58060145842</ele>
        <time>2019-03-20T11:06:43Z</time>
      </trkpt>
      <trkpt lat="43.52743" lon="5.3246">
        <ele>184.60214038563</ele>
        <time>2019-03-20T11:06:47Z</time>
      </trkpt>
      <trkpt lat="43.5274" lon="5.32455">
        <ele>184.63218421518</ele>
        <time>2019-03-20T11:06:52Z</time>
      </trkpt>
      <trkpt lat="43.52739" lon="5.32451">
        <ele>184.65692393531</ele>
        <time>2019-03-20T11:06:56Z</time>
      </trkpt>
      <trkpt lat="43.52737" lon="5.32446">
        <ele>184.68290564649</ele>
        <time>2019-03-20T11:07:01Z</time>
      </trkpt>
      <trkpt lat="43.52734" lon="5.32442">
        <ele>184.69383087858</ele>
        <time>2019-03-20T11:07:05Z</time>
      </trkpt>
      <trkpt lat="43.52731" lon="5.32437">
        <ele>184.69061046452</ele>
        <time>2019-03-20T11:07:09Z</time>
      </trkpt>
      <trkpt lat="43.52727" lon="5.32433">
        <ele>184.68076063226</ele>
        <time>2019-03-20T11:07:13Z</time>
      </trkpt>
      <trkpt lat="43.52725" lon="5.32429">
        <ele>184.67026001988</ele>
        <time>2019-03-20T11:07:17Z</time>
      </trkpt>
      <trkpt lat="43.52723" lon="5.32422">
        <ele>184.66104690401</ele>
        <time>2019-03-20T11:07:21Z</time>
      </trkpt>
      <trkpt lat="43.52721" lon="5.32416">
        <ele>184.65418634959</ele>
        <time>2019-03-20T11:07:25Z</time>
      </trkpt>
      <trkpt lat="43.52719" lon="5.32411">
        <ele>184.64779450229</ele>
        <time>2019-03-20T11:07:29Z</time>
      </trkpt>
      <trkpt lat="43.52715" lon="5.32401">
        <ele>184.64272586976</ele>
        <time>2019-03-20T11:07:34Z</time>
      </trkpt>
      <trkpt lat="43.52712" lon="5.32395">
        <ele>184.64187447928</ele>
        <time>2019-03-20T11:07:38Z</time>
      </trkpt>
      <trkpt lat="43.52709" lon="5.32391">
        <ele>184.64321266525</ele>
        <time>2019-03-20T11:07:42Z</time>
      </trkpt>
      <trkpt lat="43.52706" lon="5.32387">
        <ele>184.64589837992</ele>
        <time>2019-03-20T11:07:46Z</time>
      </trkpt>
      <trkpt lat="43.52703" lon="5.32383">
        <ele>184.64883360131</ele>
        <time>2019-03-20T11:07:54Z</time>
      </trkpt>
      <trkpt lat="43.52702" lon="5.3238">
        <ele>184.64974459739</ele>
        <time>2019-03-20T11:07:57Z</time>
      </trkpt>
      <trkpt lat="43.52699" lon="5.32375">
        <ele>184.64908175008</ele>
        <time>2019-03-20T11:08:02Z</time>
      </trkpt>
      <trkpt lat="43.52696" lon="5.3237">
        <ele>184.6449254184</ele>
        <time>2019-03-20T11:08:07Z</time>
      </trkpt>
      <trkpt lat="43.52693" lon="5.32367">
        <ele>184.64155095896</ele>
        <time>2019-03-20T11:08:11Z</time>
      </trkpt>
      <trkpt lat="43.52691" lon="5.32362">
        <ele>184.63532928355</ele>
        <time>2019-03-20T11:08:17Z</time>
      </trkpt>
      <trkpt lat="43.52689" lon="5.32358">
        <ele>184.62945270862</ele>
        <time>2019-03-20T11:08:21Z</time>
      </trkpt>
      <trkpt lat="43.52688" lon="5.3235">
        <ele>184.60693072861</ele>
        <time>2019-03-20T11:08:26Z</time>
      </trkpt>
      <trkpt lat="43.52686" lon="5.32347">
        <ele>184.5834283475</ele>
        <time>2019-03-20T11:08:29Z</time>
      </trkpt>
      <trkpt lat="43.52682" lon="5.32341">
        <ele>184.54289332168</ele>
        <time>2019-03-20T11:08:33Z</time>
      </trkpt>
      <trkpt lat="43.52679" lon="5.32338">
        <ele>184.51081899537</ele>
        <time>2019-03-20T11:08:36Z</time>
      </trkpt>
      <trkpt lat="43.52677" lon="5.32332">
        <ele>184.4668412248</ele>
        <time>2019-03-20T11:08:40Z</time>
      </trkpt>
      <trkpt lat="43.52675" lon="5.32328">
        <ele>184.40493573058</ele>
        <time>2019-03-20T11:08:45Z</time>
      </trkpt>
      <trkpt lat="43.52672" lon="5.32324">
        <ele>184.3374149624</ele>
        <time>2019-03-20T11:08:50Z</time>
      </trkpt>
      <trkpt lat="43.52667" lon="5.32317">
        <ele>184.26796172518</ele>
        <time>2019-03-20T11:08:55Z</time>
      </trkpt>
      <trkpt lat="43.52665" lon="5.32312">
        <ele>184.2165051054</ele>
        <time>2019-03-20T11:08:59Z</time>
      </trkpt>
      <trkpt lat="43.52661" lon="5.32306">
        <ele>184.15708326348</ele>
        <time>2019-03-20T11:09:04Z</time>
      </trkpt>
      <trkpt lat="43.52659" lon="5.323">
        <ele>184.10943889192</ele>
        <time>2019-03-20T11:09:08Z</time>
      </trkpt>
      <trkpt lat="43.52658" lon="5.32296">
        <ele>184.0574916794</ele>
        <time>2019-03-20T11:09:12Z</time>
      </trkpt>
      <trkpt lat="43.52657" lon="5.3229">
        <ele>183.98488307818</ele>
        <time>2019-03-20T11:09:17Z</time>
      </trkpt>
      <trkpt lat="43.52655" lon="5.32285">
        <ele>183.91364080422</ele>
        <time>2019-03-20T11:09:22Z</time>
      </trkpt>
      <trkpt lat="43.52652" lon="5.32279">
        <ele>183.85999470941</ele>
        <time>2019-03-20T11:09:26Z</time>
      </trkpt>
      <trkpt lat="43.52648" lon="5.32271">
        <ele>183.80461388454</ele>
        <time>2019-03-20T11:09:30Z</time>
      </trkpt>
      <trkpt lat="43.52646" lon="5.32268">
        <ele>183.75998197243</ele>
        <time>2019-03-20T11:09:33Z</time>
      </trkpt>
      <trkpt lat="43.52643" lon="5.32262">
        <ele>183.70119541374</ele>
        <time>2019-03-20T11:09:37Z</time>
      </trkpt>
      <trkpt lat="43.5264" lon="5.32254">
        <ele>183.63181076133</ele>
        <time>2019-03-20T11:09:42Z</time>
      </trkpt>
      <trkpt lat="43.52638" lon="5.32248">
        <ele>183.58012725703</ele>
        <time>2019-03-20T11:09:46Z</time>
      </trkpt>
      <trkpt lat="43.52636" lon="5.32242">
        <ele>183.51909993709</ele>
        <time>2019-03-20T11:09:51Z</time>
      </trkpt>
      <trkpt lat="43.52634" lon="5.32239">
        <ele>183.47057401207</ele>
        <time>2019-03-20T11:09:55Z</time>
      </trkpt>
      <trkpt lat="43.52631" lon="5.32235">
        <ele>183.42148378313</ele>
        <time>2019-03-20T11:09:59Z</time>
      </trkpt>
      <trkpt lat="43.52627" lon="5.3223">
        <ele>183.36499822498</ele>
        <time>2019-03-20T11:10:04Z</time>
      </trkpt>
      <trkpt lat="43.52622" lon="5.32226">
        <ele>183.30925235795</ele>
        <time>2019-03-20T11:10:09Z</time>
      </trkpt>
      <trkpt lat="43.52617" lon="5.32222">
        <ele>183.26529302577</ele>
        <time>2019-03-20T11:10:13Z</time>
      </trkpt>
      <trkpt lat="43.52611" lon="5.32219">
        <ele>183.21375190996</ele>
        <time>2019-03-20T11:10:18Z</time>
      </trkpt>
      <trkpt lat="43.52607" lon="5.32219">
        <ele>183.17205296861</ele>
        <time>2019-03-20T11:10:22Z</time>
      </trkpt>
      <trkpt lat="43.52602" lon="5.32219">
        <ele>183.13163501002</ele>
        <time>2019-03-20T11:10:26Z</time>
      </trkpt>
      <trkpt lat="43.52596" lon="5.32219">
        <ele>183.07929115571</ele>
        <time>2019-03-20T11:10:31Z</time>
      </trkpt>
      <trkpt lat="43.52592" lon="5.32219">
        <ele>183.02828235832</ele>
        <time>2019-03-20T11:10:36Z</time>
      </trkpt>
      <trkpt lat="43.52589" lon="5.32218">
        <ele>182.98941269541</ele>
        <time>2019-03-20T11:10:40Z</time>
      </trkpt>
      <trkpt lat="43.52586" lon="5.32219">
        <ele>182.95278393752</ele>
        <time>2019-03-20T11:10:44Z</time>
      </trkpt>
      <trkpt lat="43.5258" lon="5.32223">
        <ele>182.90722981643</ele>
        <time>2019-03-20T11:10:49Z</time>
      </trkpt>
      <trkpt lat="43.52575" lon="5.32225">
        <ele>182.87197310671</ele>
        <time>2019-03-20T11:10:53Z</time>
      </trkpt>
      <trkpt lat="43.52571" lon="5.32227">
        <ele>182.83577690439</ele>
        <time>2019-03-20T11:10:57Z</time>
      </trkpt>
      <trkpt lat="43.52566" lon="5.32228">
        <ele>182.80100480054</ele>
        <time>2019-03-20T11:11:01Z</time>
      </trkpt>
      <trkpt lat="43.52563" lon="5.32228">
        <ele>182.77556966205</ele>
        <time>2019-03-20T11:11:04Z</time>
      </trkpt>
      <trkpt lat="43.52558" lon="5.32227">
        <ele>182.7331280347</ele>
        <time>2019-03-20T11:11:09Z</time>
      </trkpt>
      <trkpt lat="43.52554" lon="5.32226">
        <ele>182.68977647528</ele>
        <time>2019-03-20T11:11:14Z</time>
      </trkpt>
      <trkpt lat="43.52551" lon="5.32226">
        <ele>182.65469721904</ele>
        <time>2019-03-20T11:11:18Z</time>
      </trkpt>
      <trkpt lat="43.52545" lon="5.32228">
        <ele>182.61776567392</ele>
        <time>2019-03-20T11:11:22Z</time>
      </trkpt>
      <trkpt lat="43.52539" lon="5.3223">
        <ele>182.57810006746</ele>
        <time>2019-03-20T11:11:26Z</time>
      </trkpt>
      <trkpt lat="43.52533" lon="5.32233">
        <ele>182.53464203228</ele>
        <time>2019-03-20T11:11:30Z</time>
      </trkpt>
      <trkpt lat="43.52524" lon="5.32233">
        <ele>182.48730197887</ele>
        <time>2019-03-20T11:11:34Z</time>
      </trkpt>
      <trkpt lat="43.52519" lon="5.32232">
        <ele>182.43131742314</ele>
        <time>2019-03-20T11:11:38Z</time>
      </trkpt>
      <trkpt lat="43.52513" lon="5.3223">
        <ele>182.36572390314</ele>
        <time>2019-03-20T11:11:42Z</time>
      </trkpt>
      <trkpt lat="43.52508" lon="5.32226">
        <ele>182.29826406449</ele>
        <time>2019-03-20T11:11:46Z</time>
      </trkpt>
      <trkpt lat="43.52503" lon="5.32223">
        <ele>182.2135628789</ele>
        <time>2019-03-20T11:11:51Z</time>
      </trkpt>
      <trkpt lat="43.52499" lon="5.32222">
        <ele>182.14499558205</ele>
        <time>2019-03-20T11:11:55Z</time>
      </trkpt>
      <trkpt lat="43.52496" lon="5.32219">
        <ele>182.07933256103</ele>
        <time>2019-03-20T11:11:59Z</time>
      </trkpt>
      <trkpt lat="43.52492" lon="5.32216">
        <ele>182.00421683331</ele>
        <time>2019-03-20T11:12:04Z</time>
      </trkpt>
      <trkpt lat="43.52489" lon="5.32213">
        <ele>181.96161414252</ele>
        <time>2019-03-20T11:12:07Z</time>
      </trkpt>
      <trkpt lat="43.52484" lon="5.3221">
        <ele>181.90730932775</ele>
        <time>2019-03-20T11:12:11Z</time>
      </trkpt>
      <trkpt lat="43.52478" lon="5.32206">
        <ele>181.8437642941</ele>
        <time>2019-03-20T11:12:16Z</time>
      </trkpt>
      <trkpt lat="43.52474" lon="5.32203">
        <ele>181.79531486994</ele>
        <time>2019-03-20T11:12:20Z</time>
      </trkpt>
      <trkpt lat="43.52471" lon="5.322">
        <ele>181.74633529023</ele>
        <time>2019-03-20T11:12:24Z</time>
      </trkpt>
      <trkpt lat="43.52467" lon="5.32197">
        <ele>181.69973554319</ele>
        <time>2019-03-20T11:12:28Z</time>
      </trkpt>
      <trkpt lat="43.52462" lon="5.32193">
        <ele>181.64450562611</ele>
        <time>2019-03-20T11:12:33Z</time>
      </trkpt>
      <trkpt lat="43.52459" lon="5.32191">
        <ele>181.61109682271</ele>
        <time>2019-03-20T11:12:36Z</time>
      </trkpt>
      <trkpt lat="43.52452" lon="5.32189">
        <ele>181.55539758588</ele>
        <time>2019-03-20T11:12:41Z</time>
      </trkpt>
      <trkpt lat="43.52448" lon="5.32187">
        <ele>181.50916548831</ele>
        <time>2019-03-20T11:12:45Z</time>
      </trkpt>
      <trkpt lat="43.52444" lon="5.32183">
        <ele>181.46568691256</ele>
        <time>2019-03-20T11:12:49Z</time>
      </trkpt>
      <trkpt lat="43.52442" lon="5.32179">
        <ele>181.40564828705</ele>
        <time>2019-03-20T11:12:55Z</time>
      </trkpt>
      <trkpt lat="43.52438" lon="5.32173">
        <ele>181.37073222368</ele>
        <time>2019-03-20T11:12:59Z</time>
      </trkpt>
      <trkpt lat="43.52435" lon="5.32169">
        <ele>181.34495872683</ele>
        <time>2019-03-20T11:13:02Z</time>
      </trkpt>
      <trkpt lat="43.52432" lon="5.32162">
        <ele>181.29689288235</ele>
        <time>2019-03-20T11:13:07Z</time>
      </trkpt>
      <trkpt lat="43.5243" lon="5.32156">
        <ele>181.26324065612</ele>
        <time>2019-03-20T11:13:11Z</time>
      </trkpt>
      <trkpt lat="43.52429" lon="5.32151">
        <ele>181.23406585513</ele>
        <time>2019-03-20T11:13:15Z</time>
      </trkpt>
      <trkpt lat="43.52426" lon="5.32142">
        <ele>181.20077164054</ele>
        <time>2019-03-20T11:13:20Z</time>
      </trkpt>
      <trkpt lat="43.52425" lon="5.32137">
        <ele>181.18350016539</ele>
        <time>2019-03-20T11:13:23Z</time>
      </trkpt>
      <trkpt lat="43.52425" lon="5.32131">
        <ele>181.16467767371</ele>
        <time>2019-03-20T11:13:27Z</time>
      </trkpt>
      <trkpt lat="43.52424" lon="5.32123">
        <ele>181.1447942858</ele>
        <time>2019-03-20T11:13:32Z</time>
      </trkpt>
      <trkpt lat="43.52424" lon="5.32117">
        <ele>181.13581075958</ele>
        <time>2019-03-20T11:13:35Z</time>
      </trkpt>
      <trkpt lat="43.52425" lon="5.32109">
        <ele>181.11192130293</ele>
        <time>2019-03-20T11:13:40Z</time>
      </trkpt>
      <trkpt lat="43.52426" lon="5.32101">
        <ele>181.09062691559</ele>
        <time>2019-03-20T11:13:44Z</time>
      </trkpt>
      <trkpt lat="43.52425" lon="5.32094">
        <ele>181.07376064929</ele>
        <time>2019-03-20T11:13:48Z</time>
      </trkpt>
      <trkpt lat="43.52425" lon="5.32086">
        <ele>181.05793381816</ele>
        <time>2019-03-20T11:13:53Z</time>
      </trkpt>
      <trkpt lat="43.52425" lon="5.3208">
        <ele>181.04664491671</ele>
        <time>2019-03-20T11:13:56Z</time>
      </trkpt>
      <trkpt lat="43.52426" lon="5.32074">
        <ele>181.0334651503</ele>
        <time>2019-03-20T11:13:59Z</time>
      </trkpt>
      <trkpt lat="43.52427" lon="5.32066">
        <ele>181.01428717734</ele>
        <time>2019-03-20T11:14:03Z</time>
      </trkpt>
      <trkpt lat="43.52429" lon="5.32059">
        <ele>180.98847412006</ele>
        <time>2019-03-20T11:14:08Z</time>
      </trkpt>
      <trkpt lat="43.5243" lon="5.32054">
        <ele>180.95684959116</ele>
        <time>2019-03-20T11:14:13Z</time>
      </trkpt>
      <trkpt lat="43.52431" lon="5.32048">
        <ele>180.92315061933</ele>
        <time>2019-03-20T11:14:18Z</time>
      </trkpt>
      <trkpt lat="43.52431" lon="5.32043">
        <ele>180.90046897002</ele>
        <time>2019-03-20T11:14:22Z</time>
      </trkpt>
      <trkpt lat="43.52432" lon="5.32035">
        <ele>180.87287412935</ele>
        <time>2019-03-20T11:14:27Z</time>
      </trkpt>
      <trkpt lat="43.52432" lon="5.32028">
        <ele>180.84849855941</ele>
        <time>2019-03-20T11:14:31Z</time>
      </trkpt>
      <trkpt lat="43.52433" lon="5.32021">
        <ele>180.82481061297</ele>
        <time>2019-03-20T11:14:35Z</time>
      </trkpt>
      <trkpt lat="43.52435" lon="5.32015">
        <ele>180.80201428645</ele>
        <time>2019-03-20T11:14:39Z</time>
      </trkpt>
      <trkpt lat="43.52436" lon="5.3201">
        <ele>180.77584784314</ele>
        <time>2019-03-20T11:14:44Z</time>
      </trkpt>
      <trkpt lat="43.52437" lon="5.32002">
        <ele>180.7531453631</ele>
        <time>2019-03-20T11:14:49Z</time>
      </trkpt>
      <trkpt lat="43.52439" lon="5.31997">
        <ele>180.73953342286</ele>
        <time>2019-03-20T11:14:52Z</time>
      </trkpt>
      <trkpt lat="43.52441" lon="5.31992">
        <ele>180.72521149241</ele>
        <time>2019-03-20T11:14:55Z</time>
      </trkpt>
      <trkpt lat="43.52444" lon="5.31988">
        <ele>180.7063047096</ele>
        <time>2019-03-20T11:14:59Z</time>
      </trkpt>
      <trkpt lat="43.52446" lon="5.31984">
        <ele>180.69007387808</ele>
        <time>2019-03-20T11:15:03Z</time>
      </trkpt>
      <trkpt lat="43.52449" lon="5.3198">
        <ele>180.67473196654</ele>
        <time>2019-03-20T11:15:07Z</time>
      </trkpt>
      <trkpt lat="43.52451" lon="5.31975">
        <ele>180.6589958392</ele>
        <time>2019-03-20T11:15:11Z</time>
      </trkpt>
      <trkpt lat="43.52452" lon="5.3197">
        <ele>180.64245104971</ele>
        <time>2019-03-20T11:15:15Z</time>
      </trkpt>
      <trkpt lat="43.5245" lon="5.31964">
        <ele>180.62753079921</ele>
        <time>2019-03-20T11:15:19Z</time>
      </trkpt>
      <trkpt lat="43.52448" lon="5.31956">
        <ele>180.61152161346</ele>
        <time>2019-03-20T11:15:23Z</time>
      </trkpt>
      <trkpt lat="43.52448" lon="5.31952">
        <ele>180.59351560631</ele>
        <time>2019-03-20T11:15:27Z</time>
      </trkpt>
      <trkpt lat="43.5245" lon="5.31945">
        <ele>180.57432239352</ele>
        <time>2019-03-20T11:15:31Z</time>
      </trkpt>
      <trkpt lat="43.52451" lon="5.3194">
        <ele>180.56109669635</ele>
        <time>2019-03-20T11:15:34Z</time>
      </trkpt>
      <trkpt lat="43.52451" lon="5.31934">
        <ele>180.53981648004</ele>
        <time>2019-03-20T11:15:39Z</time>
      </trkpt>
      <trkpt lat="43.52451" lon="5.31926">
        <ele>180.51894952986</ele>
        <time>2019-03-20T11:15:44Z</time>
      </trkpt>
      <trkpt lat="43.52451" lon="5.31921">
        <ele>180.5074825954</ele>
        <time>2019-03-20T11:15:47Z</time>
      </trkpt>
      <trkpt lat="43.52449" lon="5.31915">
        <ele>180.49279379201</ele>
        <time>2019-03-20T11:15:51Z</time>
      </trkpt>
      <trkpt lat="43.52444" lon="5.31908">
        <ele>180.47398109389</ele>
        <time>2019-03-20T11:15:56Z</time>
      </trkpt>
      <trkpt lat="43.52439" lon="5.31902">
        <ele>180.45512987832</ele>
        <time>2019-03-20T11:16:01Z</time>
      </trkpt>
      <trkpt lat="43.52436" lon="5.319">
        <ele>180.4401025354</ele>
        <time>2019-03-20T11:16:05Z</time>
      </trkpt>
      <trkpt lat="43.52432" lon="5.31898">
        <ele>180.42583189975</ele>
        <time>2019-03-20T11:16:09Z</time>
      </trkpt>
      <trkpt lat="43.52428" lon="5.31895">
        <ele>180.40708900023</ele>
        <time>2019-03-20T11:16:14Z</time>
      </trkpt>
      <trkpt lat="43.52425" lon="5.31894">
        <ele>180.39554587332</ele>
        <time>2019-03-20T11:16:17Z</time>
      </trkpt>
      <trkpt lat="43.52417" lon="5.31892">
        <ele>180.37603118379</ele>
        <time>2019-03-20T11:16:22Z</time>
      </trkpt>
      <trkpt lat="43.52412" lon="5.3189">
        <ele>180.35868305325</ele>
        <time>2019-03-20T11:16:26Z</time>
      </trkpt>
      <trkpt lat="43.52408" lon="5.31886">
        <ele>180.3397749644</ele>
        <time>2019-03-20T11:16:30Z</time>
      </trkpt>
      <trkpt lat="43.52404" lon="5.3188">
        <ele>180.31808808658</ele>
        <time>2019-03-20T11:16:34Z</time>
      </trkpt>
      <trkpt lat="43.52402" lon="5.31874">
        <ele>180.29527891987</ele>
        <time>2019-03-20T11:16:38Z</time>
      </trkpt>
      <trkpt lat="43.524" lon="5.31865">
        <ele>180.26548747118</ele>
        <time>2019-03-20T11:16:43Z</time>
      </trkpt>
      <trkpt lat="43.52399" lon="5.31859">
        <ele>180.24139144435</ele>
        <time>2019-03-20T11:16:47Z</time>
      </trkpt>
      <trkpt lat="43.52399" lon="5.31853">
        <ele>180.21726697845</ele>
        <time>2019-03-20T11:16:51Z</time>
      </trkpt>
      <trkpt lat="43.52401" lon="5.31847">
        <ele>180.18912930153</ele>
        <time>2019-03-20T11:16:56Z</time>
      </trkpt>
      <trkpt lat="43.52402" lon="5.31841">
        <ele>180.167268834</ele>
        <time>2019-03-20T11:17:00Z</time>
      </trkpt>
      <trkpt lat="43.52403" lon="5.31834">
        <ele>180.14408565056</ele>
        <time>2019-03-20T11:17:04Z</time>
      </trkpt>
      <trkpt lat="43.52404" lon="5.31828">
        <ele>180.12144747078</ele>
        <time>2019-03-20T11:17:08Z</time>
      </trkpt>
      <trkpt lat="43.52405" lon="5.31825">
        <ele>180.10436174571</ele>
        <time>2019-03-20T11:17:11Z</time>
      </trkpt>
      <trkpt lat="43.52404" lon="5.31819">
        <ele>180.08059659861</ele>
        <time>2019-03-20T11:17:15Z</time>
      </trkpt>
      <trkpt lat="43.52402" lon="5.31814">
        <ele>180.05779905896</ele>
        <time>2019-03-20T11:17:19Z</time>
      </trkpt>
      <trkpt lat="43.524" lon="5.3181">
        <ele>180.03653542565</ele>
        <time>2019-03-20T11:17:23Z</time>
      </trkpt>
      <trkpt lat="43.52397" lon="5.31806">
        <ele>180.00136998144</ele>
        <time>2019-03-20T11:17:28Z</time>
      </trkpt>
      <trkpt lat="43.52395" lon="5.31804">
        <ele>179.97781110049</ele>
        <time>2019-03-20T11:17:31Z</time>
      </trkpt>
      <trkpt lat="43.52392" lon="5.318">
        <ele>179.94399796323</ele>
        <time>2019-03-20T11:17:35Z</time>
      </trkpt>
      <trkpt lat="43.52388" lon="5.31796">
        <ele>179.90553902201</ele>
        <time>2019-03-20T11:17:39Z</time>
      </trkpt>
      <trkpt lat="43.52382" lon="5.31786">
        <ele>179.84196925631</ele>
        <time>2019-03-20T11:17:44Z</time>
      </trkpt>
      <trkpt lat="43.52378" lon="5.31778">
        <ele>179.76524798031</ele>
        <time>2019-03-20T11:17:49Z</time>
      </trkpt>
      <trkpt lat="43.52376" lon="5.31772">
        <ele>179.68787337204</ele>
        <time>2019-03-20T11:17:54Z</time>
      </trkpt>
      <trkpt lat="43.52374" lon="5.31767">
        <ele>179.6098993631</ele>
        <time>2019-03-20T11:17:59Z</time>
      </trkpt>
      <trkpt lat="43.52371" lon="5.31763">
        <ele>179.54493878053</ele>
        <time>2019-03-20T11:18:03Z</time>
      </trkpt>
      <trkpt lat="43.52369" lon="5.31759">
        <ele>179.45797488516</ele>
        <time>2019-03-20T11:18:08Z</time>
      </trkpt>
      <trkpt lat="43.52366" lon="5.31752">
        <ele>179.36941369734</ele>
        <time>2019-03-20T11:18:13Z</time>
      </trkpt>
      <trkpt lat="43.52365" lon="5.31747">
        <ele>179.30239816914</ele>
        <time>2019-03-20T11:18:17Z</time>
      </trkpt>
      <trkpt lat="43.52363" lon="5.31743">
        <ele>179.25393369257</ele>
        <time>2019-03-20T11:18:20Z</time>
      </trkpt>
      <trkpt lat="43.5236" lon="5.31738">
        <ele>179.19241365395</ele>
        <time>2019-03-20T11:18:24Z</time>
      </trkpt>
      <trkpt lat="43.52358" lon="5.31733">
        <ele>179.1484157103</ele>
        <time>2019-03-20T11:18:27Z</time>
      </trkpt>
      <trkpt lat="43.52356" lon="5.31728">
        <ele>179.09257661825</ele>
        <time>2019-03-20T11:18:31Z</time>
      </trkpt>
      <trkpt lat="43.52355" lon="5.31722">
        <ele>178.97043797278</ele>
        <time>2019-03-20T11:18:47Z</time>
      </trkpt>
      <trkpt lat="43.52356" lon="5.31717">
        <ele>178.44428946667</ele>
        <time>2019-03-20T11:21:01Z</time>
      </trkpt>
      <trkpt lat="43.52356" lon="5.31711">
        <ele>178.32146052762</ele>
        <time>2019-03-20T11:21:17Z</time>
      </trkpt>
      <trkpt lat="43.52355" lon="5.31705">
        <ele>178.14854693464</ele>
        <time>2019-03-20T11:21:25Z</time>
      </trkpt>
      <trkpt lat="43.52356" lon="5.31699">
        <ele>177.67503391478</ele>
        <time>2019-03-20T11:22:26Z</time>
      </trkpt>
      <trkpt lat="43.52356" lon="5.31694">
        <ele>177.55752495167</ele>
        <time>2019-03-20T11:22:34Z</time>
      </trkpt>
      <trkpt lat="43.52355" lon="5.31687">
        <ele>177.48951865045</ele>
        <time>2019-03-20T11:22:39Z</time>
      </trkpt>
      <trkpt lat="43.52353" lon="5.31682">
        <ele>177.438385092</ele>
        <time>2019-03-20T11:22:43Z</time>
      </trkpt>
      <trkpt lat="43.52351" lon="5.31677">
        <ele>177.32719228703</ele>
        <time>2019-03-20T11:22:52Z</time>
      </trkpt>
      <trkpt lat="43.52349" lon="5.31672">
        <ele>177.23971137363</ele>
        <time>2019-03-20T11:22:59Z</time>
      </trkpt>
      <trkpt lat="43.52346" lon="5.3167">
        <ele>177.16635022539</ele>
        <time>2019-03-20T11:23:05Z</time>
      </trkpt>
      <trkpt lat="43.52343" lon="5.31668">
        <ele>177.11935144764</ele>
        <time>2019-03-20T11:23:09Z</time>
      </trkpt>
      <trkpt lat="43.52339" lon="5.31665">
        <ele>177.07279398675</ele>
        <time>2019-03-20T11:23:15Z</time>
      </trkpt>
      <trkpt lat="43.52337" lon="5.31669">
        <ele>176.94453405567</ele>
        <time>2019-03-20T11:23:39Z</time>
      </trkpt>
      <trkpt lat="43.52337" lon="5.31675">
        <ele>176.89537605611</ele>
        <time>2019-03-20T11:23:43Z</time>
      </trkpt>
      <trkpt lat="43.52338" lon="5.31681">
        <ele>176.82609727061</ele>
        <time>2019-03-20T11:23:49Z</time>
      </trkpt>
      <trkpt lat="43.52338" lon="5.31687">
        <ele>176.73637909531</ele>
        <time>2019-03-20T11:24:01Z</time>
      </trkpt>
      <trkpt lat="43.52336" lon="5.31693">
        <ele>176.6118777086</ele>
        <time>2019-03-20T11:24:21Z</time>
      </trkpt>
      <trkpt lat="43.52333" lon="5.31697">
        <ele>176.45753573536</ele>
        <time>2019-03-20T11:24:58Z</time>
      </trkpt>
      <trkpt lat="43.52329" lon="5.31693">
        <ele>174.62842905239</ele>
        <time>2019-03-20T11:30:30Z</time>
      </trkpt>
      <trkpt lat="43.52333" lon="5.31694">
        <ele>174.2051479267</ele>
        <time>2019-03-20T11:33:34Z</time>
      </trkpt>
      <trkpt lat="43.52329" lon="5.31695">
        <ele>174.0004314165</ele>
        <time>2019-03-20T11:38:03Z</time>
      </trkpt>
      <trkpt lat="43.5233" lon="5.31689">
        <ele>174.15662823756</ele>
        <time>2019-03-20T11:38:53Z</time>
      </trkpt>
      <trkpt lat="43.52334" lon="5.31689">
        <ele>174.26491374668</ele>
        <time>2019-03-20T11:39:50Z</time>
      </trkpt>
      <trkpt lat="43.52331" lon="5.31692">
        <ele>174.2814747184</ele>
        <time>2019-03-20T11:40:29Z</time>
      </trkpt>
      <trkpt lat="43.52333" lon="5.31696">
        <ele>174.24370579259</ele>
        <time>2019-03-20T11:41:02Z</time>
      </trkpt>
      <trkpt lat="43.52332" lon="5.31691">
        <ele>174.22354928033</ele>
        <time>2019-03-20T11:41:26Z</time>
      </trkpt>
      <trkpt lat="43.52328" lon="5.31693">
        <ele>174.26061866755</ele>
        <time>2019-03-20T11:42:59Z</time>
      </trkpt>
      <trkpt lat="43.52324" lon="5.31696">
        <ele>174.41289965605</ele>
        <time>2019-03-20T11:43:39Z</time>
      </trkpt>
      <trkpt lat="43.52328" lon="5.31692">
        <ele>175.5113781413</ele>
        <time>2019-03-20T11:45:12Z</time>
      </trkpt>
      <trkpt lat="43.5233" lon="5.31697">
        <ele>175.73420643091</ele>
        <time>2019-03-20T11:45:40Z</time>
      </trkpt>
      <trkpt lat="43.52326" lon="5.31697">
        <ele>175.94690440652</ele>
        <time>2019-03-20T11:46:41Z</time>
      </trkpt>
      <trkpt lat="43.52325" lon="5.31703">
        <ele>176.83566768483</ele>
        <time>2019-03-20T11:48:07Z</time>
      </trkpt>
      <trkpt lat="43.52323" lon="5.31697">
        <ele>177.23064322144</ele>
        <time>2019-03-20T11:49:15Z</time>
      </trkpt>
      <trkpt lat="43.52326" lon="5.31701">
        <ele>178.1038095748</ele>
        <time>2019-03-20T11:51:33Z</time>
      </trkpt>
      <trkpt lat="43.52324" lon="5.31696">
        <ele>178.29204948968</ele>
        <time>2019-03-20T11:52:36Z</time>
      </trkpt>
      <trkpt lat="43.52323" lon="5.31702">
        <ele>178.8747648808</ele>
        <time>2019-03-20T11:57:13Z</time>
      </trkpt>
      <trkpt lat="43.52319" lon="5.31702">
        <ele>179.13518875793</ele>
        <time>2019-03-20T11:59:16Z</time>
      </trkpt>
      <trkpt lat="43.52316" lon="5.31697">
        <ele>179.20501856045</ele>
        <time>2019-03-20T12:00:05Z</time>
      </trkpt>
      <trkpt lat="43.52315" lon="5.31702">
        <ele>179.19108931666</ele>
        <time>2019-03-20T12:01:25Z</time>
      </trkpt>
      <trkpt lat="43.5232" lon="5.31701">
        <ele>179.19653622741</ele>
        <time>2019-03-20T12:01:59Z</time>
      </trkpt>
      <trkpt lat="43.52323" lon="5.317">
        <ele>179.20916434368</ele>
        <time>2019-03-20T12:02:11Z</time>
      </trkpt>
      <trkpt lat="43.52327" lon="5.31699">
        <ele>179.22541795628</ele>
        <time>2019-03-20T12:02:22Z</time>
      </trkpt>
      <trkpt lat="43.52324" lon="5.31694">
        <ele>179.25637524113</ele>
        <time>2019-03-20T12:02:56Z</time>
      </trkpt>
      <trkpt lat="43.5232" lon="5.31696">
        <ele>179.287735285</ele>
        <time>2019-03-20T12:05:26Z</time>
      </trkpt>
      <trkpt lat="43.52321" lon="5.31702">
        <ele>180.30013277051</ele>
        <time>2019-03-20T12:13:51Z</time>
      </trkpt>
      <trkpt lat="43.52325" lon="5.31704">
        <ele>180.39989214223</ele>
        <time>2019-03-20T12:16:52Z</time>
      </trkpt>
      <trkpt lat="43.52329" lon="5.31702">
        <ele>180.37458003515</ele>
        <time>2019-03-20T12:17:03Z</time>
      </trkpt>
      <trkpt lat="43.52333" lon="5.31702">
        <ele>180.32901083268</ele>
        <time>2019-03-20T12:18:04Z</time>
      </trkpt>
      <trkpt lat="43.52334" lon="5.31708">
        <ele>180.26419215081</ele>
        <time>2019-03-20T12:18:21Z</time>
      </trkpt>
      <trkpt lat="43.52335" lon="5.31713">
        <ele>180.24496688293</ele>
        <time>2019-03-20T12:18:25Z</time>
      </trkpt>
      <trkpt lat="43.52334" lon="5.31718">
        <ele>180.22078130722</ele>
        <time>2019-03-20T12:18:30Z</time>
      </trkpt>
      <trkpt lat="43.52333" lon="5.31724">
        <ele>180.18745473137</ele>
        <time>2019-03-20T12:18:38Z</time>
      </trkpt>
      <trkpt lat="43.52334" lon="5.3173">
        <ele>180.12454786384</ele>
        <time>2019-03-20T12:18:52Z</time>
      </trkpt>
      <trkpt lat="43.52331" lon="5.3173">
        <ele>180.09929844108</ele>
        <time>2019-03-20T12:18:57Z</time>
      </trkpt>
      <trkpt lat="43.52326" lon="5.3173">
        <ele>180.07532830903</ele>
        <time>2019-03-20T12:19:02Z</time>
      </trkpt>
      <trkpt lat="43.52321" lon="5.3173">
        <ele>179.93279120593</ele>
        <time>2019-03-20T12:20:08Z</time>
      </trkpt>
      <trkpt lat="43.52317" lon="5.31732">
        <ele>179.6936234543</ele>
        <time>2019-03-20T12:21:05Z</time>
      </trkpt>
      <trkpt lat="43.52313" lon="5.31732">
        <ele>179.44348815357</ele>
        <time>2019-03-20T12:22:52Z</time>
      </trkpt>
      <trkpt lat="43.52308" lon="5.31731">
        <ele>179.40362913475</ele>
        <time>2019-03-20T12:22:58Z</time>
      </trkpt>
      <trkpt lat="43.52304" lon="5.31731">
        <ele>179.36749463489</ele>
        <time>2019-03-20T12:23:03Z</time>
      </trkpt>
      <trkpt lat="43.523" lon="5.31734">
        <ele>179.32261681165</ele>
        <time>2019-03-20T12:23:09Z</time>
      </trkpt>
      <trkpt lat="43.52296" lon="5.31736">
        <ele>179.29117887065</ele>
        <time>2019-03-20T12:23:13Z</time>
      </trkpt>
      <trkpt lat="43.5229" lon="5.31739">
        <ele>179.25084391415</ele>
        <time>2019-03-20T12:23:18Z</time>
      </trkpt>
      <trkpt lat="43.52284" lon="5.31741">
        <ele>179.21026143783</ele>
        <time>2019-03-20T12:23:23Z</time>
      </trkpt>
      <trkpt lat="43.52277" lon="5.31744">
        <ele>179.17818121953</ele>
        <time>2019-03-20T12:23:27Z</time>
      </trkpt>
      <trkpt lat="43.52271" lon="5.31742">
        <ele>179.14236763325</ele>
        <time>2019-03-20T12:23:32Z</time>
      </trkpt>
      <trkpt lat="43.52267" lon="5.31737">
        <ele>179.1094170615</ele>
        <time>2019-03-20T12:23:37Z</time>
      </trkpt>
      <trkpt lat="43.52263" lon="5.31735">
        <ele>179.09026831657</ele>
        <time>2019-03-20T12:23:40Z</time>
      </trkpt>
      <trkpt lat="43.5226" lon="5.31731">
        <ele>179.06633412988</ele>
        <time>2019-03-20T12:23:44Z</time>
      </trkpt>
      <trkpt lat="43.52257" lon="5.31728">
        <ele>179.04955975801</ele>
        <time>2019-03-20T12:23:47Z</time>
      </trkpt>
      <trkpt lat="43.52255" lon="5.31725">
        <ele>179.0280748688</ele>
        <time>2019-03-20T12:23:51Z</time>
      </trkpt>
      <trkpt lat="43.5225" lon="5.31719">
        <ele>179.00005128566</ele>
        <time>2019-03-20T12:23:56Z</time>
      </trkpt>
      <trkpt lat="43.52245" lon="5.31712">
        <ele>178.97290676104</ele>
        <time>2019-03-20T12:24:01Z</time>
      </trkpt>
      <trkpt lat="43.52242" lon="5.31708">
        <ele>178.95317321151</ele>
        <time>2019-03-20T12:24:05Z</time>
      </trkpt>
      <trkpt lat="43.52239" lon="5.31705">
        <ele>178.93286244525</ele>
        <time>2019-03-20T12:24:09Z</time>
      </trkpt>
      <trkpt lat="43.52236" lon="5.31702">
        <ele>178.91061967564</ele>
        <time>2019-03-20T12:24:13Z</time>
      </trkpt>
      <trkpt lat="43.52231" lon="5.31696">
        <ele>178.88042253134</ele>
        <time>2019-03-20T12:24:18Z</time>
      </trkpt>
      <trkpt lat="43.52228" lon="5.31693">
        <ele>178.86121054806</ele>
        <time>2019-03-20T12:24:21Z</time>
      </trkpt>
      <trkpt lat="43.52225" lon="5.31691">
        <ele>178.83593285367</ele>
        <time>2019-03-20T12:24:25Z</time>
      </trkpt>
      <trkpt lat="43.52222" lon="5.31688">
        <ele>178.81012210411</ele>
        <time>2019-03-20T12:24:29Z</time>
      </trkpt>
      <trkpt lat="43.52217" lon="5.31686">
        <ele>178.78536583991</ele>
        <time>2019-03-20T12:24:33Z</time>
      </trkpt>
      <trkpt lat="43.52213" lon="5.31685">
        <ele>178.76072086628</ele>
        <time>2019-03-20T12:24:37Z</time>
      </trkpt>
      <trkpt lat="43.52209" lon="5.31683">
        <ele>178.67554567782</ele>
        <time>2019-03-20T12:24:54Z</time>
      </trkpt>
      <trkpt lat="43.52206" lon="5.31682">
        <ele>178.639962312</ele>
        <time>2019-03-20T12:24:58Z</time>
      </trkpt>
      <trkpt lat="43.52201" lon="5.31681">
        <ele>178.50360258227</ele>
        <time>2019-03-20T12:25:16Z</time>
      </trkpt>
      <trkpt lat="43.52198" lon="5.31681">
        <ele>178.44251820402</ele>
        <time>2019-03-20T12:25:21Z</time>
      </trkpt>
      <trkpt lat="43.52194" lon="5.31682">
        <ele>178.38042225917</ele>
        <time>2019-03-20T12:25:26Z</time>
      </trkpt>
      <trkpt lat="43.52189" lon="5.31682">
        <ele>178.33343268567</ele>
        <time>2019-03-20T12:25:30Z</time>
      </trkpt>
      <trkpt lat="43.52185" lon="5.31682">
        <ele>178.27703542191</ele>
        <time>2019-03-20T12:25:35Z</time>
      </trkpt>
      <trkpt lat="43.52182" lon="5.31682">
        <ele>178.23270935515</ele>
        <time>2019-03-20T12:25:39Z</time>
      </trkpt>
      <trkpt lat="43.52178" lon="5.31683">
        <ele>178.2002546869</ele>
        <time>2019-03-20T12:25:42Z</time>
      </trkpt>
      <trkpt lat="43.52172" lon="5.31684">
        <ele>178.14768972795</ele>
        <time>2019-03-20T12:25:47Z</time>
      </trkpt>
      <trkpt lat="43.52168" lon="5.31685">
        <ele>178.08975618437</ele>
        <time>2019-03-20T12:25:53Z</time>
      </trkpt>
      <trkpt lat="43.52163" lon="5.31685">
        <ele>178.04347932762</ele>
        <time>2019-03-20T12:25:58Z</time>
      </trkpt>
      <trkpt lat="43.52159" lon="5.31686">
        <ele>178.00615782471</ele>
        <time>2019-03-20T12:26:02Z</time>
      </trkpt>
      <trkpt lat="43.52155" lon="5.31686">
        <ele>177.9683615848</ele>
        <time>2019-03-20T12:26:06Z</time>
      </trkpt>
      <trkpt lat="43.5215" lon="5.31686">
        <ele>177.93118448847</ele>
        <time>2019-03-20T12:26:10Z</time>
      </trkpt>
      <trkpt lat="43.52147" lon="5.31684">
        <ele>177.89355508451</ele>
        <time>2019-03-20T12:26:14Z</time>
      </trkpt>
      <trkpt lat="43.52142" lon="5.31682">
        <ele>177.84606591872</ele>
        <time>2019-03-20T12:26:19Z</time>
      </trkpt>
      <trkpt lat="43.52139" lon="5.31679">
        <ele>177.79816251777</ele>
        <time>2019-03-20T12:26:24Z</time>
      </trkpt>
      <trkpt lat="43.52137" lon="5.31674">
        <ele>177.76031864163</ele>
        <time>2019-03-20T12:26:28Z</time>
      </trkpt>
      <trkpt lat="43.52135" lon="5.31669">
        <ele>177.72022713646</ele>
        <time>2019-03-20T12:26:32Z</time>
      </trkpt>
      <trkpt lat="43.52134" lon="5.31665">
        <ele>177.67867267611</ele>
        <time>2019-03-20T12:26:36Z</time>
      </trkpt>
      <trkpt lat="43.52132" lon="5.31658">
        <ele>177.63330458473</ele>
        <time>2019-03-20T12:26:40Z</time>
      </trkpt>
      <trkpt lat="43.52131" lon="5.31653">
        <ele>177.59859162698</ele>
        <time>2019-03-20T12:26:43Z</time>
      </trkpt>
      <trkpt lat="43.52129" lon="5.31644">
        <ele>177.54124405927</ele>
        <time>2019-03-20T12:26:48Z</time>
      </trkpt>
      <trkpt lat="43.52129" lon="5.31633">
        <ele>177.48299374798</ele>
        <time>2019-03-20T12:26:53Z</time>
      </trkpt>
      <trkpt lat="43.5213" lon="5.31626">
        <ele>177.4483239279</ele>
        <time>2019-03-20T12:26:56Z</time>
      </trkpt>
      <trkpt lat="43.52129" lon="5.31618">
        <ele>177.40242976314</ele>
        <time>2019-03-20T12:27:00Z</time>
      </trkpt>
      <trkpt lat="43.52129" lon="5.31611">
        <ele>177.34566404352</ele>
        <time>2019-03-20T12:27:05Z</time>
      </trkpt>
      <trkpt lat="43.52129" lon="5.31607">
        <ele>177.30927044481</ele>
        <time>2019-03-20T12:27:08Z</time>
      </trkpt>
      <trkpt lat="43.52131" lon="5.31601">
        <ele>177.25636323535</ele>
        <time>2019-03-20T12:27:12Z</time>
      </trkpt>
      <trkpt lat="43.52133" lon="5.31595">
        <ele>177.20444579543</ele>
        <time>2019-03-20T12:27:16Z</time>
      </trkpt>
      <trkpt lat="43.52133" lon="5.31588">
        <ele>177.15457129414</ele>
        <time>2019-03-20T12:27:20Z</time>
      </trkpt>
      <trkpt lat="43.52133" lon="5.31583">
        <ele>177.09467369173</ele>
        <time>2019-03-20T12:27:26Z</time>
      </trkpt>
      <trkpt lat="43.52133" lon="5.31577">
        <ele>177.02119929613</ele>
        <time>2019-03-20T12:27:33Z</time>
      </trkpt>
      <trkpt lat="43.52131" lon="5.31571">
        <ele>176.75145189394</ele>
        <time>2019-03-20T12:28:54Z</time>
      </trkpt>
      <trkpt lat="43.52134" lon="5.31566">
        <ele>176.60089231846</ele>
        <time>2019-03-20T12:29:04Z</time>
      </trkpt>
      <trkpt lat="43.52136" lon="5.31561">
        <ele>176.51969266185</ele>
        <time>2019-03-20T12:29:10Z</time>
      </trkpt>
      <trkpt lat="43.52137" lon="5.31557">
        <ele>176.3977181688</ele>
        <time>2019-03-20T12:29:20Z</time>
      </trkpt>
      <trkpt lat="43.52137" lon="5.31552">
        <ele>176.3340657769</ele>
        <time>2019-03-20T12:29:26Z</time>
      </trkpt>
      <trkpt lat="43.52135" lon="5.31547">
        <ele>176.28204518171</ele>
        <time>2019-03-20T12:29:31Z</time>
      </trkpt>
      <trkpt lat="43.52133" lon="5.31544">
        <ele>176.24113485542</ele>
        <time>2019-03-20T12:29:35Z</time>
      </trkpt>
      <trkpt lat="43.52129" lon="5.31541">
        <ele>176.19316051769</ele>
        <time>2019-03-20T12:29:40Z</time>
      </trkpt>
      <trkpt lat="43.52125" lon="5.31538">
        <ele>176.10957566065</ele>
        <time>2019-03-20T12:29:52Z</time>
      </trkpt>
      <trkpt lat="43.52122" lon="5.31536">
        <ele>176.05951262203</ele>
        <time>2019-03-20T12:29:58Z</time>
      </trkpt>
      <trkpt lat="43.52117" lon="5.31534">
        <ele>176.028629301</ele>
        <time>2019-03-20T12:30:02Z</time>
      </trkpt>
      <trkpt lat="43.52113" lon="5.31533">
        <ele>175.98230327397</ele>
        <time>2019-03-20T12:30:08Z</time>
      </trkpt>
      <trkpt lat="43.52109" lon="5.31533">
        <ele>175.94721161009</ele>
        <time>2019-03-20T12:30:13Z</time>
      </trkpt>
      <trkpt lat="43.52105" lon="5.31533">
        <ele>175.91425421746</ele>
        <time>2019-03-20T12:30:18Z</time>
      </trkpt>
      <trkpt lat="43.52101" lon="5.31531">
        <ele>175.8760238936</ele>
        <time>2019-03-20T12:30:24Z</time>
      </trkpt>
      <trkpt lat="43.52098" lon="5.31529">
        <ele>175.85742414286</ele>
        <time>2019-03-20T12:30:27Z</time>
      </trkpt>
      <trkpt lat="43.52095" lon="5.31528">
        <ele>175.83536131056</ele>
        <time>2019-03-20T12:30:31Z</time>
      </trkpt>
      <trkpt lat="43.5209" lon="5.31528">
        <ele>175.80947724773</ele>
        <time>2019-03-20T12:30:36Z</time>
      </trkpt>
      <trkpt lat="43.52086" lon="5.31527">
        <ele>175.78623170516</ele>
        <time>2019-03-20T12:30:41Z</time>
      </trkpt>
      <trkpt lat="43.52082" lon="5.31525">
        <ele>175.75817487183</ele>
        <time>2019-03-20T12:30:47Z</time>
      </trkpt>
      <trkpt lat="43.52078" lon="5.31523">
        <ele>175.73485520724</ele>
        <time>2019-03-20T12:30:52Z</time>
      </trkpt>
      <trkpt lat="43.52073" lon="5.31522">
        <ele>175.71526688243</ele>
        <time>2019-03-20T12:30:57Z</time>
      </trkpt>
      <trkpt lat="43.52069" lon="5.31519">
        <ele>175.69600005654</ele>
        <time>2019-03-20T12:31:03Z</time>
      </trkpt>
      <trkpt lat="43.52066" lon="5.31519">
        <ele>175.68243587155</ele>
        <time>2019-03-20T12:31:08Z</time>
      </trkpt>
      <trkpt lat="43.52062" lon="5.31517">
        <ele>175.6681676726</ele>
        <time>2019-03-20T12:31:15Z</time>
      </trkpt>
      <trkpt lat="43.52057" lon="5.31516">
        <ele>175.66223189672</ele>
        <time>2019-03-20T12:31:23Z</time>
      </trkpt>
      <trkpt lat="43.52054" lon="5.31515">
        <ele>175.66419320532</ele>
        <time>2019-03-20T12:31:29Z</time>
      </trkpt>
      <trkpt lat="43.5205" lon="5.31511">
        <ele>175.67638202747</ele>
        <time>2019-03-20T12:31:38Z</time>
      </trkpt>
      <trkpt lat="43.52047" lon="5.31507">
        <ele>175.68308307985</ele>
        <time>2019-03-20T12:31:53Z</time>
      </trkpt>
      <trkpt lat="43.52044" lon="5.31504">
        <ele>175.66965179077</ele>
        <time>2019-03-20T12:32:10Z</time>
      </trkpt>
      <trkpt lat="43.5204" lon="5.315">
        <ele>175.64971255374</ele>
        <time>2019-03-20T12:32:23Z</time>
      </trkpt>
      <trkpt lat="43.52039" lon="5.31497">
        <ele>175.64322329577</ele>
        <time>2019-03-20T12:32:26Z</time>
      </trkpt>
      <trkpt lat="43.52035" lon="5.31493">
        <ele>175.6311403162</ele>
        <time>2019-03-20T12:32:31Z</time>
      </trkpt>
      <trkpt lat="43.52034" lon="5.3149">
        <ele>175.62335915668</ele>
        <time>2019-03-20T12:32:34Z</time>
      </trkpt>
      <trkpt lat="43.52031" lon="5.31484">
        <ele>175.61167177566</ele>
        <time>2019-03-20T12:32:39Z</time>
      </trkpt>
      <trkpt lat="43.52029" lon="5.31479">
        <ele>175.60313089422</ele>
        <time>2019-03-20T12:32:43Z</time>
      </trkpt>
      <trkpt lat="43.52024" lon="5.31477">
        <ele>175.59540852487</ele>
        <time>2019-03-20T12:32:47Z</time>
      </trkpt>
      <trkpt lat="43.5202" lon="5.31476">
        <ele>175.58963298448</ele>
        <time>2019-03-20T12:32:51Z</time>
      </trkpt>
      <trkpt lat="43.52015" lon="5.31474">
        <ele>175.58440898676</ele>
        <time>2019-03-20T12:32:55Z</time>
      </trkpt>
      <trkpt lat="43.52011" lon="5.31473">
        <ele>175.58087605425</ele>
        <time>2019-03-20T12:32:59Z</time>
      </trkpt>
      <trkpt lat="43.52007" lon="5.31474">
        <ele>175.58619227802</ele>
        <time>2019-03-20T12:33:06Z</time>
      </trkpt>
      <trkpt lat="43.52005" lon="5.31477">
        <ele>175.59265260123</ele>
        <time>2019-03-20T12:33:10Z</time>
      </trkpt>
      <trkpt lat="43.52004" lon="5.31482">
        <ele>175.60436913636</ele>
        <time>2019-03-20T12:33:15Z</time>
      </trkpt>
      <trkpt lat="43.52004" lon="5.31487">
        <ele>175.61823467536</ele>
        <time>2019-03-20T12:33:20Z</time>
      </trkpt>
      <trkpt lat="43.52005" lon="5.31493">
        <ele>175.66280383467</ele>
        <time>2019-03-20T12:33:41Z</time>
      </trkpt>
      <trkpt lat="43.52009" lon="5.31494">
        <ele>175.95301116246</ele>
        <time>2019-03-20T12:34:33Z</time>
      </trkpt>
      <trkpt lat="43.52013" lon="5.31496">
        <ele>176.12359423886</ele>
        <time>2019-03-20T12:35:09Z</time>
      </trkpt>
      <trkpt lat="43.5201" lon="5.31499">
        <ele>176.63665022008</ele>
        <time>2019-03-20T12:36:23Z</time>
      </trkpt>
      <trkpt lat="43.52005" lon="5.31498">
        <ele>176.88073316267</ele>
        <time>2019-03-20T12:36:53Z</time>
      </trkpt>
      <trkpt lat="43.52001" lon="5.31499">
        <ele>177.14073007725</ele>
        <time>2019-03-20T12:37:30Z</time>
      </trkpt>
      <trkpt lat="43.52003" lon="5.31495">
        <ele>178.31456897618</ele>
        <time>2019-03-20T12:39:19Z</time>
      </trkpt>
      <trkpt lat="43.52005" lon="5.3149">
        <ele>178.49867515312</ele>
        <time>2019-03-20T12:39:25Z</time>
      </trkpt>
      <trkpt lat="43.52006" lon="5.31483">
        <ele>178.61157024222</ele>
        <time>2019-03-20T12:39:29Z</time>
      </trkpt>
      <trkpt lat="43.52005" lon="5.31479">
        <ele>178.74152806868</ele>
        <time>2019-03-20T12:39:34Z</time>
      </trkpt>
      <trkpt lat="43.52002" lon="5.31474">
        <ele>178.9480108185</ele>
        <time>2019-03-20T12:39:43Z</time>
      </trkpt>
      <trkpt lat="43.52001" lon="5.31471">
        <ele>179.02949561617</ele>
        <time>2019-03-20T12:39:47Z</time>
      </trkpt>
      <trkpt lat="43.51998" lon="5.31467">
        <ele>179.10390373856</ele>
        <time>2019-03-20T12:39:51Z</time>
      </trkpt>
      <trkpt lat="43.51993" lon="5.31462">
        <ele>179.17189186123</ele>
        <time>2019-03-20T12:39:55Z</time>
      </trkpt>
      <trkpt lat="43.51987" lon="5.31459">
        <ele>179.25088538732</ele>
        <time>2019-03-20T12:40:00Z</time>
      </trkpt>
      <trkpt lat="43.51983" lon="5.31457">
        <ele>179.31033070704</ele>
        <time>2019-03-20T12:40:04Z</time>
      </trkpt>
      <trkpt lat="43.51978" lon="5.31454">
        <ele>179.36519878052</ele>
        <time>2019-03-20T12:40:08Z</time>
      </trkpt>
      <trkpt lat="43.51974" lon="5.31452">
        <ele>179.40541003575</ele>
        <time>2019-03-20T12:40:11Z</time>
      </trkpt>
      <trkpt lat="43.51969" lon="5.31451">
        <ele>179.45791304349</ele>
        <time>2019-03-20T12:40:15Z</time>
      </trkpt>
      <trkpt lat="43.51966" lon="5.3145">
        <ele>179.49570257651</ele>
        <time>2019-03-20T12:40:18Z</time>
      </trkpt>
      <trkpt lat="43.51963" lon="5.31444">
        <ele>179.55545801443</ele>
        <time>2019-03-20T12:40:23Z</time>
      </trkpt>
      <trkpt lat="43.51963" lon="5.31437">
        <ele>179.61079273406</ele>
        <time>2019-03-20T12:40:28Z</time>
      </trkpt>
      <trkpt lat="43.51963" lon="5.31431">
        <ele>179.65133961024</ele>
        <time>2019-03-20T12:40:32Z</time>
      </trkpt>
      <trkpt lat="43.51964" lon="5.31425">
        <ele>179.68943435021</ele>
        <time>2019-03-20T12:40:36Z</time>
      </trkpt>
      <trkpt lat="43.51962" lon="5.3142">
        <ele>179.73384212917</ele>
        <time>2019-03-20T12:40:42Z</time>
      </trkpt>
      <trkpt lat="43.51959" lon="5.31416">
        <ele>179.85808548121</ele>
        <time>2019-03-20T12:41:27Z</time>
      </trkpt>
      <trkpt lat="43.51955" lon="5.31416">
        <ele>180.15883306933</ele>
        <time>2019-03-20T12:42:06Z</time>
      </trkpt>
      <trkpt lat="43.51952" lon="5.3142">
        <ele>180.2429349635</ele>
        <time>2019-03-20T12:42:11Z</time>
      </trkpt>
      <trkpt lat="43.5195" lon="5.31424">
        <ele>180.31192357472</ele>
        <time>2019-03-20T12:42:15Z</time>
      </trkpt>
      <trkpt lat="43.51944" lon="5.31429">
        <ele>180.39730864586</ele>
        <time>2019-03-20T12:42:20Z</time>
      </trkpt>
      <trkpt lat="43.51939" lon="5.31432">
        <ele>180.46314616099</ele>
        <time>2019-03-20T12:42:24Z</time>
      </trkpt>
      <trkpt lat="43.51934" lon="5.31435">
        <ele>180.52537869945</ele>
        <time>2019-03-20T12:42:28Z</time>
      </trkpt>
      <trkpt lat="43.51928" lon="5.31438">
        <ele>180.58600569977</ele>
        <time>2019-03-20T12:42:32Z</time>
      </trkpt>
      <trkpt lat="43.51923" lon="5.3144">
        <ele>180.64355976918</ele>
        <time>2019-03-20T12:42:36Z</time>
      </trkpt>
      <trkpt lat="43.5192" lon="5.31442">
        <ele>180.6854818774</ele>
        <time>2019-03-20T12:42:39Z</time>
      </trkpt>
      <trkpt lat="43.51915" lon="5.31444">
        <ele>180.75351929494</ele>
        <time>2019-03-20T12:42:44Z</time>
      </trkpt>
      <trkpt lat="43.51912" lon="5.31444">
        <ele>180.80455351377</ele>
        <time>2019-03-20T12:42:48Z</time>
      </trkpt>
      <trkpt lat="43.51909" lon="5.31444">
        <ele>180.85245720932</ele>
        <time>2019-03-20T12:42:52Z</time>
      </trkpt>
      <trkpt lat="43.51905" lon="5.31443">
        <ele>180.90746765247</ele>
        <time>2019-03-20T12:42:57Z</time>
      </trkpt>
      <trkpt lat="43.51903" lon="5.3144">
        <ele>180.97978674149</ele>
        <time>2019-03-20T12:43:04Z</time>
      </trkpt>
      <trkpt lat="43.519" lon="5.31436">
        <ele>181.0593883762</ele>
        <time>2019-03-20T12:43:12Z</time>
      </trkpt>
      <trkpt lat="43.51897" lon="5.31431">
        <ele>181.1051719728</ele>
        <time>2019-03-20T12:43:17Z</time>
      </trkpt>
      <trkpt lat="43.51894" lon="5.31428">
        <ele>181.14808760146</ele>
        <time>2019-03-20T12:43:22Z</time>
      </trkpt>
      <trkpt lat="43.51893" lon="5.31422">
        <ele>181.21736890312</ele>
        <time>2019-03-20T12:43:31Z</time>
      </trkpt>
      <trkpt lat="43.51892" lon="5.31416">
        <ele>181.29774382344</ele>
        <time>2019-03-20T12:43:42Z</time>
      </trkpt>
      <trkpt lat="43.51891" lon="5.31411">
        <ele>181.35954675586</ele>
        <time>2019-03-20T12:44:02Z</time>
      </trkpt>
      <trkpt lat="43.51887" lon="5.3141">
        <ele>181.53127419969</ele>
        <time>2019-03-20T12:44:40Z</time>
      </trkpt>
      <trkpt lat="43.51887" lon="5.31404">
        <ele>181.70175604226</ele>
        <time>2019-03-20T12:45:14Z</time>
      </trkpt>
      <trkpt lat="43.51885" lon="5.31409">
        <ele>181.84641959785</ele>
        <time>2019-03-20T12:45:48Z</time>
      </trkpt>
      <trkpt lat="43.51881" lon="5.3141">
        <ele>181.89602250201</ele>
        <time>2019-03-20T12:45:54Z</time>
      </trkpt>
      <trkpt lat="43.51877" lon="5.31408">
        <ele>181.95749905149</ele>
        <time>2019-03-20T12:46:13Z</time>
      </trkpt>
      <trkpt lat="43.51873" lon="5.31411">
        <ele>182.06371964238</ele>
        <time>2019-03-20T12:46:25Z</time>
      </trkpt>
      <trkpt lat="43.51872" lon="5.31416">
        <ele>182.10148925027</ele>
        <time>2019-03-20T12:46:33Z</time>
      </trkpt>
      <trkpt lat="43.51872" lon="5.31422">
        <ele>182.1564246929</ele>
        <time>2019-03-20T12:47:05Z</time>
      </trkpt>
      <trkpt lat="43.51872" lon="5.31416">
        <ele>182.33277697375</ele>
        <time>2019-03-20T12:50:25Z</time>
      </trkpt>
      <trkpt lat="43.51875" lon="5.31412">
        <ele>182.75567695155</ele>
        <time>2019-03-20T12:52:40Z</time>
      </trkpt>
      <trkpt lat="43.51876" lon="5.31406">
        <ele>182.77588851896</ele>
        <time>2019-03-20T12:52:50Z</time>
      </trkpt>
      <trkpt lat="43.51876" lon="5.314">
        <ele>182.78583955468</ele>
        <time>2019-03-20T12:52:57Z</time>
      </trkpt>
      <trkpt lat="43.51872" lon="5.31398">
        <ele>182.79439698837</ele>
        <time>2019-03-20T12:53:02Z</time>
      </trkpt>
      <trkpt lat="43.51868" lon="5.31396">
        <ele>182.80376712889</ele>
        <time>2019-03-20T12:53:07Z</time>
      </trkpt>
      <trkpt lat="43.51865" lon="5.31392">
        <ele>182.82172770929</ele>
        <time>2019-03-20T12:53:15Z</time>
      </trkpt>
      <trkpt lat="43.51862" lon="5.31389">
        <ele>182.83006455421</ele>
        <time>2019-03-20T12:53:19Z</time>
      </trkpt>
      <trkpt lat="43.51859" lon="5.31385">
        <ele>182.83736185423</ele>
        <time>2019-03-20T12:53:24Z</time>
      </trkpt>
      <trkpt lat="43.51857" lon="5.31383">
        <ele>182.84127558132</ele>
        <time>2019-03-20T12:53:29Z</time>
      </trkpt>
      <trkpt lat="43.51853" lon="5.31378">
        <ele>182.84351824257</ele>
        <time>2019-03-20T12:53:34Z</time>
      </trkpt>
      <trkpt lat="43.51851" lon="5.31375">
        <ele>182.84451887042</ele>
        <time>2019-03-20T12:53:38Z</time>
      </trkpt>
      <trkpt lat="43.51848" lon="5.31372">
        <ele>182.84480829364</ele>
        <time>2019-03-20T12:53:42Z</time>
      </trkpt>
      <trkpt lat="43.51845" lon="5.31369">
        <ele>182.84387032272</ele>
        <time>2019-03-20T12:53:47Z</time>
      </trkpt>
      <trkpt lat="43.51842" lon="5.31364">
        <ele>182.8419456444</ele>
        <time>2019-03-20T12:53:56Z</time>
      </trkpt>
      <trkpt lat="43.5184" lon="5.31362">
        <ele>182.8394678423</ele>
        <time>2019-03-20T12:54:00Z</time>
      </trkpt>
      <trkpt lat="43.51837" lon="5.31358">
        <ele>182.83526978261</ele>
        <time>2019-03-20T12:54:05Z</time>
      </trkpt>
      <trkpt lat="43.51836" lon="5.31353">
        <ele>182.83013377121</ele>
        <time>2019-03-20T12:54:09Z</time>
      </trkpt>
      <trkpt lat="43.51835" lon="5.31347">
        <ele>182.82288074829</ele>
        <time>2019-03-20T12:54:13Z</time>
      </trkpt>
      <trkpt lat="43.51838" lon="5.31343">
        <ele>182.80382640566</ele>
        <time>2019-03-20T12:54:20Z</time>
      </trkpt>
      <trkpt lat="43.51839" lon="5.31338">
        <ele>182.79422772754</ele>
        <time>2019-03-20T12:54:23Z</time>
      </trkpt>
      <trkpt lat="43.5184" lon="5.31333">
        <ele>182.77301991791</ele>
        <time>2019-03-20T12:54:29Z</time>
      </trkpt>
      <trkpt lat="43.51842" lon="5.31328">
        <ele>182.75732168242</ele>
        <time>2019-03-20T12:54:33Z</time>
      </trkpt>
      <trkpt lat="43.51844" lon="5.31323">
        <ele>182.7374442555</ele>
        <time>2019-03-20T12:54:38Z</time>
      </trkpt>
      <trkpt lat="43.51846" lon="5.31319">
        <ele>182.71027225577</ele>
        <time>2019-03-20T12:54:45Z</time>
      </trkpt>
      <trkpt lat="43.51849" lon="5.31314">
        <ele>182.67987597699</ele>
        <time>2019-03-20T12:54:53Z</time>
      </trkpt>
      <trkpt lat="43.51851" lon="5.31309">
        <ele>182.65225159526</ele>
        <time>2019-03-20T12:55:00Z</time>
      </trkpt>
      <trkpt lat="43.51853" lon="5.31303">
        <ele>182.63278680236</ele>
        <time>2019-03-20T12:55:05Z</time>
      </trkpt>
      <trkpt lat="43.51852" lon="5.31298">
        <ele>182.61719530702</ele>
        <time>2019-03-20T12:55:09Z</time>
      </trkpt>
      <trkpt lat="43.5185" lon="5.31293">
        <ele>182.59534412609</ele>
        <time>2019-03-20T12:55:15Z</time>
      </trkpt>
      <trkpt lat="43.51847" lon="5.31289">
        <ele>182.57741631808</ele>
        <time>2019-03-20T12:55:20Z</time>
      </trkpt>
      <trkpt lat="43.51845" lon="5.31284">
        <ele>182.56400231411</ele>
        <time>2019-03-20T12:55:24Z</time>
      </trkpt>
      <trkpt lat="43.51842" lon="5.3128">
        <ele>182.54125583397</ele>
        <time>2019-03-20T12:55:35Z</time>
      </trkpt>
      <trkpt lat="43.51839" lon="5.31276">
        <ele>182.54088772628</ele>
        <time>2019-03-20T12:56:57Z</time>
      </trkpt>
      <trkpt lat="43.51835" lon="5.31279">
        <ele>182.46502412498</ele>
        <time>2019-03-20T12:59:08Z</time>
      </trkpt>
      <trkpt lat="43.51837" lon="5.31283">
        <ele>182.41962300857</ele>
        <time>2019-03-20T12:59:16Z</time>
      </trkpt>
      <trkpt lat="43.5184" lon="5.31287">
        <ele>182.39007849813</ele>
        <time>2019-03-20T12:59:21Z</time>
      </trkpt>
      <trkpt lat="43.51844" lon="5.31292">
        <ele>182.3599297631</ele>
        <time>2019-03-20T12:59:26Z</time>
      </trkpt>
      <trkpt lat="43.51847" lon="5.31295">
        <ele>182.3366940521</ele>
        <time>2019-03-20T12:59:32Z</time>
      </trkpt>
      <trkpt lat="43.51851" lon="5.31297">
        <ele>182.2445792018</ele>
        <time>2019-03-20T12:59:50Z</time>
      </trkpt>
      <trkpt lat="43.51851" lon="5.31303">
        <ele>182.14523920481</ele>
        <time>2019-03-20T13:00:03Z</time>
      </trkpt>
      <trkpt lat="43.51848" lon="5.31306">
        <ele>182.10692256715</ele>
        <time>2019-03-20T13:00:11Z</time>
      </trkpt>
      <trkpt lat="43.51844" lon="5.31309">
        <ele>182.08706676435</ele>
        <time>2019-03-20T13:00:15Z</time>
      </trkpt>
      <trkpt lat="43.51842" lon="5.31312">
        <ele>182.06822670633</ele>
        <time>2019-03-20T13:00:19Z</time>
      </trkpt>
      <trkpt lat="43.51842" lon="5.31318">
        <ele>182.04486508688</ele>
        <time>2019-03-20T13:00:24Z</time>
      </trkpt>
      <trkpt lat="43.51843" lon="5.31324">
        <ele>182.02008135724</ele>
        <time>2019-03-20T13:00:29Z</time>
      </trkpt>
      <trkpt lat="43.51844" lon="5.31329">
        <ele>181.98560558488</ele>
        <time>2019-03-20T13:00:36Z</time>
      </trkpt>
      <trkpt lat="43.51847" lon="5.31332">
        <ele>181.96477925702</ele>
        <time>2019-03-20T13:00:40Z</time>
      </trkpt>
      <trkpt lat="43.51849" lon="5.31334">
        <ele>181.94974799672</ele>
        <time>2019-03-20T13:00:43Z</time>
      </trkpt>
      <trkpt lat="43.51854" lon="5.31338">
        <ele>181.92566521341</ele>
        <time>2019-03-20T13:00:48Z</time>
      </trkpt>
      <trkpt lat="43.51857" lon="5.31342">
        <ele>181.90258289459</ele>
        <time>2019-03-20T13:00:53Z</time>
      </trkpt>
      <trkpt lat="43.5186" lon="5.31344">
        <ele>181.88579894604</ele>
        <time>2019-03-20T13:00:57Z</time>
      </trkpt>
      <trkpt lat="43.51866" lon="5.31344">
        <ele>181.86992160341</ele>
        <time>2019-03-20T13:01:02Z</time>
      </trkpt>
      <trkpt lat="43.5187" lon="5.31344">
        <ele>181.86419031973</ele>
        <time>2019-03-20T13:01:05Z</time>
      </trkpt>
      <trkpt lat="43.51876" lon="5.31344">
        <ele>181.85396441961</ele>
        <time>2019-03-20T13:01:10Z</time>
      </trkpt>
      <trkpt lat="43.5188" lon="5.31343">
        <ele>181.84844868256</ele>
        <time>2019-03-20T13:01:13Z</time>
      </trkpt>
      <trkpt lat="43.51886" lon="5.31343">
        <ele>181.84182185733</ele>
        <time>2019-03-20T13:01:17Z</time>
      </trkpt>
      <trkpt lat="43.5189" lon="5.31342">
        <ele>181.834656326</ele>
        <time>2019-03-20T13:01:21Z</time>
      </trkpt>
      <trkpt lat="43.51894" lon="5.31341">
        <ele>181.82575896763</ele>
        <time>2019-03-20T13:01:26Z</time>
      </trkpt>
      <trkpt lat="43.51898" lon="5.3134">
        <ele>181.82007055151</ele>
        <time>2019-03-20T13:01:30Z</time>
      </trkpt>
      <trkpt lat="43.51903" lon="5.3134">
        <ele>181.81519478046</ele>
        <time>2019-03-20T13:01:34Z</time>
      </trkpt>
      <trkpt lat="43.51908" lon="5.3134">
        <ele>181.80923743383</ele>
        <time>2019-03-20T13:01:39Z</time>
      </trkpt>
      <trkpt lat="43.51913" lon="5.31342">
        <ele>181.80263964404</ele>
        <time>2019-03-20T13:01:45Z</time>
      </trkpt>
      <trkpt lat="43.51915" lon="5.31344">
        <ele>181.79929548349</ele>
        <time>2019-03-20T13:01:49Z</time>
      </trkpt>
      <trkpt lat="43.51921" lon="5.31347">
        <ele>181.79503038349</ele>
        <time>2019-03-20T13:01:54Z</time>
      </trkpt>
      <trkpt lat="43.51925" lon="5.31349">
        <ele>181.79148777976</ele>
        <time>2019-03-20T13:01:58Z</time>
      </trkpt>
      <trkpt lat="43.51931" lon="5.31352">
        <ele>181.78879193847</ele>
        <time>2019-03-20T13:02:03Z</time>
      </trkpt>
      <trkpt lat="43.51936" lon="5.31355">
        <ele>181.78880289398</ele>
        <time>2019-03-20T13:02:07Z</time>
      </trkpt>
      <trkpt lat="43.51939" lon="5.31357">
        <ele>181.78830925176</ele>
        <time>2019-03-20T13:02:11Z</time>
      </trkpt>
      <trkpt lat="43.51942" lon="5.31358">
        <ele>181.78733412826</ele>
        <time>2019-03-20T13:02:14Z</time>
      </trkpt>
      <trkpt lat="43.51946" lon="5.3136">
        <ele>181.78647521459</ele>
        <time>2019-03-20T13:02:18Z</time>
      </trkpt>
      <trkpt lat="43.51951" lon="5.31363">
        <ele>181.78612104579</ele>
        <time>2019-03-20T13:02:23Z</time>
      </trkpt>
      <trkpt lat="43.51954" lon="5.31366">
        <ele>181.78599079329</ele>
        <time>2019-03-20T13:02:26Z</time>
      </trkpt>
      <trkpt lat="43.51958" lon="5.3137">
        <ele>181.78747785858</ele>
        <time>2019-03-20T13:02:30Z</time>
      </trkpt>
      <trkpt lat="43.5196" lon="5.31373">
        <ele>181.78929369896</ele>
        <time>2019-03-20T13:02:34Z</time>
      </trkpt>
      <trkpt lat="43.51962" lon="5.31376">
        <ele>181.791156518</ele>
        <time>2019-03-20T13:02:37Z</time>
      </trkpt>
      <trkpt lat="43.51966" lon="5.31379">
        <ele>181.79414593621</ele>
        <time>2019-03-20T13:02:41Z</time>
      </trkpt>
      <trkpt lat="43.51969" lon="5.31382">
        <ele>181.79875409875</ele>
        <time>2019-03-20T13:02:46Z</time>
      </trkpt>
      <trkpt lat="43.51972" lon="5.31385">
        <ele>181.80154389891</ele>
        <time>2019-03-20T13:02:50Z</time>
      </trkpt>
      <trkpt lat="43.51975" lon="5.31389">
        <ele>181.80288951087</ele>
        <time>2019-03-20T13:02:54Z</time>
      </trkpt>
      <trkpt lat="43.51979" lon="5.31393">
        <ele>181.80270572521</ele>
        <time>2019-03-20T13:02:59Z</time>
      </trkpt>
      <trkpt lat="43.51983" lon="5.31397">
        <ele>181.80252081985</ele>
        <time>2019-03-20T13:03:03Z</time>
      </trkpt>
      <trkpt lat="43.51987" lon="5.314">
        <ele>181.80081066188</ele>
        <time>2019-03-20T13:03:07Z</time>
      </trkpt>
      <trkpt lat="43.51992" lon="5.31401">
        <ele>181.79874156727</ele>
        <time>2019-03-20T13:03:11Z</time>
      </trkpt>
      <trkpt lat="43.51997" lon="5.31399">
        <ele>181.79858616223</ele>
        <time>2019-03-20T13:03:16Z</time>
      </trkpt>
      <trkpt lat="43.52001" lon="5.31397">
        <ele>181.79932580498</ele>
        <time>2019-03-20T13:03:20Z</time>
      </trkpt>
      <trkpt lat="43.52005" lon="5.31393">
        <ele>181.80000407251</ele>
        <time>2019-03-20T13:03:24Z</time>
      </trkpt>
      <trkpt lat="43.52008" lon="5.3139">
        <ele>181.80048465426</ele>
        <time>2019-03-20T13:03:28Z</time>
      </trkpt>
      <trkpt lat="43.52012" lon="5.31385">
        <ele>181.8008941267</ele>
        <time>2019-03-20T13:03:32Z</time>
      </trkpt>
      <trkpt lat="43.52016" lon="5.31381">
        <ele>181.80284874298</ele>
        <time>2019-03-20T13:03:37Z</time>
      </trkpt>
      <trkpt lat="43.52019" lon="5.31379">
        <ele>181.80748744535</ele>
        <time>2019-03-20T13:03:42Z</time>
      </trkpt>
      <trkpt lat="43.52024" lon="5.31376">
        <ele>181.81211868512</ele>
        <time>2019-03-20T13:03:46Z</time>
      </trkpt>
      <trkpt lat="43.5203" lon="5.31372">
        <ele>181.81869181246</ele>
        <time>2019-03-20T13:03:51Z</time>
      </trkpt>
      <trkpt lat="43.52033" lon="5.3137">
        <ele>181.82603633588</ele>
        <time>2019-03-20T13:03:57Z</time>
      </trkpt>
      <trkpt lat="43.52037" lon="5.31369">
        <ele>181.82832668416</ele>
        <time>2019-03-20T13:04:02Z</time>
      </trkpt>
      <trkpt lat="43.52041" lon="5.31368">
        <ele>181.81888367171</ele>
        <time>2019-03-20T13:04:24Z</time>
      </trkpt>
      <trkpt lat="43.52045" lon="5.31366">
        <ele>181.76881121975</ele>
        <time>2019-03-20T13:04:54Z</time>
      </trkpt>
      <trkpt lat="43.52048" lon="5.31365">
        <ele>181.75589458896</ele>
        <time>2019-03-20T13:04:57Z</time>
      </trkpt>
      <trkpt lat="43.52055" lon="5.31364">
        <ele>181.73367099503</ele>
        <time>2019-03-20T13:05:02Z</time>
      </trkpt>
      <trkpt lat="43.52059" lon="5.31364">
        <ele>181.71566975078</ele>
        <time>2019-03-20T13:05:06Z</time>
      </trkpt>
      <trkpt lat="43.52065" lon="5.31363">
        <ele>181.69373925718</ele>
        <time>2019-03-20T13:05:11Z</time>
      </trkpt>
      <trkpt lat="43.52071" lon="5.31363">
        <ele>181.67728462811</ele>
        <time>2019-03-20T13:05:15Z</time>
      </trkpt>
      <trkpt lat="43.52075" lon="5.31363">
        <ele>181.66415915</ele>
        <time>2019-03-20T13:05:18Z</time>
      </trkpt>
      <trkpt lat="43.52079" lon="5.31363">
        <ele>181.64947952185</ele>
        <time>2019-03-20T13:05:22Z</time>
      </trkpt>
      <trkpt lat="43.52083" lon="5.31363">
        <ele>181.63938168374</ele>
        <time>2019-03-20T13:05:26Z</time>
      </trkpt>
      <trkpt lat="43.52088" lon="5.31364">
        <ele>181.6314433074</ele>
        <time>2019-03-20T13:05:30Z</time>
      </trkpt>
      <trkpt lat="43.52092" lon="5.31365">
        <ele>181.61833239117</ele>
        <time>2019-03-20T13:05:37Z</time>
      </trkpt>
      <trkpt lat="43.52097" lon="5.31368">
        <ele>181.6119656696</ele>
        <time>2019-03-20T13:05:42Z</time>
      </trkpt>
      <trkpt lat="43.521" lon="5.3137">
        <ele>181.60557291836</ele>
        <time>2019-03-20T13:05:47Z</time>
      </trkpt>
      <trkpt lat="43.52105" lon="5.31372">
        <ele>181.60028624662</ele>
        <time>2019-03-20T13:05:51Z</time>
      </trkpt>
      <trkpt lat="43.52109" lon="5.31373">
        <ele>181.59587023589</ele>
        <time>2019-03-20T13:05:54Z</time>
      </trkpt>
      <trkpt lat="43.52114" lon="5.31375">
        <ele>181.58721790045</ele>
        <time>2019-03-20T13:05:58Z</time>
      </trkpt>
      <trkpt lat="43.52119" lon="5.31376">
        <ele>181.57731183863</ele>
        <time>2019-03-20T13:06:02Z</time>
      </trkpt>
      <trkpt lat="43.52122" lon="5.31377">
        <ele>181.56438966427</ele>
        <time>2019-03-20T13:06:08Z</time>
      </trkpt>
      <trkpt lat="43.52127" lon="5.31375">
        <ele>181.55443657197</ele>
        <time>2019-03-20T13:06:13Z</time>
      </trkpt>
      <trkpt lat="43.52132" lon="5.31373">
        <ele>181.54684932331</ele>
        <time>2019-03-20T13:06:17Z</time>
      </trkpt>
      <trkpt lat="43.52137" lon="5.31369">
        <ele>181.54239530577</ele>
        <time>2019-03-20T13:06:22Z</time>
      </trkpt>
      <trkpt lat="43.52141" lon="5.31364">
        <ele>181.5430546391</ele>
        <time>2019-03-20T13:06:27Z</time>
      </trkpt>
      <trkpt lat="43.52143" lon="5.31361">
        <ele>181.54563797395</ele>
        <time>2019-03-20T13:06:32Z</time>
      </trkpt>
      <trkpt lat="43.52147" lon="5.31359">
        <ele>181.54758311044</ele>
        <time>2019-03-20T13:06:36Z</time>
      </trkpt>
      <trkpt lat="43.52151" lon="5.31358">
        <ele>181.55112213181</ele>
        <time>2019-03-20T13:06:41Z</time>
      </trkpt>
      <trkpt lat="43.52155" lon="5.31357">
        <ele>181.55575066762</ele>
        <time>2019-03-20T13:06:46Z</time>
      </trkpt>
      <trkpt lat="43.52159" lon="5.31356">
        <ele>181.55763850093</ele>
        <time>2019-03-20T13:06:53Z</time>
      </trkpt>
      <trkpt lat="43.52163" lon="5.31357">
        <ele>181.55459122678</ele>
        <time>2019-03-20T13:07:02Z</time>
      </trkpt>
      <trkpt lat="43.52169" lon="5.31359">
        <ele>181.55504169785</ele>
        <time>2019-03-20T13:07:06Z</time>
      </trkpt>
      <trkpt lat="43.52176" lon="5.31361">
        <ele>181.5583844254</ele>
        <time>2019-03-20T13:07:10Z</time>
      </trkpt>
      <trkpt lat="43.52182" lon="5.31361">
        <ele>181.56284119102</ele>
        <time>2019-03-20T13:07:14Z</time>
      </trkpt>
      <trkpt lat="43.52186" lon="5.3136">
        <ele>181.5660863965</ele>
        <time>2019-03-20T13:07:17Z</time>
      </trkpt>
      <trkpt lat="43.52191" lon="5.31359">
        <ele>181.57099050684</ele>
        <time>2019-03-20T13:07:21Z</time>
      </trkpt>
      <trkpt lat="43.52196" lon="5.31357">
        <ele>181.57461175047</ele>
        <time>2019-03-20T13:07:26Z</time>
      </trkpt>
      <trkpt lat="43.52201" lon="5.31355">
        <ele>181.57742227744</ele>
        <time>2019-03-20T13:07:31Z</time>
      </trkpt>
      <trkpt lat="43.52205" lon="5.31354">
        <ele>181.58212447992</ele>
        <time>2019-03-20T13:07:36Z</time>
      </trkpt>
      <trkpt lat="43.52211" lon="5.31353">
        <ele>181.58699413031</ele>
        <time>2019-03-20T13:07:41Z</time>
      </trkpt>
      <trkpt lat="43.52215" lon="5.31353">
        <ele>181.58708220424</ele>
        <time>2019-03-20T13:07:46Z</time>
      </trkpt>
      <trkpt lat="43.5222" lon="5.31352">
        <ele>181.58628958115</ele>
        <time>2019-03-20T13:07:50Z</time>
      </trkpt>
      <trkpt lat="43.52225" lon="5.3135">
        <ele>181.58516650585</ele>
        <time>2019-03-20T13:07:55Z</time>
      </trkpt>
      <trkpt lat="43.5223" lon="5.31349">
        <ele>181.58345349821</ele>
        <time>2019-03-20T13:07:59Z</time>
      </trkpt>
      <trkpt lat="43.52234" lon="5.31348">
        <ele>181.58108761969</ele>
        <time>2019-03-20T13:08:03Z</time>
      </trkpt>
      <trkpt lat="43.52238" lon="5.31347">
        <ele>181.57858020545</ele>
        <time>2019-03-20T13:08:06Z</time>
      </trkpt>
      <trkpt lat="43.52242" lon="5.31346">
        <ele>181.57404214085</ele>
        <time>2019-03-20T13:08:10Z</time>
      </trkpt>
      <trkpt lat="43.52245" lon="5.31346">
        <ele>181.56922487295</ele>
        <time>2019-03-20T13:08:13Z</time>
      </trkpt>
      <trkpt lat="43.5225" lon="5.31346">
        <ele>181.56148887757</ele>
        <time>2019-03-20T13:08:18Z</time>
      </trkpt>
      <trkpt lat="43.52253" lon="5.31346">
        <ele>181.55193026927</ele>
        <time>2019-03-20T13:08:23Z</time>
      </trkpt>
      <trkpt lat="43.52257" lon="5.31345">
        <ele>181.54200244765</ele>
        <time>2019-03-20T13:08:27Z</time>
      </trkpt>
      <trkpt lat="43.52261" lon="5.31345">
        <ele>181.5317815832</ele>
        <time>2019-03-20T13:08:31Z</time>
      </trkpt>
      <trkpt lat="43.52265" lon="5.31346">
        <ele>181.52009464707</ele>
        <time>2019-03-20T13:08:36Z</time>
      </trkpt>
      <trkpt lat="43.52269" lon="5.31347">
        <ele>181.50997622179</ele>
        <time>2019-03-20T13:08:40Z</time>
      </trkpt>
      <trkpt lat="43.52276" lon="5.31349">
        <ele>181.49965541008</ele>
        <time>2019-03-20T13:08:45Z</time>
      </trkpt>
      <trkpt lat="43.52281" lon="5.3135">
        <ele>181.49369286631</ele>
        <time>2019-03-20T13:08:49Z</time>
      </trkpt>
      <trkpt lat="43.52286" lon="5.3135">
        <ele>181.48848834015</ele>
        <time>2019-03-20T13:08:53Z</time>
      </trkpt>
      <trkpt lat="43.5229" lon="5.3135">
        <ele>181.48414600285</ele>
        <time>2019-03-20T13:08:57Z</time>
      </trkpt>
      <trkpt lat="43.52295" lon="5.3135">
        <ele>181.47774972435</ele>
        <time>2019-03-20T13:09:02Z</time>
      </trkpt>
      <trkpt lat="43.523" lon="5.31351">
        <ele>181.46175946745</ele>
        <time>2019-03-20T13:09:08Z</time>
      </trkpt>
      <trkpt lat="43.52303" lon="5.31354">
        <ele>181.43902290226</ele>
        <time>2019-03-20T13:09:14Z</time>
      </trkpt>
      <trkpt lat="43.52306" lon="5.31357">
        <ele>181.41869882281</ele>
        <time>2019-03-20T13:09:19Z</time>
      </trkpt>
      <trkpt lat="43.5231" lon="5.31359">
        <ele>181.39400650294</ele>
        <time>2019-03-20T13:09:24Z</time>
      </trkpt>
      <trkpt lat="43.52314" lon="5.3136">
        <ele>181.37059209389</ele>
        <time>2019-03-20T13:09:28Z</time>
      </trkpt>
      <trkpt lat="43.52319" lon="5.3136">
        <ele>181.34348494011</ele>
        <time>2019-03-20T13:09:32Z</time>
      </trkpt>
      <trkpt lat="43.52323" lon="5.3136">
        <ele>181.30446775529</ele>
        <time>2019-03-20T13:09:38Z</time>
      </trkpt>
      <trkpt lat="43.52326" lon="5.31358">
        <ele>181.2828751617</ele>
        <time>2019-03-20T13:09:42Z</time>
      </trkpt>
      <trkpt lat="43.5233" lon="5.31358">
        <ele>181.25995120938</ele>
        <time>2019-03-20T13:09:47Z</time>
      </trkpt>
      <trkpt lat="43.52334" lon="5.31359">
        <ele>181.24368087976</ele>
        <time>2019-03-20T13:09:51Z</time>
      </trkpt>
      <trkpt lat="43.52338" lon="5.3136">
        <ele>181.22154050553</ele>
        <time>2019-03-20T13:09:57Z</time>
      </trkpt>
      <trkpt lat="43.52341" lon="5.31361">
        <ele>181.20909779981</ele>
        <time>2019-03-20T13:10:01Z</time>
      </trkpt>
      <trkpt lat="43.52346" lon="5.31363">
        <ele>181.19604772523</ele>
        <time>2019-03-20T13:10:06Z</time>
      </trkpt>
      <trkpt lat="43.52351" lon="5.31364">
        <ele>181.1820462891</ele>
        <time>2019-03-20T13:10:11Z</time>
      </trkpt>
      <trkpt lat="43.52355" lon="5.31365">
        <ele>181.17302968695</ele>
        <time>2019-03-20T13:10:14Z</time>
      </trkpt>
      <trkpt lat="43.52359" lon="5.31365">
        <ele>181.15739118703</ele>
        <time>2019-03-20T13:10:19Z</time>
      </trkpt>
      <trkpt lat="43.52362" lon="5.31364">
        <ele>181.13827269113</ele>
        <time>2019-03-20T13:10:26Z</time>
      </trkpt>
      <trkpt lat="43.52365" lon="5.31363">
        <ele>181.12788958289</ele>
        <time>2019-03-20T13:10:30Z</time>
      </trkpt>
      <trkpt lat="43.52369" lon="5.31363">
        <ele>181.11926334642</ele>
        <time>2019-03-20T13:10:34Z</time>
      </trkpt>
      <trkpt lat="43.52374" lon="5.31361">
        <ele>181.10537490332</ele>
        <time>2019-03-20T13:10:40Z</time>
      </trkpt>
      <trkpt lat="43.52377" lon="5.31361">
        <ele>181.09206713295</ele>
        <time>2019-03-20T13:10:46Z</time>
      </trkpt>
      <trkpt lat="43.5238" lon="5.31362">
        <ele>181.07698062585</ele>
        <time>2019-03-20T13:10:52Z</time>
      </trkpt>
      <trkpt lat="43.52385" lon="5.31363">
        <ele>181.065800111</ele>
        <time>2019-03-20T13:10:57Z</time>
      </trkpt>
      <trkpt lat="43.52391" lon="5.31364">
        <ele>181.056249503</ele>
        <time>2019-03-20T13:11:02Z</time>
      </trkpt>
      <trkpt lat="43.52394" lon="5.31365">
        <ele>181.04827144649</ele>
        <time>2019-03-20T13:11:06Z</time>
      </trkpt>
      <trkpt lat="43.52398" lon="5.31365">
        <ele>181.03543077986</ele>
        <time>2019-03-20T13:11:16Z</time>
      </trkpt>
      <trkpt lat="43.52402" lon="5.31364">
        <ele>181.03109481639</ele>
        <time>2019-03-20T13:11:21Z</time>
      </trkpt>
      <trkpt lat="43.52407" lon="5.31364">
        <ele>181.03001702946</ele>
        <time>2019-03-20T13:11:26Z</time>
      </trkpt>
      <trkpt lat="43.5241" lon="5.31364">
        <ele>181.03208792472</ele>
        <time>2019-03-20T13:11:30Z</time>
      </trkpt>
      <trkpt lat="43.52414" lon="5.31367">
        <ele>181.05443369567</ele>
        <time>2019-03-20T13:11:41Z</time>
      </trkpt>
      <trkpt lat="43.52416" lon="5.31372">
        <ele>181.07751556613</ele>
        <time>2019-03-20T13:11:48Z</time>
      </trkpt>
      <trkpt lat="43.52417" lon="5.31375">
        <ele>181.09015808136</ele>
        <time>2019-03-20T13:11:52Z</time>
      </trkpt>
      <trkpt lat="43.52419" lon="5.31381">
        <ele>181.11332103642</ele>
        <time>2019-03-20T13:11:56Z</time>
      </trkpt>
      <trkpt lat="43.52421" lon="5.31386">
        <ele>181.14384026125</ele>
        <time>2019-03-20T13:12:00Z</time>
      </trkpt>
      <trkpt lat="43.52424" lon="5.3139">
        <ele>181.17821669772</ele>
        <time>2019-03-20T13:12:04Z</time>
      </trkpt>
      <trkpt lat="43.52428" lon="5.31392">
        <ele>181.23056977218</ele>
        <time>2019-03-20T13:12:10Z</time>
      </trkpt>
      <trkpt lat="43.52431" lon="5.31394">
        <ele>181.26454250509</ele>
        <time>2019-03-20T13:12:14Z</time>
      </trkpt>
      <trkpt lat="43.52437" lon="5.31397">
        <ele>181.29683210518</ele>
        <time>2019-03-20T13:12:18Z</time>
      </trkpt>
      <trkpt lat="43.52442" lon="5.314">
        <ele>181.33880580689</ele>
        <time>2019-03-20T13:12:23Z</time>
      </trkpt>
      <trkpt lat="43.52446" lon="5.31402">
        <ele>181.3788143807</ele>
        <time>2019-03-20T13:12:28Z</time>
      </trkpt>
      <trkpt lat="43.5245" lon="5.31405">
        <ele>181.42139995705</ele>
        <time>2019-03-20T13:12:33Z</time>
      </trkpt>
      <trkpt lat="43.52454" lon="5.31405">
        <ele>181.46165340519</ele>
        <time>2019-03-20T13:12:37Z</time>
      </trkpt>
      <trkpt lat="43.52458" lon="5.31405">
        <ele>181.52356472148</ele>
        <time>2019-03-20T13:12:43Z</time>
      </trkpt>
      <trkpt lat="43.52463" lon="5.31404">
        <ele>181.55280640092</ele>
        <time>2019-03-20T13:12:46Z</time>
      </trkpt>
      <trkpt lat="43.52468" lon="5.31403">
        <ele>181.58870035196</ele>
        <time>2019-03-20T13:12:50Z</time>
      </trkpt>
      <trkpt lat="43.52473" lon="5.31404">
        <ele>181.62220497207</ele>
        <time>2019-03-20T13:12:54Z</time>
      </trkpt>
      <trkpt lat="43.52481" lon="5.31404">
        <ele>181.6610016</ele>
        <time>2019-03-20T13:12:59Z</time>
      </trkpt>
      <trkpt lat="43.52485" lon="5.31404">
        <ele>181.68253095886</ele>
        <time>2019-03-20T13:13:02Z</time>
      </trkpt>
      <trkpt lat="43.52492" lon="5.31402">
        <ele>181.71816089445</ele>
        <time>2019-03-20T13:13:07Z</time>
      </trkpt>
      <trkpt lat="43.52496" lon="5.31401">
        <ele>181.74368140126</ele>
        <time>2019-03-20T13:13:11Z</time>
      </trkpt>
      <trkpt lat="43.525" lon="5.314">
        <ele>181.76616995202</ele>
        <time>2019-03-20T13:13:15Z</time>
      </trkpt>
      <trkpt lat="43.52504" lon="5.31399">
        <ele>181.78810825071</ele>
        <time>2019-03-20T13:13:19Z</time>
      </trkpt>
      <trkpt lat="43.52509" lon="5.31396">
        <ele>181.81387549212</ele>
        <time>2019-03-20T13:13:24Z</time>
      </trkpt>
      <trkpt lat="43.52513" lon="5.31395">
        <ele>181.83309994966</ele>
        <time>2019-03-20T13:13:28Z</time>
      </trkpt>
      <trkpt lat="43.52518" lon="5.31394">
        <ele>181.85114626673</ele>
        <time>2019-03-20T13:13:32Z</time>
      </trkpt>
      <trkpt lat="43.52523" lon="5.31393">
        <ele>181.87218825017</ele>
        <time>2019-03-20T13:13:37Z</time>
      </trkpt>
      <trkpt lat="43.52528" lon="5.31391">
        <ele>181.89391447185</ele>
        <time>2019-03-20T13:13:42Z</time>
      </trkpt>
      <trkpt lat="43.52533" lon="5.31389">
        <ele>181.91442573237</ele>
        <time>2019-03-20T13:13:47Z</time>
      </trkpt>
      <trkpt lat="43.52538" lon="5.31389">
        <ele>181.93883868149</ele>
        <time>2019-03-20T13:13:52Z</time>
      </trkpt>
      <trkpt lat="43.52543" lon="5.31388">
        <ele>181.96341765717</ele>
        <time>2019-03-20T13:13:57Z</time>
      </trkpt>
      <trkpt lat="43.52546" lon="5.31388">
        <ele>181.97795223385</ele>
        <time>2019-03-20T13:14:00Z</time>
      </trkpt>
      <trkpt lat="43.52552" lon="5.31388">
        <ele>182.00301712436</ele>
        <time>2019-03-20T13:14:05Z</time>
      </trkpt>
      <trkpt lat="43.52558" lon="5.31387">
        <ele>182.0270720146</ele>
        <time>2019-03-20T13:14:09Z</time>
      </trkpt>
      <trkpt lat="43.52562" lon="5.31385">
        <ele>182.04839178424</ele>
        <time>2019-03-20T13:14:12Z</time>
      </trkpt>
      <trkpt lat="43.52567" lon="5.31382">
        <ele>182.09328760937</ele>
        <time>2019-03-20T13:14:17Z</time>
      </trkpt>
      <trkpt lat="43.52571" lon="5.31379">
        <ele>182.15298722887</ele>
        <time>2019-03-20T13:14:23Z</time>
      </trkpt>
      <trkpt lat="43.52575" lon="5.31379">
        <ele>182.22586707999</ele>
        <time>2019-03-20T13:14:29Z</time>
      </trkpt>
      <trkpt lat="43.52578" lon="5.31378">
        <ele>182.2823444358</ele>
        <time>2019-03-20T13:14:33Z</time>
      </trkpt>
      <trkpt lat="43.52582" lon="5.31375">
        <ele>182.39173485176</ele>
        <time>2019-03-20T13:14:37Z</time>
      </trkpt>
      <trkpt lat="43.52586" lon="5.31372">
        <ele>182.57262295234</ele>
        <time>2019-03-20T13:14:44Z</time>
      </trkpt>
      <trkpt lat="43.5259" lon="5.31371">
        <ele>182.74863200921</ele>
        <time>2019-03-20T13:14:50Z</time>
      </trkpt>
      <trkpt lat="43.52595" lon="5.3137">
        <ele>182.90765831238</ele>
        <time>2019-03-20T13:14:55Z</time>
      </trkpt>
      <trkpt lat="43.526" lon="5.31368">
        <ele>183.04731890304</ele>
        <time>2019-03-20T13:14:59Z</time>
      </trkpt>
      <trkpt lat="43.52606" lon="5.31366">
        <ele>183.23247018314</ele>
        <time>2019-03-20T13:15:04Z</time>
      </trkpt>
      <trkpt lat="43.52611" lon="5.31361">
        <ele>183.42192006726</ele>
        <time>2019-03-20T13:15:09Z</time>
      </trkpt>
      <trkpt lat="43.52615" lon="5.31359">
        <ele>183.77546046401</ele>
        <time>2019-03-20T13:15:35Z</time>
      </trkpt>
      <trkpt lat="43.52619" lon="5.31361">
        <ele>183.95103315391</ele>
        <time>2019-03-20T13:15:39Z</time>
      </trkpt>
      <trkpt lat="43.52623" lon="5.31361">
        <ele>184.19632527834</ele>
        <time>2019-03-20T13:15:45Z</time>
      </trkpt>
      <trkpt lat="43.52627" lon="5.3136">
        <ele>184.34582264042</ele>
        <time>2019-03-20T13:15:49Z</time>
      </trkpt>
      <trkpt lat="43.52631" lon="5.31359">
        <ele>184.48976763386</ele>
        <time>2019-03-20T13:15:53Z</time>
      </trkpt>
      <trkpt lat="43.52636" lon="5.31358">
        <ele>184.69729977914</ele>
        <time>2019-03-20T13:15:59Z</time>
      </trkpt>
      <trkpt lat="43.5264" lon="5.31358">
        <ele>184.83732689031</ele>
        <time>2019-03-20T13:16:03Z</time>
      </trkpt>
      <trkpt lat="43.52645" lon="5.31356">
        <ele>184.97574672031</ele>
        <time>2019-03-20T13:16:07Z</time>
      </trkpt>
      <trkpt lat="43.5265" lon="5.31352">
        <ele>185.10936035403</ele>
        <time>2019-03-20T13:16:11Z</time>
      </trkpt>
      <trkpt lat="43.52654" lon="5.31351">
        <ele>185.34738399706</ele>
        <time>2019-03-20T13:16:18Z</time>
      </trkpt>
      <trkpt lat="43.52659" lon="5.31347">
        <ele>185.51595340931</ele>
        <time>2019-03-20T13:16:23Z</time>
      </trkpt>
      <trkpt lat="43.52671" lon="5.3135">
        <ele>185.64610548892</ele>
        <time>2019-03-20T13:16:27Z</time>
      </trkpt>
      <trkpt lat="43.52674" lon="5.31351">
        <ele>185.77908597671</ele>
        <time>2019-03-20T13:16:31Z</time>
      </trkpt>
      <trkpt lat="43.52681" lon="5.31353">
        <ele>185.90867375158</ele>
        <time>2019-03-20T13:16:35Z</time>
      </trkpt>
      <trkpt lat="43.52689" lon="5.31352">
        <ele>186.03067378085</ele>
        <time>2019-03-20T13:16:39Z</time>
      </trkpt>
      <trkpt lat="43.52692" lon="5.31352">
        <ele>186.14971207215</ele>
        <time>2019-03-20T13:16:43Z</time>
      </trkpt>
      <trkpt lat="43.52696" lon="5.31353">
        <ele>186.51690331766</ele>
        <time>2019-03-20T13:16:56Z</time>
      </trkpt>
      <trkpt lat="43.52697" lon="5.31359">
        <ele>186.63999296935</ele>
        <time>2019-03-20T13:17:01Z</time>
      </trkpt>
      <trkpt lat="43.52698" lon="5.31366">
        <ele>186.75487668354</ele>
        <time>2019-03-20T13:17:06Z</time>
      </trkpt>
      <trkpt lat="43.52696" lon="5.31369">
        <ele>186.95053287995</ele>
        <time>2019-03-20T13:17:16Z</time>
      </trkpt>
      <trkpt lat="43.52695" lon="5.31373">
        <ele>187.03360184312</ele>
        <time>2019-03-20T13:17:21Z</time>
      </trkpt>
      <trkpt lat="43.52696" lon="5.31379">
        <ele>187.13869512887</ele>
        <time>2019-03-20T13:17:30Z</time>
      </trkpt>
      <trkpt lat="43.52699" lon="5.31375">
        <ele>187.4270317</ele>
        <time>2019-03-20T13:18:58Z</time>
      </trkpt>
      <trkpt lat="43.52701" lon="5.31371">
        <ele>187.46472584562</ele>
        <time>2019-03-20T13:19:02Z</time>
      </trkpt>
      <trkpt lat="43.52702" lon="5.31368">
        <ele>187.49122482263</ele>
        <time>2019-03-20T13:19:05Z</time>
      </trkpt>
      <trkpt lat="43.52707" lon="5.31361">
        <ele>187.5319359644</ele>
        <time>2019-03-20T13:19:10Z</time>
      </trkpt>
      <trkpt lat="43.52712" lon="5.31354">
        <ele>187.56910927122</ele>
        <time>2019-03-20T13:19:15Z</time>
      </trkpt>
      <trkpt lat="43.52716" lon="5.31351">
        <ele>187.58941333883</ele>
        <time>2019-03-20T13:19:18Z</time>
      </trkpt>
      <trkpt lat="43.52724" lon="5.31347">
        <ele>187.62483540867</ele>
        <time>2019-03-20T13:19:23Z</time>
      </trkpt>
      <trkpt lat="43.5273" lon="5.31345">
        <ele>187.65295237384</ele>
        <time>2019-03-20T13:19:27Z</time>
      </trkpt>
      <trkpt lat="43.52733" lon="5.31342">
        <ele>187.67477544108</ele>
        <time>2019-03-20T13:19:30Z</time>
      </trkpt>
      <trkpt lat="43.52738" lon="5.31339">
        <ele>187.71522547625</ele>
        <time>2019-03-20T13:19:35Z</time>
      </trkpt>
      <trkpt lat="43.52741" lon="5.31336">
        <ele>187.7699954429</ele>
        <time>2019-03-20T13:19:42Z</time>
      </trkpt>
      <trkpt lat="43.52745" lon="5.31332">
        <ele>187.80186092316</ele>
        <time>2019-03-20T13:19:46Z</time>
      </trkpt>
      <trkpt lat="43.5275" lon="5.31329">
        <ele>187.82720873494</ele>
        <time>2019-03-20T13:19:49Z</time>
      </trkpt>
      <trkpt lat="43.52754" lon="5.31327">
        <ele>187.86108213936</ele>
        <time>2019-03-20T13:19:53Z</time>
      </trkpt>
      <trkpt lat="43.5276" lon="5.31326">
        <ele>187.89303174005</ele>
        <time>2019-03-20T13:19:57Z</time>
      </trkpt>
      <trkpt lat="43.52767" lon="5.31326">
        <ele>187.93205636292</ele>
        <time>2019-03-20T13:20:02Z</time>
      </trkpt>
      <trkpt lat="43.52777" lon="5.31328">
        <ele>187.97437265013</ele>
        <time>2019-03-20T13:20:07Z</time>
      </trkpt>
      <trkpt lat="43.52783" lon="5.31329">
        <ele>188.00952037507</ele>
        <time>2019-03-20T13:20:11Z</time>
      </trkpt>
      <trkpt lat="43.52787" lon="5.3133">
        <ele>188.03674753187</ele>
        <time>2019-03-20T13:20:14Z</time>
      </trkpt>
      <trkpt lat="43.52791" lon="5.3133">
        <ele>188.06323978163</ele>
        <time>2019-03-20T13:20:17Z</time>
      </trkpt>
      <trkpt lat="43.52797" lon="5.31329">
        <ele>188.10926950701</ele>
        <time>2019-03-20T13:20:22Z</time>
      </trkpt>
      <trkpt lat="43.52804" lon="5.31327">
        <ele>188.15937629595</ele>
        <time>2019-03-20T13:20:27Z</time>
      </trkpt>
      <trkpt lat="43.5281" lon="5.31325">
        <ele>188.1986906719</ele>
        <time>2019-03-20T13:20:31Z</time>
      </trkpt>
      <trkpt lat="43.52818" lon="5.31323">
        <ele>188.24671501662</ele>
        <time>2019-03-20T13:20:36Z</time>
      </trkpt>
      <trkpt lat="43.52824" lon="5.31323">
        <ele>188.27501488948</ele>
        <time>2019-03-20T13:20:39Z</time>
      </trkpt>
      <trkpt lat="43.52832" lon="5.31321">
        <ele>188.32105511219</ele>
        <time>2019-03-20T13:20:44Z</time>
      </trkpt>
      <trkpt lat="43.52836" lon="5.31318">
        <ele>188.36564427629</ele>
        <time>2019-03-20T13:20:49Z</time>
      </trkpt>
      <trkpt lat="43.52839" lon="5.31317">
        <ele>188.40545488447</ele>
        <time>2019-03-20T13:20:54Z</time>
      </trkpt>
      <trkpt lat="43.52843" lon="5.31317">
        <ele>188.44043432723</ele>
        <time>2019-03-20T13:21:00Z</time>
      </trkpt>
      <trkpt lat="43.52848" lon="5.31317">
        <ele>188.45908309168</ele>
        <time>2019-03-20T13:21:04Z</time>
      </trkpt>
      <trkpt lat="43.52857" lon="5.31316">
        <ele>188.48120481546</ele>
        <time>2019-03-20T13:21:09Z</time>
      </trkpt>
      <trkpt lat="43.52864" lon="5.31315">
        <ele>188.49719296727</ele>
        <time>2019-03-20T13:21:13Z</time>
      </trkpt>
      <trkpt lat="43.5287" lon="5.31316">
        <ele>188.51115727708</ele>
        <time>2019-03-20T13:21:17Z</time>
      </trkpt>
      <trkpt lat="43.52873" lon="5.31317">
        <ele>188.52396987268</ele>
        <time>2019-03-20T13:21:21Z</time>
      </trkpt>
      <trkpt lat="43.52879" lon="5.31318">
        <ele>188.53331296341</ele>
        <time>2019-03-20T13:21:25Z</time>
      </trkpt>
      <trkpt lat="43.52883" lon="5.31317">
        <ele>188.53726332665</ele>
        <time>2019-03-20T13:21:28Z</time>
      </trkpt>
      <trkpt lat="43.52891" lon="5.31315">
        <ele>188.5412190461</ele>
        <time>2019-03-20T13:21:32Z</time>
      </trkpt>
      <trkpt lat="43.52898" lon="5.3131">
        <ele>188.54464002268</ele>
        <time>2019-03-20T13:21:36Z</time>
      </trkpt>
      <trkpt lat="43.52903" lon="5.31305">
        <ele>188.5456489067</ele>
        <time>2019-03-20T13:21:40Z</time>
      </trkpt>
      <trkpt lat="43.52912" lon="5.31295">
        <ele>188.54752428975</ele>
        <time>2019-03-20T13:21:45Z</time>
      </trkpt>
      <trkpt lat="43.52917" lon="5.31289">
        <ele>188.55134109472</ele>
        <time>2019-03-20T13:21:49Z</time>
      </trkpt>
      <trkpt lat="43.52921" lon="5.31284">
        <ele>188.55626756019</ele>
        <time>2019-03-20T13:21:54Z</time>
      </trkpt>
      <trkpt lat="43.52927" lon="5.31279">
        <ele>188.56150223991</ele>
        <time>2019-03-20T13:21:59Z</time>
      </trkpt>
      <trkpt lat="43.52932" lon="5.31274">
        <ele>188.56540367457</ele>
        <time>2019-03-20T13:22:02Z</time>
      </trkpt>
      <trkpt lat="43.52937" lon="5.3127">
        <ele>188.57016486184</ele>
        <time>2019-03-20T13:22:06Z</time>
      </trkpt>
      <trkpt lat="43.5294" lon="5.31268">
        <ele>188.57407578739</ele>
        <time>2019-03-20T13:22:09Z</time>
      </trkpt>
      <trkpt lat="43.52945" lon="5.31266">
        <ele>188.5786799527</ele>
        <time>2019-03-20T13:22:13Z</time>
      </trkpt>
      <trkpt lat="43.52949" lon="5.31264">
        <ele>188.58197719898</ele>
        <time>2019-03-20T13:22:16Z</time>
      </trkpt>
      <trkpt lat="43.52954" lon="5.31263">
        <ele>188.58754046073</ele>
        <time>2019-03-20T13:22:20Z</time>
      </trkpt>
      <trkpt lat="43.52958" lon="5.3126">
        <ele>188.59455139076</ele>
        <time>2019-03-20T13:22:24Z</time>
      </trkpt>
      <trkpt lat="43.52963" lon="5.31259">
        <ele>188.60106063762</ele>
        <time>2019-03-20T13:22:29Z</time>
      </trkpt>
      <trkpt lat="43.52966" lon="5.31256">
        <ele>188.60394822514</ele>
        <time>2019-03-20T13:22:33Z</time>
      </trkpt>
      <trkpt lat="43.52971" lon="5.31251">
        <ele>188.60951829485</ele>
        <time>2019-03-20T13:22:37Z</time>
      </trkpt>
      <trkpt lat="43.52974" lon="5.31246">
        <ele>188.61691008994</ele>
        <time>2019-03-20T13:22:41Z</time>
      </trkpt>
      <trkpt lat="43.52978" lon="5.3124">
        <ele>188.6263266992</ele>
        <time>2019-03-20T13:22:46Z</time>
      </trkpt>
      <trkpt lat="43.52981" lon="5.31236">
        <ele>188.63170315721</ele>
        <time>2019-03-20T13:22:49Z</time>
      </trkpt>
      <trkpt lat="43.52984" lon="5.31229">
        <ele>188.63416727115</ele>
        <time>2019-03-20T13:22:54Z</time>
      </trkpt>
      <trkpt lat="43.52988" lon="5.31222">
        <ele>188.63087735155</ele>
        <time>2019-03-20T13:22:58Z</time>
      </trkpt>
      <trkpt lat="43.52991" lon="5.31217">
        <ele>188.62535730837</ele>
        <time>2019-03-20T13:23:01Z</time>
      </trkpt>
      <trkpt lat="43.52998" lon="5.3121">
        <ele>188.61793550495</ele>
        <time>2019-03-20T13:23:05Z</time>
      </trkpt>
      <trkpt lat="43.53005" lon="5.31203">
        <ele>188.60857589773</ele>
        <time>2019-03-20T13:23:10Z</time>
      </trkpt>
      <trkpt lat="43.53011" lon="5.312">
        <ele>188.6018325969</ele>
        <time>2019-03-20T13:23:14Z</time>
      </trkpt>
      <trkpt lat="43.53015" lon="5.31199">
        <ele>188.59881442569</ele>
        <time>2019-03-20T13:23:18Z</time>
      </trkpt>
      <trkpt lat="43.53019" lon="5.31197">
        <ele>188.59373753023</ele>
        <time>2019-03-20T13:23:25Z</time>
      </trkpt>
      <trkpt lat="43.53023" lon="5.31194">
        <ele>188.58870333284</ele>
        <time>2019-03-20T13:23:30Z</time>
      </trkpt>
      <trkpt lat="43.53027" lon="5.31191">
        <ele>188.58513653315</ele>
        <time>2019-03-20T13:23:34Z</time>
      </trkpt>
      <trkpt lat="43.53031" lon="5.31189">
        <ele>188.58220736045</ele>
        <time>2019-03-20T13:23:39Z</time>
      </trkpt>
      <trkpt lat="43.53035" lon="5.31186">
        <ele>188.5727730659</ele>
        <time>2019-03-20T13:23:47Z</time>
      </trkpt>
      <trkpt lat="43.53039" lon="5.31184">
        <ele>188.54981417774</ele>
        <time>2019-03-20T13:23:58Z</time>
      </trkpt>
      <trkpt lat="43.53044" lon="5.31182">
        <ele>188.53323267642</ele>
        <time>2019-03-20T13:24:03Z</time>
      </trkpt>
      <trkpt lat="43.53049" lon="5.31178">
        <ele>188.51840369262</ele>
        <time>2019-03-20T13:24:07Z</time>
      </trkpt>
      <trkpt lat="43.53055" lon="5.31171">
        <ele>188.49751028309</ele>
        <time>2019-03-20T13:24:12Z</time>
      </trkpt>
      <trkpt lat="43.53057" lon="5.31165">
        <ele>188.47808386871</ele>
        <time>2019-03-20T13:24:16Z</time>
      </trkpt>
      <trkpt lat="43.53059" lon="5.31162">
        <ele>188.44362699743</ele>
        <time>2019-03-20T13:24:22Z</time>
      </trkpt>
      <trkpt lat="43.53061" lon="5.31157">
        <ele>188.41336081483</ele>
        <time>2019-03-20T13:24:27Z</time>
      </trkpt>
      <trkpt lat="43.53062" lon="5.31148">
        <ele>188.38751435399</ele>
        <time>2019-03-20T13:24:32Z</time>
      </trkpt>
      <trkpt lat="43.53063" lon="5.31142">
        <ele>188.37485812053</ele>
        <time>2019-03-20T13:24:36Z</time>
      </trkpt>
      <trkpt lat="43.53062" lon="5.31137">
        <ele>188.37122896305</ele>
        <time>2019-03-20T13:24:41Z</time>
      </trkpt>
      <trkpt lat="43.5306" lon="5.31131">
        <ele>188.37519361101</ele>
        <time>2019-03-20T13:24:45Z</time>
      </trkpt>
      <trkpt lat="43.5306" lon="5.31127">
        <ele>188.3807504752</ele>
        <time>2019-03-20T13:24:48Z</time>
      </trkpt>
      <trkpt lat="43.5306" lon="5.3112">
        <ele>188.39140838541</ele>
        <time>2019-03-20T13:24:52Z</time>
      </trkpt>
      <trkpt lat="43.53059" lon="5.31113">
        <ele>188.40705930975</ele>
        <time>2019-03-20T13:24:56Z</time>
      </trkpt>
      <trkpt lat="43.53058" lon="5.31106">
        <ele>188.42373597386</ele>
        <time>2019-03-20T13:25:00Z</time>
      </trkpt>
      <trkpt lat="43.53057" lon="5.311">
        <ele>188.4408622187</ele>
        <time>2019-03-20T13:25:04Z</time>
      </trkpt>
      <trkpt lat="43.53055" lon="5.31093">
        <ele>188.45791456293</ele>
        <time>2019-03-20T13:25:09Z</time>
      </trkpt>
      <trkpt lat="43.53055" lon="5.31087">
        <ele>188.47940719995</ele>
        <time>2019-03-20T13:25:14Z</time>
      </trkpt>
      <trkpt lat="43.53054" lon="5.31081">
        <ele>188.4956461172</ele>
        <time>2019-03-20T13:25:18Z</time>
      </trkpt>
      <trkpt lat="43.53054" lon="5.31075">
        <ele>188.51025716998</ele>
        <time>2019-03-20T13:25:23Z</time>
      </trkpt>
      <trkpt lat="43.53053" lon="5.31071">
        <ele>188.53301913558</ele>
        <time>2019-03-20T13:25:29Z</time>
      </trkpt>
      <trkpt lat="43.53051" lon="5.31067">
        <ele>188.54716467317</ele>
        <time>2019-03-20T13:25:33Z</time>
      </trkpt>
      <trkpt lat="43.5305" lon="5.31062">
        <ele>188.5669913009</ele>
        <time>2019-03-20T13:25:39Z</time>
      </trkpt>
      <trkpt lat="43.53049" lon="5.31053">
        <ele>188.57912767025</ele>
        <time>2019-03-20T13:25:44Z</time>
      </trkpt>
      <trkpt lat="43.53048" lon="5.31043">
        <ele>188.58720374953</ele>
        <time>2019-03-20T13:25:48Z</time>
      </trkpt>
      <trkpt lat="43.53046" lon="5.31035">
        <ele>188.59541110819</ele>
        <time>2019-03-20T13:25:52Z</time>
      </trkpt>
      <trkpt lat="43.53044" lon="5.31028">
        <ele>188.60541036135</ele>
        <time>2019-03-20T13:25:57Z</time>
      </trkpt>
      <trkpt lat="43.53043" lon="5.3102">
        <ele>188.61392338112</ele>
        <time>2019-03-20T13:26:01Z</time>
      </trkpt>
      <trkpt lat="43.53044" lon="5.31008">
        <ele>188.62333308531</ele>
        <time>2019-03-20T13:26:06Z</time>
      </trkpt>
      <trkpt lat="43.53045" lon="5.31003">
        <ele>188.62751708024</ele>
        <time>2019-03-20T13:26:10Z</time>
      </trkpt>
      <trkpt lat="43.53045" lon="5.30998">
        <ele>188.63262470053</ele>
        <time>2019-03-20T13:26:14Z</time>
      </trkpt>
      <trkpt lat="43.53045" lon="5.30992">
        <ele>188.63729075334</ele>
        <time>2019-03-20T13:26:22Z</time>
      </trkpt>
      <trkpt lat="43.53044" lon="5.30988">
        <ele>188.64337573257</ele>
        <time>2019-03-20T13:26:27Z</time>
      </trkpt>
      <trkpt lat="43.53043" lon="5.30984">
        <ele>188.64819726656</ele>
        <time>2019-03-20T13:26:34Z</time>
      </trkpt>
      <trkpt lat="43.53041" lon="5.30977">
        <ele>188.65324050836</ele>
        <time>2019-03-20T13:26:39Z</time>
      </trkpt>
      <trkpt lat="43.53042" lon="5.30972">
        <ele>188.65439778634</ele>
        <time>2019-03-20T13:26:42Z</time>
      </trkpt>
      <trkpt lat="43.53042" lon="5.30965">
        <ele>188.65101392132</ele>
        <time>2019-03-20T13:26:47Z</time>
      </trkpt>
      <trkpt lat="43.53042" lon="5.3096">
        <ele>188.64735943783</ele>
        <time>2019-03-20T13:26:50Z</time>
      </trkpt>
      <trkpt lat="43.53041" lon="5.30951">
        <ele>188.63787939376</ele>
        <time>2019-03-20T13:26:55Z</time>
      </trkpt>
      <trkpt lat="43.53042" lon="5.30946">
        <ele>188.62830526824</ele>
        <time>2019-03-20T13:26:59Z</time>
      </trkpt>
      <trkpt lat="43.53044" lon="5.30941">
        <ele>188.61902375389</ele>
        <time>2019-03-20T13:27:03Z</time>
      </trkpt>
      <trkpt lat="43.53046" lon="5.30937">
        <ele>188.60857237855</ele>
        <time>2019-03-20T13:27:07Z</time>
      </trkpt>
      <trkpt lat="43.53049" lon="5.30932">
        <ele>188.59622823212</ele>
        <time>2019-03-20T13:27:11Z</time>
      </trkpt>
      <trkpt lat="43.53052" lon="5.30928">
        <ele>188.58722063137</ele>
        <time>2019-03-20T13:27:14Z</time>
      </trkpt>
      <trkpt lat="43.53053" lon="5.30923">
        <ele>188.57568921376</ele>
        <time>2019-03-20T13:27:18Z</time>
      </trkpt>
      <trkpt lat="43.53053" lon="5.30917">
        <ele>188.56156037939</ele>
        <time>2019-03-20T13:27:24Z</time>
      </trkpt>
      <trkpt lat="43.53054" lon="5.30908">
        <ele>188.54800804743</ele>
        <time>2019-03-20T13:27:29Z</time>
      </trkpt>
      <trkpt lat="43.53054" lon="5.309">
        <ele>188.53772360459</ele>
        <time>2019-03-20T13:27:32Z</time>
      </trkpt>
      <trkpt lat="43.53054" lon="5.30894">
        <ele>188.5272910992</ele>
        <time>2019-03-20T13:27:35Z</time>
      </trkpt>
      <trkpt lat="43.53053" lon="5.30885">
        <ele>188.50913085183</ele>
        <time>2019-03-20T13:27:40Z</time>
      </trkpt>
      <trkpt lat="43.53052" lon="5.30878">
        <ele>188.49219777369</ele>
        <time>2019-03-20T13:27:45Z</time>
      </trkpt>
      <trkpt lat="43.5305" lon="5.30871">
        <ele>188.47884789075</ele>
        <time>2019-03-20T13:27:49Z</time>
      </trkpt>
      <trkpt lat="43.53047" lon="5.30865">
        <ele>188.46770544847</ele>
        <time>2019-03-20T13:27:53Z</time>
      </trkpt>
      <trkpt lat="43.53043" lon="5.30859">
        <ele>188.45868944849</ele>
        <time>2019-03-20T13:27:57Z</time>
      </trkpt>
      <trkpt lat="43.5304" lon="5.30854">
        <ele>188.45256022703</ele>
        <time>2019-03-20T13:28:01Z</time>
      </trkpt>
      <trkpt lat="43.53037" lon="5.30848">
        <ele>188.45303557772</ele>
        <time>2019-03-20T13:28:04Z</time>
      </trkpt>
      <trkpt lat="43.53031" lon="5.30842">
        <ele>188.46138292032</ele>
        <time>2019-03-20T13:28:08Z</time>
      </trkpt>
      <trkpt lat="43.53026" lon="5.30838">
        <ele>188.48103772155</ele>
        <time>2019-03-20T13:28:12Z</time>
      </trkpt>
      <trkpt lat="43.53023" lon="5.30834">
        <ele>188.51032733612</ele>
        <time>2019-03-20T13:28:16Z</time>
      </trkpt>
      <trkpt lat="43.53019" lon="5.3083">
        <ele>188.54834576813</ele>
        <time>2019-03-20T13:28:20Z</time>
      </trkpt>
      <trkpt lat="43.53016" lon="5.30827">
        <ele>188.59394040764</ele>
        <time>2019-03-20T13:28:24Z</time>
      </trkpt>
      <trkpt lat="43.53012" lon="5.30823">
        <ele>188.64570557652</ele>
        <time>2019-03-20T13:28:28Z</time>
      </trkpt>
      <trkpt lat="43.53007" lon="5.30817">
        <ele>188.7116212007</ele>
        <time>2019-03-20T13:28:33Z</time>
      </trkpt>
      <trkpt lat="43.53002" lon="5.3081">
        <ele>188.7731571044</ele>
        <time>2019-03-20T13:28:38Z</time>
      </trkpt>
      <trkpt lat="43.53" lon="5.30803">
        <ele>188.81284927859</ele>
        <time>2019-03-20T13:28:42Z</time>
      </trkpt>
      <trkpt lat="43.52999" lon="5.30795">
        <ele>188.84295448245</ele>
        <time>2019-03-20T13:28:46Z</time>
      </trkpt>
      <trkpt lat="43.52999" lon="5.30788">
        <ele>188.86493188384</ele>
        <time>2019-03-20T13:28:50Z</time>
      </trkpt>
      <trkpt lat="43.52997" lon="5.30784">
        <ele>188.87845823412</ele>
        <time>2019-03-20T13:28:53Z</time>
      </trkpt>
      <trkpt lat="43.52994" lon="5.30781">
        <ele>188.90977719083</ele>
        <time>2019-03-20T13:28:59Z</time>
      </trkpt>
      <trkpt lat="43.5299" lon="5.30778">
        <ele>188.97327801068</ele>
        <time>2019-03-20T13:29:09Z</time>
      </trkpt>
      <trkpt lat="43.52986" lon="5.30778">
        <ele>189.02512209896</ele>
        <time>2019-03-20T13:29:16Z</time>
      </trkpt>
      <trkpt lat="43.52982" lon="5.30777">
        <ele>189.04084964453</ele>
        <time>2019-03-20T13:29:19Z</time>
      </trkpt>
      <trkpt lat="43.52975" lon="5.30776">
        <ele>189.0837344017</ele>
        <time>2019-03-20T13:29:24Z</time>
      </trkpt>
      <trkpt lat="43.52969" lon="5.30775">
        <ele>189.12326536911</ele>
        <time>2019-03-20T13:29:29Z</time>
      </trkpt>
      <trkpt lat="43.52964" lon="5.30775">
        <ele>189.15308913946</ele>
        <time>2019-03-20T13:29:33Z</time>
      </trkpt>
      <trkpt lat="43.52959" lon="5.30773">
        <ele>189.24278198509</ele>
        <time>2019-03-20T13:29:46Z</time>
      </trkpt>
      <trkpt lat="43.52956" lon="5.3077">
        <ele>189.31795875426</ele>
        <time>2019-03-20T13:29:54Z</time>
      </trkpt>
      <trkpt lat="43.52952" lon="5.30767">
        <ele>189.37564725394</ele>
        <time>2019-03-20T13:30:00Z</time>
      </trkpt>
      <trkpt lat="43.52949" lon="5.30764">
        <ele>189.46858028591</ele>
        <time>2019-03-20T13:30:11Z</time>
      </trkpt>
      <trkpt lat="43.52945" lon="5.3076">
        <ele>189.62939377108</ele>
        <time>2019-03-20T13:30:26Z</time>
      </trkpt>
      <trkpt lat="43.52945" lon="5.30755">
        <ele>189.72803892593</ele>
        <time>2019-03-20T13:30:34Z</time>
      </trkpt>
      <trkpt lat="43.52945" lon="5.30749">
        <ele>189.80554297373</ele>
        <time>2019-03-20T13:30:41Z</time>
      </trkpt>
      <trkpt lat="43.52948" lon="5.30745">
        <ele>189.86036656147</ele>
        <time>2019-03-20T13:30:47Z</time>
      </trkpt>
      <trkpt lat="43.52952" lon="5.30741">
        <ele>189.9183392459</ele>
        <time>2019-03-20T13:30:52Z</time>
      </trkpt>
      <trkpt lat="43.52956" lon="5.3074">
        <ele>189.957474205</ele>
        <time>2019-03-20T13:30:55Z</time>
      </trkpt>
      <trkpt lat="43.5296" lon="5.30736">
        <ele>190.01841909691</ele>
        <time>2019-03-20T13:31:00Z</time>
      </trkpt>
      <trkpt lat="43.52963" lon="5.30732">
        <ele>190.06868463266</ele>
        <time>2019-03-20T13:31:04Z</time>
      </trkpt>
      <trkpt lat="43.52965" lon="5.30724">
        <ele>190.14037344323</ele>
        <time>2019-03-20T13:31:09Z</time>
      </trkpt>
      <trkpt lat="43.52967" lon="5.3072">
        <ele>190.20528027277</ele>
        <time>2019-03-20T13:31:13Z</time>
      </trkpt>
      <trkpt lat="43.52969" lon="5.30716">
        <ele>190.29790990212</ele>
        <time>2019-03-20T13:31:18Z</time>
      </trkpt>
      <trkpt lat="43.52972" lon="5.30711">
        <ele>190.40694976704</ele>
        <time>2019-03-20T13:31:23Z</time>
      </trkpt>
      <trkpt lat="43.52974" lon="5.30708">
        <ele>190.49981807769</ele>
        <time>2019-03-20T13:31:27Z</time>
      </trkpt>
      <trkpt lat="43.52975" lon="5.30702">
        <ele>190.61732326498</ele>
        <time>2019-03-20T13:31:32Z</time>
      </trkpt>
      <trkpt lat="43.52976" lon="5.30696">
        <ele>190.7451709856</ele>
        <time>2019-03-20T13:31:37Z</time>
      </trkpt>
      <trkpt lat="43.52978" lon="5.30691">
        <ele>190.92488011221</ele>
        <time>2019-03-20T13:31:44Z</time>
      </trkpt>
      <trkpt lat="43.52981" lon="5.30685">
        <ele>191.04560159338</ele>
        <time>2019-03-20T13:31:49Z</time>
      </trkpt>
      <trkpt lat="43.52984" lon="5.30682">
        <ele>191.12077235584</ele>
        <time>2019-03-20T13:31:52Z</time>
      </trkpt>
      <trkpt lat="43.52989" lon="5.30678">
        <ele>191.24986412071</ele>
        <time>2019-03-20T13:31:57Z</time>
      </trkpt>
      <trkpt lat="43.52993" lon="5.30675">
        <ele>191.38989168343</ele>
        <time>2019-03-20T13:32:02Z</time>
      </trkpt>
      <trkpt lat="43.52995" lon="5.3067">
        <ele>191.50186465</ele>
        <time>2019-03-20T13:32:06Z</time>
      </trkpt>
      <trkpt lat="43.52996" lon="5.30665">
        <ele>191.64727368701</ele>
        <time>2019-03-20T13:32:11Z</time>
      </trkpt>
      <trkpt lat="43.52998" lon="5.3066">
        <ele>191.84746802352</ele>
        <time>2019-03-20T13:32:17Z</time>
      </trkpt>
      <trkpt lat="43.52999" lon="5.30654">
        <ele>192.11351696082</ele>
        <time>2019-03-20T13:32:24Z</time>
      </trkpt>
      <trkpt lat="43.53" lon="5.30648">
        <ele>192.27120030513</ele>
        <time>2019-03-20T13:32:28Z</time>
      </trkpt>
      <trkpt lat="43.53001" lon="5.30643">
        <ele>192.47305696125</ele>
        <time>2019-03-20T13:32:33Z</time>
      </trkpt>
      <trkpt lat="43.53004" lon="5.30639">
        <ele>192.67653110859</ele>
        <time>2019-03-20T13:32:38Z</time>
      </trkpt>
      <trkpt lat="43.53005" lon="5.30633">
        <ele>192.95417490295</ele>
        <time>2019-03-20T13:32:45Z</time>
      </trkpt>
      <trkpt lat="43.53006" lon="5.30628">
        <ele>193.15490020658</ele>
        <time>2019-03-20T13:32:50Z</time>
      </trkpt>
      <trkpt lat="43.53007" lon="5.30622">
        <ele>193.39814802841</ele>
        <time>2019-03-20T13:32:56Z</time>
      </trkpt>
      <trkpt lat="43.53009" lon="5.30618">
        <ele>193.59340121581</ele>
        <time>2019-03-20T13:33:01Z</time>
      </trkpt>
      <trkpt lat="43.53012" lon="5.30614">
        <ele>193.78410391564</ele>
        <time>2019-03-20T13:33:06Z</time>
      </trkpt>
      <trkpt lat="43.53014" lon="5.3061">
        <ele>193.96568788222</ele>
        <time>2019-03-20T13:33:11Z</time>
      </trkpt>
      <trkpt lat="43.53014" lon="5.30603">
        <ele>194.13878185597</ele>
        <time>2019-03-20T13:33:16Z</time>
      </trkpt>
      <trkpt lat="43.53016" lon="5.30597">
        <ele>194.27643203341</ele>
        <time>2019-03-20T13:33:20Z</time>
      </trkpt>
      <trkpt lat="43.53019" lon="5.30594">
        <ele>194.38899254302</ele>
        <time>2019-03-20T13:33:23Z</time>
      </trkpt>
      <trkpt lat="43.53021" lon="5.3059">
        <ele>194.53795788009</ele>
        <time>2019-03-20T13:33:27Z</time>
      </trkpt>
      <trkpt lat="43.53024" lon="5.30585">
        <ele>194.6880420457</ele>
        <time>2019-03-20T13:33:31Z</time>
      </trkpt>
      <trkpt lat="43.53028" lon="5.30582">
        <ele>194.8873623064</ele>
        <time>2019-03-20T13:33:36Z</time>
      </trkpt>
      <trkpt lat="43.5303" lon="5.30578">
        <ele>195.04762483624</ele>
        <time>2019-03-20T13:33:40Z</time>
      </trkpt>
      <trkpt lat="43.53034" lon="5.30572">
        <ele>195.20902874919</ele>
        <time>2019-03-20T13:33:44Z</time>
      </trkpt>
      <trkpt lat="43.53036" lon="5.30568">
        <ele>195.36998750108</ele>
        <time>2019-03-20T13:33:48Z</time>
      </trkpt>
      <trkpt lat="43.53038" lon="5.30562">
        <ele>195.56363227787</ele>
        <time>2019-03-20T13:33:53Z</time>
      </trkpt>
      <trkpt lat="43.5304" lon="5.30556">
        <ele>195.7546396104</ele>
        <time>2019-03-20T13:33:58Z</time>
      </trkpt>
      <trkpt lat="43.53043" lon="5.30552">
        <ele>195.97459540409</ele>
        <time>2019-03-20T13:34:04Z</time>
      </trkpt>
      <trkpt lat="43.53047" lon="5.30547">
        <ele>196.15451067308</ele>
        <time>2019-03-20T13:34:09Z</time>
      </trkpt>
      <trkpt lat="43.53052" lon="5.30541">
        <ele>196.34699684595</ele>
        <time>2019-03-20T13:34:14Z</time>
      </trkpt>
      <trkpt lat="43.53056" lon="5.30537">
        <ele>196.50926193078</ele>
        <time>2019-03-20T13:34:18Z</time>
      </trkpt>
      <trkpt lat="43.53061" lon="5.30532">
        <ele>196.72255989938</ele>
        <time>2019-03-20T13:34:23Z</time>
      </trkpt>
      <trkpt lat="43.53064" lon="5.30529">
        <ele>196.85254783429</ele>
        <time>2019-03-20T13:34:26Z</time>
      </trkpt>
      <trkpt lat="43.53068" lon="5.30527">
        <ele>197.03020344725</ele>
        <time>2019-03-20T13:34:30Z</time>
      </trkpt>
      <trkpt lat="43.53071" lon="5.30522">
        <ele>197.25980838094</ele>
        <time>2019-03-20T13:34:35Z</time>
      </trkpt>
      <trkpt lat="43.53073" lon="5.3052">
        <ele>197.4437359273</ele>
        <time>2019-03-20T13:34:39Z</time>
      </trkpt>
      <trkpt lat="43.53075" lon="5.30514">
        <ele>197.62916132928</ele>
        <time>2019-03-20T13:34:43Z</time>
      </trkpt>
      <trkpt lat="43.53077" lon="5.3051">
        <ele>197.86508191211</ele>
        <time>2019-03-20T13:34:48Z</time>
      </trkpt>
      <trkpt lat="43.53077" lon="5.30506">
        <ele>198.10487360494</ele>
        <time>2019-03-20T13:34:53Z</time>
      </trkpt>
      <trkpt lat="43.53077" lon="5.30501">
        <ele>198.2984765349</ele>
        <time>2019-03-20T13:34:57Z</time>
      </trkpt>
      <trkpt lat="43.53075" lon="5.30496">
        <ele>198.49173368958</ele>
        <time>2019-03-20T13:35:01Z</time>
      </trkpt>
      <trkpt lat="43.53075" lon="5.3049">
        <ele>198.68535199615</ele>
        <time>2019-03-20T13:35:05Z</time>
      </trkpt>
      <trkpt lat="43.53076" lon="5.30483">
        <ele>198.87792388403</ele>
        <time>2019-03-20T13:35:09Z</time>
      </trkpt>
      <trkpt lat="43.53076" lon="5.30475">
        <ele>199.11192352942</ele>
        <time>2019-03-20T13:35:14Z</time>
      </trkpt>
      <trkpt lat="43.53074" lon="5.30468">
        <ele>199.33635115628</ele>
        <time>2019-03-20T13:35:19Z</time>
      </trkpt>
      <trkpt lat="43.53075" lon="5.30461">
        <ele>199.50977945881</ele>
        <time>2019-03-20T13:35:23Z</time>
      </trkpt>
      <trkpt lat="43.53076" lon="5.30455">
        <ele>199.64036009121</ele>
        <time>2019-03-20T13:35:26Z</time>
      </trkpt>
      <trkpt lat="43.53076" lon="5.30447">
        <ele>199.8108167129</ele>
        <time>2019-03-20T13:35:30Z</time>
      </trkpt>
      <trkpt lat="43.53075" lon="5.30441">
        <ele>199.97536614774</ele>
        <time>2019-03-20T13:35:34Z</time>
      </trkpt>
      <trkpt lat="43.53073" lon="5.30434">
        <ele>200.16987213621</ele>
        <time>2019-03-20T13:35:39Z</time>
      </trkpt>
      <trkpt lat="43.5307" lon="5.30425">
        <ele>200.3547530978</ele>
        <time>2019-03-20T13:35:44Z</time>
      </trkpt>
      <trkpt lat="43.53068" lon="5.30418">
        <ele>200.49827744476</ele>
        <time>2019-03-20T13:35:48Z</time>
      </trkpt>
      <trkpt lat="43.53067" lon="5.3041">
        <ele>200.66896091317</ele>
        <time>2019-03-20T13:35:53Z</time>
      </trkpt>
      <trkpt lat="43.53067" lon="5.30404">
        <ele>200.83187079943</ele>
        <time>2019-03-20T13:35:58Z</time>
      </trkpt>
      <trkpt lat="43.53069" lon="5.30399">
        <ele>200.95739238607</ele>
        <time>2019-03-20T13:36:02Z</time>
      </trkpt>
      <trkpt lat="43.53071" lon="5.30394">
        <ele>201.19200477557</ele>
        <time>2019-03-20T13:36:10Z</time>
      </trkpt>
      <trkpt lat="43.53074" lon="5.30391">
        <ele>201.32691070428</ele>
        <time>2019-03-20T13:36:15Z</time>
      </trkpt>
      <trkpt lat="43.53078" lon="5.30387">
        <ele>201.45256667807</ele>
        <time>2019-03-20T13:36:20Z</time>
      </trkpt>
      <trkpt lat="43.53082" lon="5.30384">
        <ele>201.5492105471</ele>
        <time>2019-03-20T13:36:24Z</time>
      </trkpt>
      <trkpt lat="43.53087" lon="5.30378">
        <ele>201.66466830011</ele>
        <time>2019-03-20T13:36:29Z</time>
      </trkpt>
      <trkpt lat="43.5309" lon="5.30374">
        <ele>201.75031778603</ele>
        <time>2019-03-20T13:36:33Z</time>
      </trkpt>
      <trkpt lat="43.53092" lon="5.30369">
        <ele>201.8708197593</ele>
        <time>2019-03-20T13:36:39Z</time>
      </trkpt>
      <trkpt lat="43.53093" lon="5.30365">
        <ele>201.92812671523</ele>
        <time>2019-03-20T13:36:42Z</time>
      </trkpt>
      <trkpt lat="43.53095" lon="5.3036">
        <ele>202.00703518045</ele>
        <time>2019-03-20T13:36:46Z</time>
      </trkpt>
      <trkpt lat="43.53097" lon="5.30354">
        <ele>202.0859249392</ele>
        <time>2019-03-20T13:36:50Z</time>
      </trkpt>
      <trkpt lat="43.53099" lon="5.30349">
        <ele>202.17959932778</ele>
        <time>2019-03-20T13:36:55Z</time>
      </trkpt>
      <trkpt lat="43.53102" lon="5.30343">
        <ele>202.25503215097</ele>
        <time>2019-03-20T13:36:59Z</time>
      </trkpt>
      <trkpt lat="43.53104" lon="5.30339">
        <ele>202.32914905557</ele>
        <time>2019-03-20T13:37:03Z</time>
      </trkpt>
      <trkpt lat="43.53106" lon="5.30335">
        <ele>202.40283397926</ele>
        <time>2019-03-20T13:37:07Z</time>
      </trkpt>
      <trkpt lat="43.5311" lon="5.30331">
        <ele>202.45710932805</ele>
        <time>2019-03-20T13:37:10Z</time>
      </trkpt>
      <trkpt lat="43.53113" lon="5.30328">
        <ele>202.52756529221</ele>
        <time>2019-03-20T13:37:14Z</time>
      </trkpt>
      <trkpt lat="43.53117" lon="5.30324">
        <ele>202.59787104298</ele>
        <time>2019-03-20T13:37:18Z</time>
      </trkpt>
      <trkpt lat="43.53121" lon="5.3032">
        <ele>202.66835918088</ele>
        <time>2019-03-20T13:37:22Z</time>
      </trkpt>
      <trkpt lat="43.53125" lon="5.30315">
        <ele>202.75896763497</ele>
        <time>2019-03-20T13:37:27Z</time>
      </trkpt>
      <trkpt lat="43.53127" lon="5.3031">
        <ele>202.83573911935</ele>
        <time>2019-03-20T13:37:31Z</time>
      </trkpt>
      <trkpt lat="43.53129" lon="5.30305">
        <ele>202.9154164941</ele>
        <time>2019-03-20T13:37:35Z</time>
      </trkpt>
      <trkpt lat="43.53131" lon="5.30298">
        <ele>202.99586654364</ele>
        <time>2019-03-20T13:37:39Z</time>
      </trkpt>
      <trkpt lat="43.53134" lon="5.3029">
        <ele>203.10142195956</ele>
        <time>2019-03-20T13:37:44Z</time>
      </trkpt>
      <trkpt lat="43.53136" lon="5.30285">
        <ele>203.1909091608</ele>
        <time>2019-03-20T13:37:48Z</time>
      </trkpt>
      <trkpt lat="43.53137" lon="5.3028">
        <ele>203.33319561331</ele>
        <time>2019-03-20T13:37:54Z</time>
      </trkpt>
      <trkpt lat="43.53139" lon="5.30275">
        <ele>203.45588377625</ele>
        <time>2019-03-20T13:37:59Z</time>
      </trkpt>
      <trkpt lat="43.53139" lon="5.30271">
        <ele>203.55794113662</ele>
        <time>2019-03-20T13:38:03Z</time>
      </trkpt>
      <trkpt lat="43.53139" lon="5.30264">
        <ele>203.6656387828</ele>
        <time>2019-03-20T13:38:07Z</time>
      </trkpt>
      <trkpt lat="43.53139" lon="5.30258">
        <ele>203.80157846556</ele>
        <time>2019-03-20T13:38:12Z</time>
      </trkpt>
      <trkpt lat="43.53142" lon="5.30253">
        <ele>203.91367459773</ele>
        <time>2019-03-20T13:38:16Z</time>
      </trkpt>
      <trkpt lat="43.53144" lon="5.30248">
        <ele>204.05665322545</ele>
        <time>2019-03-20T13:38:21Z</time>
      </trkpt>
      <trkpt lat="43.53146" lon="5.30242">
        <ele>204.1723980793</ele>
        <time>2019-03-20T13:38:25Z</time>
      </trkpt>
      <trkpt lat="43.53146" lon="5.30237">
        <ele>204.25723507943</ele>
        <time>2019-03-20T13:38:28Z</time>
      </trkpt>
      <trkpt lat="43.53147" lon="5.30233">
        <ele>204.34021083268</ele>
        <time>2019-03-20T13:38:31Z</time>
      </trkpt>
      <trkpt lat="43.53148" lon="5.30225">
        <ele>204.47523448212</ele>
        <time>2019-03-20T13:38:36Z</time>
      </trkpt>
      <trkpt lat="43.53149" lon="5.30218">
        <ele>204.58625039231</ele>
        <time>2019-03-20T13:38:40Z</time>
      </trkpt>
      <trkpt lat="43.5315" lon="5.30213">
        <ele>204.69558631936</ele>
        <time>2019-03-20T13:38:44Z</time>
      </trkpt>
      <trkpt lat="43.53152" lon="5.30208">
        <ele>204.85817377533</ele>
        <time>2019-03-20T13:38:50Z</time>
      </trkpt>
      <trkpt lat="43.53154" lon="5.30205">
        <ele>204.93843291245</ele>
        <time>2019-03-20T13:38:53Z</time>
      </trkpt>
      <trkpt lat="43.53156" lon="5.30201">
        <ele>205.04253010836</ele>
        <time>2019-03-20T13:38:57Z</time>
      </trkpt>
      <trkpt lat="43.53159" lon="5.30196">
        <ele>205.14674444299</ele>
        <time>2019-03-20T13:39:01Z</time>
      </trkpt>
      <trkpt lat="43.53161" lon="5.3019">
        <ele>205.28083272078</ele>
        <time>2019-03-20T13:39:06Z</time>
      </trkpt>
      <trkpt lat="43.53162" lon="5.30183">
        <ele>205.39294995913</ele>
        <time>2019-03-20T13:39:10Z</time>
      </trkpt>
      <trkpt lat="43.53162" lon="5.30179">
        <ele>205.50733891956</ele>
        <time>2019-03-20T13:39:14Z</time>
      </trkpt>
      <trkpt lat="43.53162" lon="5.30172">
        <ele>205.62370376265</ele>
        <time>2019-03-20T13:39:18Z</time>
      </trkpt>
      <trkpt lat="43.53161" lon="5.30165">
        <ele>205.77312399232</ele>
        <time>2019-03-20T13:39:23Z</time>
      </trkpt>
      <trkpt lat="43.5316" lon="5.30157">
        <ele>205.89206033889</ele>
        <time>2019-03-20T13:39:27Z</time>
      </trkpt>
      <trkpt lat="43.53161" lon="5.30148">
        <ele>206.04030470313</ele>
        <time>2019-03-20T13:39:32Z</time>
      </trkpt>
      <trkpt lat="43.53163" lon="5.30145">
        <ele>206.15809739752</ele>
        <time>2019-03-20T13:39:36Z</time>
      </trkpt>
      <trkpt lat="43.53166" lon="5.30139">
        <ele>206.30034120312</ele>
        <time>2019-03-20T13:39:41Z</time>
      </trkpt>
      <trkpt lat="43.53168" lon="5.30134">
        <ele>206.40976886101</ele>
        <time>2019-03-20T13:39:45Z</time>
      </trkpt>
      <trkpt lat="43.53173" lon="5.30127">
        <ele>206.54422108818</ele>
        <time>2019-03-20T13:39:50Z</time>
      </trkpt>
      <trkpt lat="43.53176" lon="5.30124">
        <ele>206.64667976875</ele>
        <time>2019-03-20T13:39:54Z</time>
      </trkpt>
      <trkpt lat="43.53179" lon="5.30121">
        <ele>206.74973551936</ele>
        <time>2019-03-20T13:39:58Z</time>
      </trkpt>
      <trkpt lat="43.53185" lon="5.30114">
        <ele>206.88880918002</ele>
        <time>2019-03-20T13:40:03Z</time>
      </trkpt>
      <trkpt lat="43.5319" lon="5.30105">
        <ele>207.06228966722</ele>
        <time>2019-03-20T13:40:08Z</time>
      </trkpt>
      <trkpt lat="43.53192" lon="5.30099">
        <ele>207.51213116865</ele>
        <time>2019-03-20T13:40:36Z</time>
      </trkpt>
      <trkpt lat="43.53196" lon="5.30097">
        <ele>209.2577644235</ele>
        <time>2019-03-20T13:41:10Z</time>
      </trkpt>
      <trkpt lat="43.53199" lon="5.30096">
        <ele>209.74605392588</ele>
        <time>2019-03-20T13:41:14Z</time>
      </trkpt>
      <trkpt lat="43.53206" lon="5.30093">
        <ele>210.30631866869</ele>
        <time>2019-03-20T13:41:19Z</time>
      </trkpt>
      <trkpt lat="43.53211" lon="5.3009">
        <ele>210.71559732518</ele>
        <time>2019-03-20T13:41:23Z</time>
      </trkpt>
      <trkpt lat="43.53215" lon="5.30086">
        <ele>211.09562653594</ele>
        <time>2019-03-20T13:41:27Z</time>
      </trkpt>
      <trkpt lat="43.53221" lon="5.30083">
        <ele>211.53437625835</ele>
        <time>2019-03-20T13:41:32Z</time>
      </trkpt>
      <trkpt lat="43.53226" lon="5.3008">
        <ele>211.85923624765</ele>
        <time>2019-03-20T13:41:36Z</time>
      </trkpt>
      <trkpt lat="43.5323" lon="5.30078">
        <ele>212.16176313252</ele>
        <time>2019-03-20T13:41:40Z</time>
      </trkpt>
      <trkpt lat="43.53235" lon="5.30075">
        <ele>212.51044714728</ele>
        <time>2019-03-20T13:41:45Z</time>
      </trkpt>
      <trkpt lat="43.53238" lon="5.30073">
        <ele>212.70412465241</ele>
        <time>2019-03-20T13:41:48Z</time>
      </trkpt>
      <trkpt lat="43.53242" lon="5.30072">
        <ele>212.95425322198</ele>
        <time>2019-03-20T13:41:53Z</time>
      </trkpt>
      <trkpt lat="43.53246" lon="5.3007">
        <ele>213.21361562684</ele>
        <time>2019-03-20T13:42:02Z</time>
      </trkpt>
      <trkpt lat="43.5325" lon="5.30065">
        <ele>213.51897671577</ele>
        <time>2019-03-20T13:42:06Z</time>
      </trkpt>
      <trkpt lat="43.53253" lon="5.30061">
        <ele>213.74989463833</ele>
        <time>2019-03-20T13:42:09Z</time>
      </trkpt>
      <trkpt lat="43.53256" lon="5.30056">
        <ele>214.05080573044</ele>
        <time>2019-03-20T13:42:13Z</time>
      </trkpt>
      <trkpt lat="43.5326" lon="5.30051">
        <ele>214.34024776228</ele>
        <time>2019-03-20T13:42:17Z</time>
      </trkpt>
      <trkpt lat="43.5326" lon="5.30056">
        <ele>214.70978419973</ele>
        <time>2019-03-20T13:42:39Z</time>
      </trkpt>
      <trkpt lat="43.53264" lon="5.30057">
        <ele>216.26239740692</ele>
        <time>2019-03-20T13:43:21Z</time>
      </trkpt>
      <trkpt lat="43.53268" lon="5.30053">
        <ele>216.78600025889</ele>
        <time>2019-03-20T13:43:25Z</time>
      </trkpt>
      <trkpt lat="43.53271" lon="5.3005">
        <ele>217.280413648</ele>
        <time>2019-03-20T13:43:29Z</time>
      </trkpt>
      <trkpt lat="43.53275" lon="5.30047">
        <ele>217.85938285312</ele>
        <time>2019-03-20T13:43:34Z</time>
      </trkpt>
      <trkpt lat="43.53279" lon="5.30045">
        <ele>218.29383999928</ele>
        <time>2019-03-20T13:43:38Z</time>
      </trkpt>
      <trkpt lat="43.53283" lon="5.30042">
        <ele>218.70622606948</ele>
        <time>2019-03-20T13:43:42Z</time>
      </trkpt>
      <trkpt lat="43.53288" lon="5.30038">
        <ele>219.09662494007</ele>
        <time>2019-03-20T13:43:46Z</time>
      </trkpt>
      <trkpt lat="43.53291" lon="5.30038">
        <ele>219.67231466229</ele>
        <time>2019-03-20T13:43:52Z</time>
      </trkpt>
      <trkpt lat="43.53295" lon="5.30039">
        <ele>220.34069162926</ele>
        <time>2019-03-20T13:43:59Z</time>
      </trkpt>
      <trkpt lat="43.53299" lon="5.30036">
        <ele>220.70065330085</ele>
        <time>2019-03-20T13:44:03Z</time>
      </trkpt>
      <trkpt lat="43.53302" lon="5.30034">
        <ele>220.95497627152</ele>
        <time>2019-03-20T13:44:06Z</time>
      </trkpt>
      <trkpt lat="43.53304" lon="5.30032">
        <ele>221.27694419743</ele>
        <time>2019-03-20T13:44:10Z</time>
      </trkpt>
      <trkpt lat="43.53307" lon="5.30028">
        <ele>221.51114818845</ele>
        <time>2019-03-20T13:44:13Z</time>
      </trkpt>
      <trkpt lat="43.53311" lon="5.30024">
        <ele>221.87450044585</ele>
        <time>2019-03-20T13:44:18Z</time>
      </trkpt>
      <trkpt lat="43.53316" lon="5.30021">
        <ele>222.1406106833</ele>
        <time>2019-03-20T13:44:22Z</time>
      </trkpt>
      <trkpt lat="43.53319" lon="5.30016">
        <ele>222.44593713501</ele>
        <time>2019-03-20T13:44:27Z</time>
      </trkpt>
      <trkpt lat="43.53323" lon="5.30014">
        <ele>222.67248560453</ele>
        <time>2019-03-20T13:44:31Z</time>
      </trkpt>
      <trkpt lat="43.53329" lon="5.30012">
        <ele>222.88088729972</ele>
        <time>2019-03-20T13:44:35Z</time>
      </trkpt>
      <trkpt lat="43.53334" lon="5.30011">
        <ele>223.069407754</ele>
        <time>2019-03-20T13:44:39Z</time>
      </trkpt>
      <trkpt lat="43.53339" lon="5.30007">
        <ele>223.28251771438</ele>
        <time>2019-03-20T13:44:44Z</time>
      </trkpt>
      <trkpt lat="43.53342" lon="5.30004">
        <ele>223.40271928756</ele>
        <time>2019-03-20T13:44:47Z</time>
      </trkpt>
      <trkpt lat="43.53344" lon="5.3">
        <ele>223.55667768482</ele>
        <time>2019-03-20T13:44:51Z</time>
      </trkpt>
      <trkpt lat="43.53347" lon="5.29994">
        <ele>223.7031193072</ele>
        <time>2019-03-20T13:44:55Z</time>
      </trkpt>
      <trkpt lat="43.5335" lon="5.2999">
        <ele>223.84000548605</ele>
        <time>2019-03-20T13:44:59Z</time>
      </trkpt>
      <trkpt lat="43.53353" lon="5.29984">
        <ele>224.00062574525</ele>
        <time>2019-03-20T13:45:04Z</time>
      </trkpt>
      <trkpt lat="43.53358" lon="5.2998">
        <ele>224.15275651579</ele>
        <time>2019-03-20T13:45:09Z</time>
      </trkpt>
      <trkpt lat="43.53361" lon="5.29977">
        <ele>224.23678207237</ele>
        <time>2019-03-20T13:45:12Z</time>
      </trkpt>
      <trkpt lat="43.53365" lon="5.29974">
        <ele>224.36847048936</ele>
        <time>2019-03-20T13:45:17Z</time>
      </trkpt>
      <trkpt lat="43.5337" lon="5.29969">
        <ele>224.4735598687</ele>
        <time>2019-03-20T13:45:21Z</time>
      </trkpt>
      <trkpt lat="43.53377" lon="5.29965">
        <ele>224.5967264941</ele>
        <time>2019-03-20T13:45:26Z</time>
      </trkpt>
      <trkpt lat="43.53382" lon="5.29962">
        <ele>224.69047092122</ele>
        <time>2019-03-20T13:45:30Z</time>
      </trkpt>
      <trkpt lat="43.53387" lon="5.2996">
        <ele>224.75841949001</ele>
        <time>2019-03-20T13:45:33Z</time>
      </trkpt>
      <trkpt lat="43.53391" lon="5.29957">
        <ele>224.8263513634</ele>
        <time>2019-03-20T13:45:36Z</time>
      </trkpt>
      <trkpt lat="43.53397" lon="5.29952">
        <ele>224.93619715932</ele>
        <time>2019-03-20T13:45:41Z</time>
      </trkpt>
      <trkpt lat="43.53401" lon="5.2995">
        <ele>224.99929452469</ele>
        <time>2019-03-20T13:45:44Z</time>
      </trkpt>
      <trkpt lat="43.53405" lon="5.29946">
        <ele>225.08097819818</ele>
        <time>2019-03-20T13:45:48Z</time>
      </trkpt>
      <trkpt lat="43.53408" lon="5.29942">
        <ele>225.16089582145</ele>
        <time>2019-03-20T13:45:52Z</time>
      </trkpt>
      <trkpt lat="43.53412" lon="5.29937">
        <ele>225.25538882833</ele>
        <time>2019-03-20T13:45:57Z</time>
      </trkpt>
      <trkpt lat="43.53416" lon="5.29932">
        <ele>225.32939015639</ele>
        <time>2019-03-20T13:46:01Z</time>
      </trkpt>
      <trkpt lat="43.53421" lon="5.29926">
        <ele>225.42867879181</ele>
        <time>2019-03-20T13:46:06Z</time>
      </trkpt>
      <trkpt lat="43.53426" lon="5.2992">
        <ele>225.51211236624</ele>
        <time>2019-03-20T13:46:10Z</time>
      </trkpt>
      <trkpt lat="43.53428" lon="5.29915">
        <ele>225.59587547179</ele>
        <time>2019-03-20T13:46:14Z</time>
      </trkpt>
      <trkpt lat="43.53431" lon="5.2991">
        <ele>225.68383312348</ele>
        <time>2019-03-20T13:46:18Z</time>
      </trkpt>
      <trkpt lat="43.53431" lon="5.29904">
        <ele>225.77359586537</ele>
        <time>2019-03-20T13:46:22Z</time>
      </trkpt>
      <trkpt lat="43.53432" lon="5.29898">
        <ele>225.87194407712</ele>
        <time>2019-03-20T13:46:26Z</time>
      </trkpt>
      <trkpt lat="43.53434" lon="5.29888">
        <ele>226.05223544669</ele>
        <time>2019-03-20T13:46:31Z</time>
      </trkpt>
      <trkpt lat="43.53435" lon="5.2988">
        <ele>226.26047187195</ele>
        <time>2019-03-20T13:46:35Z</time>
      </trkpt>
      <trkpt lat="43.53436" lon="5.29874">
        <ele>226.45060221466</ele>
        <time>2019-03-20T13:46:38Z</time>
      </trkpt>
      <trkpt lat="43.53436" lon="5.29866">
        <ele>226.74545934852</ele>
        <time>2019-03-20T13:46:42Z</time>
      </trkpt>
      <trkpt lat="43.53434" lon="5.29858">
        <ele>227.08984963319</ele>
        <time>2019-03-20T13:46:46Z</time>
      </trkpt>
      <trkpt lat="43.53434" lon="5.29854">
        <ele>227.4560461888</ele>
        <time>2019-03-20T13:46:50Z</time>
      </trkpt>
      <trkpt lat="43.53437" lon="5.29851">
        <ele>227.91278696269</ele>
        <time>2019-03-20T13:47:02Z</time>
      </trkpt>
      <trkpt lat="43.5344" lon="5.29847">
        <ele>228.30214667105</ele>
        <time>2019-03-20T13:47:06Z</time>
      </trkpt>
      <trkpt lat="43.53441" lon="5.29842">
        <ele>228.69028971218</ele>
        <time>2019-03-20T13:47:10Z</time>
      </trkpt>
      <trkpt lat="43.53441" lon="5.29836">
        <ele>229.163799577</ele>
        <time>2019-03-20T13:47:15Z</time>
      </trkpt>
      <trkpt lat="43.5344" lon="5.2983">
        <ele>229.65369066558</ele>
        <time>2019-03-20T13:47:20Z</time>
      </trkpt>
      <trkpt lat="43.53439" lon="5.29824">
        <ele>230.04004767604</ele>
        <time>2019-03-20T13:47:24Z</time>
      </trkpt>
      <trkpt lat="43.53439" lon="5.29817">
        <ele>230.4117310642</ele>
        <time>2019-03-20T13:47:28Z</time>
      </trkpt>
      <trkpt lat="43.53438" lon="5.29811">
        <ele>230.76610901786</ele>
        <time>2019-03-20T13:47:32Z</time>
      </trkpt>
      <trkpt lat="43.53436" lon="5.29803">
        <ele>231.18750328992</ele>
        <time>2019-03-20T13:47:37Z</time>
      </trkpt>
      <trkpt lat="43.53434" lon="5.29794">
        <ele>231.51670977703</ele>
        <time>2019-03-20T13:47:41Z</time>
      </trkpt>
      <trkpt lat="43.53434" lon="5.29785">
        <ele>231.83201628483</ele>
        <time>2019-03-20T13:47:45Z</time>
      </trkpt>
      <trkpt lat="43.53432" lon="5.29778">
        <ele>232.13433526886</ele>
        <time>2019-03-20T13:47:49Z</time>
      </trkpt>
      <trkpt lat="43.53431" lon="5.29774">
        <ele>232.49790778773</ele>
        <time>2019-03-20T13:47:54Z</time>
      </trkpt>
      <trkpt lat="43.53431" lon="5.29768">
        <ele>232.8538773132</ele>
        <time>2019-03-20T13:47:59Z</time>
      </trkpt>
      <trkpt lat="43.53431" lon="5.2976">
        <ele>233.13155799696</ele>
        <time>2019-03-20T13:48:03Z</time>
      </trkpt>
      <trkpt lat="43.5343" lon="5.29752">
        <ele>233.40362097257</ele>
        <time>2019-03-20T13:48:07Z</time>
      </trkpt>
      <trkpt lat="43.53426" lon="5.29741">
        <ele>233.74044635757</ele>
        <time>2019-03-20T13:48:12Z</time>
      </trkpt>
      <trkpt lat="43.53425" lon="5.29735">
        <ele>233.93622140385</ele>
        <time>2019-03-20T13:48:15Z</time>
      </trkpt>
      <trkpt lat="43.53425" lon="5.2973">
        <ele>234.19049971139</ele>
        <time>2019-03-20T13:48:19Z</time>
      </trkpt>
      <trkpt lat="43.53425" lon="5.29725">
        <ele>234.43771845032</ele>
        <time>2019-03-20T13:48:23Z</time>
      </trkpt>
      <trkpt lat="43.53426" lon="5.29716">
        <ele>234.74264031163</ele>
        <time>2019-03-20T13:48:28Z</time>
      </trkpt>
      <trkpt lat="43.53426" lon="5.29707">
        <ele>234.97914461465</ele>
        <time>2019-03-20T13:48:32Z</time>
      </trkpt>
      <trkpt lat="43.53428" lon="5.29696">
        <ele>235.26804951421</ele>
        <time>2019-03-20T13:48:37Z</time>
      </trkpt>
      <trkpt lat="43.5343" lon="5.2969">
        <ele>235.49635237016</ele>
        <time>2019-03-20T13:48:41Z</time>
      </trkpt>
      <trkpt lat="43.53432" lon="5.29685">
        <ele>235.72819536576</ele>
        <time>2019-03-20T13:48:45Z</time>
      </trkpt>
      <trkpt lat="43.53435" lon="5.29682">
        <ele>236.01500614786</ele>
        <time>2019-03-20T13:48:50Z</time>
      </trkpt>
      <trkpt lat="43.53437" lon="5.29677">
        <ele>236.35028852908</ele>
        <time>2019-03-20T13:48:56Z</time>
      </trkpt>
      <trkpt lat="43.53439" lon="5.29672">
        <ele>236.51870812052</ele>
        <time>2019-03-20T13:48:59Z</time>
      </trkpt>
      <trkpt lat="43.53442" lon="5.29668">
        <ele>236.68873611797</ele>
        <time>2019-03-20T13:49:02Z</time>
      </trkpt>
      <trkpt lat="43.53445" lon="5.29664">
        <ele>236.97381955943</ele>
        <time>2019-03-20T13:49:07Z</time>
      </trkpt>
      <trkpt lat="43.53447" lon="5.29659">
        <ele>237.26552496021</ele>
        <time>2019-03-20T13:49:13Z</time>
      </trkpt>
      <trkpt lat="43.5345" lon="5.2966">
        <ele>238.05846668607</ele>
        <time>2019-03-20T13:49:27Z</time>
      </trkpt>
      <trkpt lat="43.53454" lon="5.29662">
        <ele>238.27352094821</ele>
        <time>2019-03-20T13:49:31Z</time>
      </trkpt>
      <trkpt lat="43.53458" lon="5.29666">
        <ele>238.49134989681</ele>
        <time>2019-03-20T13:49:35Z</time>
      </trkpt>
      <trkpt lat="43.53463" lon="5.29671">
        <ele>238.76010272213</ele>
        <time>2019-03-20T13:49:40Z</time>
      </trkpt>
      <trkpt lat="43.53467" lon="5.29678">
        <ele>239.01813407997</ele>
        <time>2019-03-20T13:49:45Z</time>
      </trkpt>
      <trkpt lat="43.53473" lon="5.29681">
        <ele>239.22726505751</ele>
        <time>2019-03-20T13:49:49Z</time>
      </trkpt>
      <trkpt lat="43.53478" lon="5.29684">
        <ele>239.43067014354</ele>
        <time>2019-03-20T13:49:53Z</time>
      </trkpt>
      <trkpt lat="43.53483" lon="5.29686">
        <ele>239.66894229156</ele>
        <time>2019-03-20T13:49:58Z</time>
      </trkpt>
      <trkpt lat="43.53487" lon="5.29687">
        <ele>239.84867763717</ele>
        <time>2019-03-20T13:50:02Z</time>
      </trkpt>
      <trkpt lat="43.53491" lon="5.29688">
        <ele>240.21652109528</ele>
        <time>2019-03-20T13:50:16Z</time>
      </trkpt>
      <trkpt lat="43.53493" lon="5.29693">
        <ele>240.4268368175</ele>
        <time>2019-03-20T13:50:21Z</time>
      </trkpt>
      <trkpt lat="43.53496" lon="5.29697">
        <ele>240.58746353414</ele>
        <time>2019-03-20T13:50:25Z</time>
      </trkpt>
      <trkpt lat="43.53501" lon="5.29702">
        <ele>240.7826396712</ele>
        <time>2019-03-20T13:50:30Z</time>
      </trkpt>
      <trkpt lat="43.53507" lon="5.29704">
        <ele>240.97437981336</ele>
        <time>2019-03-20T13:50:35Z</time>
      </trkpt>
      <trkpt lat="43.5351" lon="5.29707">
        <ele>241.19209164846</ele>
        <time>2019-03-20T13:50:41Z</time>
      </trkpt>
      <trkpt lat="43.53514" lon="5.29708">
        <ele>241.33245788948</ele>
        <time>2019-03-20T13:50:45Z</time>
      </trkpt>
      <trkpt lat="43.53519" lon="5.29708">
        <ele>241.49984920198</ele>
        <time>2019-03-20T13:50:50Z</time>
      </trkpt>
      <trkpt lat="43.53522" lon="5.29708">
        <ele>241.59300767913</ele>
        <time>2019-03-20T13:50:53Z</time>
      </trkpt>
      <trkpt lat="43.53526" lon="5.29705">
        <ele>241.70894583924</ele>
        <time>2019-03-20T13:50:57Z</time>
      </trkpt>
      <trkpt lat="43.5353" lon="5.29704">
        <ele>241.81425941281</ele>
        <time>2019-03-20T13:51:01Z</time>
      </trkpt>
      <trkpt lat="43.53533" lon="5.29702">
        <ele>241.90875938002</ele>
        <time>2019-03-20T13:51:05Z</time>
      </trkpt>
      <trkpt lat="43.53536" lon="5.297">
        <ele>242.00120900758</ele>
        <time>2019-03-20T13:51:09Z</time>
      </trkpt>
      <trkpt lat="43.53542" lon="5.29695">
        <ele>242.1163952345</ele>
        <time>2019-03-20T13:51:14Z</time>
      </trkpt>
      <trkpt lat="43.53543" lon="5.29692">
        <ele>242.18142437512</ele>
        <time>2019-03-20T13:51:17Z</time>
      </trkpt>
      <trkpt lat="43.53544" lon="5.29686">
        <ele>242.2632038932</ele>
        <time>2019-03-20T13:51:21Z</time>
      </trkpt>
      <trkpt lat="43.53545" lon="5.29681">
        <ele>242.34623493004</ele>
        <time>2019-03-20T13:51:25Z</time>
      </trkpt>
      <trkpt lat="43.53547" lon="5.29674">
        <ele>242.45367199832</ele>
        <time>2019-03-20T13:51:30Z</time>
      </trkpt>
      <trkpt lat="43.5355" lon="5.29665">
        <ele>242.55614846984</ele>
        <time>2019-03-20T13:51:35Z</time>
      </trkpt>
      <trkpt lat="43.53552" lon="5.29659">
        <ele>242.63586039077</ele>
        <time>2019-03-20T13:51:39Z</time>
      </trkpt>
      <trkpt lat="43.53555" lon="5.29654">
        <ele>242.73253028546</ele>
        <time>2019-03-20T13:51:44Z</time>
      </trkpt>
      <trkpt lat="43.53557" lon="5.29649">
        <ele>242.81094512177</ele>
        <time>2019-03-20T13:51:48Z</time>
      </trkpt>
      <trkpt lat="43.53558" lon="5.29644">
        <ele>242.86846503243</ele>
        <time>2019-03-20T13:51:51Z</time>
      </trkpt>
      <trkpt lat="43.5356" lon="5.29637">
        <ele>242.94330018345</ele>
        <time>2019-03-20T13:51:55Z</time>
      </trkpt>
      <trkpt lat="43.53561" lon="5.29629">
        <ele>243.03845117627</ele>
        <time>2019-03-20T13:52:00Z</time>
      </trkpt>
      <trkpt lat="43.53562" lon="5.29623">
        <ele>243.11699992432</ele>
        <time>2019-03-20T13:52:04Z</time>
      </trkpt>
      <trkpt lat="43.53564" lon="5.29616">
        <ele>243.19494197348</ele>
        <time>2019-03-20T13:52:08Z</time>
      </trkpt>
      <trkpt lat="43.53564" lon="5.29608">
        <ele>243.2791338298</ele>
        <time>2019-03-20T13:52:12Z</time>
      </trkpt>
      <trkpt lat="43.53565" lon="5.29603">
        <ele>243.3447092972</ele>
        <time>2019-03-20T13:52:15Z</time>
      </trkpt>
      <trkpt lat="43.53565" lon="5.29598">
        <ele>243.43471461094</ele>
        <time>2019-03-20T13:52:19Z</time>
      </trkpt>
      <trkpt lat="43.53567" lon="5.29587">
        <ele>243.5487825547</ele>
        <time>2019-03-20T13:52:24Z</time>
      </trkpt>
      <trkpt lat="43.5357" lon="5.2958">
        <ele>243.64154920346</ele>
        <time>2019-03-20T13:52:28Z</time>
      </trkpt>
      <trkpt lat="43.53573" lon="5.29575">
        <ele>243.73510925146</ele>
        <time>2019-03-20T13:52:32Z</time>
      </trkpt>
      <trkpt lat="43.53575" lon="5.29571">
        <ele>243.82932304283</ele>
        <time>2019-03-20T13:52:36Z</time>
      </trkpt>
      <trkpt lat="43.53577" lon="5.29566">
        <ele>243.94786252054</ele>
        <time>2019-03-20T13:52:41Z</time>
      </trkpt>
      <trkpt lat="43.53577" lon="5.2956">
        <ele>244.04335791449</ele>
        <time>2019-03-20T13:52:45Z</time>
      </trkpt>
      <trkpt lat="43.53578" lon="5.29555">
        <ele>244.13834338936</ele>
        <time>2019-03-20T13:52:49Z</time>
      </trkpt>
      <trkpt lat="43.5358" lon="5.29548">
        <ele>244.26066440919</ele>
        <time>2019-03-20T13:52:54Z</time>
      </trkpt>
      <trkpt lat="43.53582" lon="5.29543">
        <ele>244.33573333462</ele>
        <time>2019-03-20T13:52:57Z</time>
      </trkpt>
      <trkpt lat="43.53584" lon="5.29537">
        <ele>244.46215746644</ele>
        <time>2019-03-20T13:53:02Z</time>
      </trkpt>
      <trkpt lat="43.53586" lon="5.29531">
        <ele>244.5639375157</ele>
        <time>2019-03-20T13:53:06Z</time>
      </trkpt>
      <trkpt lat="43.53585" lon="5.29524">
        <ele>244.66624126629</ele>
        <time>2019-03-20T13:53:10Z</time>
      </trkpt>
      <trkpt lat="43.53582" lon="5.29518">
        <ele>244.76436995135</ele>
        <time>2019-03-20T13:53:14Z</time>
      </trkpt>
      <trkpt lat="43.53579" lon="5.29514">
        <ele>244.95064707062</ele>
        <time>2019-03-20T13:53:23Z</time>
      </trkpt>
      <trkpt lat="43.53573" lon="5.29512">
        <ele>245.06197605569</ele>
        <time>2019-03-20T13:53:28Z</time>
      </trkpt>
      <trkpt lat="43.53567" lon="5.29513">
        <ele>245.14915875094</ele>
        <time>2019-03-20T13:53:32Z</time>
      </trkpt>
      <trkpt lat="43.53562" lon="5.29516">
        <ele>245.24122503404</ele>
        <time>2019-03-20T13:53:36Z</time>
      </trkpt>
      <trkpt lat="43.53558" lon="5.2952">
        <ele>245.29822966412</ele>
        <time>2019-03-20T13:53:40Z</time>
      </trkpt>
      <trkpt lat="43.53554" lon="5.29523">
        <ele>245.54384871527</ele>
        <time>2019-03-20T13:54:04Z</time>
      </trkpt>
      <trkpt lat="43.5355" lon="5.29523">
        <ele>245.80768113919</ele>
        <time>2019-03-20T13:54:10Z</time>
      </trkpt>
      <trkpt lat="43.53548" lon="5.29525">
        <ele>246.08476694352</ele>
        <time>2019-03-20T13:54:36Z</time>
      </trkpt>
      <trkpt lat="43.53548" lon="5.29525">
        <ele>246.08476694352</ele>
        <time>2019-03-20T13:54:37Z</time>
      </trkpt>
    </trkseg>
  </trk>
</gpx>